[[{"header":{"parameterUnit":"m.s-1","parameterCategory":1,"la1":31.0,"la2":29.5877,"lo1":-88.7671,"lo2":-86.6584,"dy":0.0162,"dx":0.0185,"nx":115,"ny":88,"refTime":"2023-07-12T18:00:00:Z","depth":0,"parameterNumber":2,"parameterNumberName":"U-component_of_WINDS"},"data":[0.0,0.0,0.0,0.0,0.0,0.0,0.0,0.0,0.0,0.0,0.0,0.0,0.0,0.0,0.0,0.0,0.0,0.0,0.0,0.0,0.0,0.0,0.0,0.0,0.0,0.0,0.0,0.0,0.0,0.0,0.0,0.0,0.0,0.0,0.0,0.0,0.0,0.0,0.0,0.0,0.0,0.0,0.0,0.0,0.0,0.0,0.0,0.0,0.0,0.0,0.0,0.0,0.0,0.0,0.0,0.0,0.0,0.0,0.0,0.0,0.0,0.0,0.0,0.0,0.0,0.0,0.0,0.0,0.0,0.0,0.0,0.0,0.0,0.0,0.0,0.0,0.0,0.0,0.0,0.0,0.0,0.0,0.0,0.0,0.0,0.0,0.0,0.0,0.0,0.0,0.0,0.0,0.0,0.0,0.0,0.0,0.0,0.0,0.0,0.0,0.0,0.0,0.0,0.0,0.0,0.0,0.0,0.0,0.0,0.0,0.0,0.0,0.0,0.0,0.0,0.0,0.0,0.0,0.0,0.0,0.0,0.0,0.0,0.0,0.0,0.0,0.0,0.0,0.0,0.0,0.0,0.0,0.0,0.0,0.0,0.0,0.0,0.0,0.0,0.0,0.0,0.0,0.0,0.0,0.0,0.0,0.0,0.0,0.0,0.0,0.0,0.0,0.0,0.0,0.0,0.0,0.0,0.0,0.0,0.0,0.0,0.0,0.0,0.0,0.0,0.0,0.0,0.0,0.0,0.0,0.0,0.0,0.0,0.0,0.0,0.0,0.0,0.0,0.0,0.0,0.0,0.0,0.0,0.0,0.0,0.0,0.0,0.0,0.0,0.0,0.0,0.0,0.0,0.0,0.0,0.0,0.0,0.0,0.0,0.0,0.0,0.0,0.0,0.0,0.0,0.0,0.0,0.0,0.0,0.0,0.0,0.0,0.0,0.0,0.0,0.0,0.0,0.0,0.0,0.0,0.0,0.0,0.0,0.0,0.0,0.0,0.0,0.0,0.0,0.0,0.0,0.0,0.0,0.0,0.0,0.0,0.0,0.0,0.0,0.0,0.0,0.0,0.0,0.0,0.0,0.0,0.0,0.0,0.0,0.0,0.0,0.0,0.0,0.0,0.0,0.0,0.0,0.0,0.0,0.0,0.0,0.0,0.0,0.0,0.0,0.0,0.0,0.0,0.0,0.0,0.0,0.0,0.0,0.0,0.0,0.0,0.0,0.0,0.0,0.0,0.0,0.0,0.0,0.0,0.0,0.0,0.0,0.0,0.0,0.0,0.0,0.0,0.0,0.0,0.0,0.0,0.0,0.0,0.0,0.0,0.0,0.0,0.0,0.0,0.0,0.0,0.0,0.0,0.0,0.0,0.0,0.0,0.0,0.0,0.0,0.0,0.0,0.0,0.0,0.0,0.0,0.0,0.0,0.0,0.0,0.0,0.0,0.0,0.0,0.0,0.0,0.0,0.0,0.0,0.0,0.0,0.0,0.0,0.0,0.0,0.0,0.0,0.0,0.0,0.0,0.0,0.0,0.0,0.0,0.0,0.0,0.0,0.0,0.0,0.0,0.0,0.0,0.0,0.0,0.0,0.0,0.0,0.0,0.0,0.0,0.0,0.0,0.0,0.0,0.0,0.0,0.0,0.0,0.0,0.0,0.0,0.0,0.0,0.0,0.0,0.0,0.0,0.0,0.0,0.0,0.0,0.0,0.0,0.0,0.0,0.0,0.0,0.0,0.0,0.0,0.0,0.0,0.0,0.0,0.0,0.0,0.0,0.0,0.0,0.0,0.0,0.0,0.0,0.0,0.0,0.0,0.0,0.0,0.0,0.0,0.0,0.0,0.0,0.0,0.0,0.0,0.0,0.0,0.0,0.0,0.0,0.0,0.0,0.0,0.0,0.0,0.0,0.0,0.0,0.0,0.0,0.0,0.0,0.0,0.0,0.0,0.0,0.0,0.0,0.0,0.0,0.0,0.0,0.0,0.0,0.0,0.0,0.0,0.0,0.0,0.0,0.0,0.0,0.0,0.0,0.0,0.0,0.0,0.0,0.0,0.0,0.0,0.0,0.0,0.0,0.0,0.0,0.0,0.0,0.0,0.0,0.0,0.0,0.0,0.0,0.0,0.0,0.0,0.0,0.0,0.0,0.0,0.0,0.0,0.0,0.0,0.0,0.0,0.0,0.0,0.0,0.0,0.0,0.0,0.0,0.0,0.0,0.0,0.0,0.0,0.0,0.0,0.0,0.0,0.0,0.0,0.0,0.0,0.0,0.0,0.0,0.0,0.0,0.0,0.0,0.0,0.0,0.0,0.0,0.0,0.0,0.0,0.0,0.0,0.0,0.0,0.0,0.0,0.0,0.0,0.0,0.0,0.0,0.0,0.0,0.0,0.0,0.0,0.0,0.0,0.0,0.0,0.0,0.0,0.0,0.0,0.0,0.0,0.0,0.0,0.0,0.0,0.0,0.0,0.0,0.0,0.0,0.0,0.0,0.0,0.0,0.0,0.0,0.0,0.0,0.0,0.0,0.0,0.0,0.0,0.0,0.0,0.0,0.0,0.0,0.0,0.0,0.0,0.0,0.0,0.0,0.0,0.0,0.0,0.0,0.0,0.0,0.0,0.0,0.0,0.0,0.0,0.0,0.0,0.0,0.0,0.0,0.0,0.0,0.0,0.0,0.0,0.0,0.0,0.0,0.0,0.0,0.0,0.0,0.0,0.0,0.0,0.0,0.0,0.0,0.0,0.0,0.0,0.0,0.0,0.0,0.0,0.0,0.0,0.0,0.0,0.0,0.0,0.0,0.0,0.0,0.0,0.0,0.0,0.0,0.0,0.0,0.0,0.0,0.0,0.0,0.0,0.0,0.0,0.0,0.0,0.0,0.0,0.0,0.0,0.0,0.0,0.0,0.0,0.0,0.0,0.0,0.0,0.0,0.0,0.0,0.0,0.0,0.0,0.0,0.0,0.0,0.0,0.0,0.0,0.0,0.0,0.0,0.0,0.0,0.0,0.0,0.0,0.0,0.0,0.0,0.0,0.0,0.0,0.0,0.0,0.0,0.0,0.0,0.0,0.0,0.0,0.0,0.0,0.0,0.0,0.0,0.0,0.0,0.0,0.0,0.0,0.0,0.0,0.0,0.0,0.0,0.0,0.0,0.0,0.0,0.0,0.0,0.0,0.0,0.0,0.0,0.0,0.0,0.0,0.0,0.0,0.0,0.0,0.0,0.0,0.0,0.0,0.0,0.0,0.0,0.0,0.0,0.0,0.0,0.0,0.0,0.0,0.0,0.0,0.0,0.0,0.0,0.0,0.0,0.0,0.0,0.0,0.0,0.0,0.0,0.0,0.0,0.0,0.0,0.0,0.0,0.0,0.0,0.0,0.0,0.0,0.0,0.0,0.0,0.0,0.0,0.0,0.0,0.0,0.0,0.0,0.0,0.0,0.0,0.0,0.0,0.0,0.0,0.0,0.0,0.0,0.0,0.0,0.0,0.0,0.0,0.0,0.0,0.0,0.0,0.0,0.0,0.0,0.0,0.0,0.0,0.0,0.0,0.0,0.0,0.0,0.0,0.0,0.0,0.0,0.0,0.0,0.0,0.0,0.0,0.0,0.0,0.0,0.0,0.0,0.0,0.0,0.0,0.0,0.0,0.0,0.0,0.0,0.0,0.0,0.0,0.0,0.0,0.0,0.0,0.0,0.0,0.0,0.0,0.0,0.0,0.0,0.0,0.0,0.0,0.0,0.0,0.0,0.0,0.0,0.0,0.0,0.0,0.0,0.0,0.0,0.0,0.0,0.0,0.0,0.0,0.0,0.0,0.0,0.0,0.0,0.0,0.0,0.0,0.0,0.0,0.0,0.0,0.0,0.0,0.0,0.0,0.0,0.0,0.0,0.0,0.0,0.0,0.0,0.0,0.0,0.0,0.0,0.0,0.0,0.0,0.0,0.0,0.0,0.0,0.0,0.0,0.0,0.0,0.0,0.0,0.0,0.0,0.0,0.0,0.0,0.0,0.0,0.0,0.0,0.0,0.0,0.0,0.0,0.0,0.0,0.0,0.0,0.0,0.0,0.0,0.0,0.0,0.0,0.0,0.0,0.0,0.0,0.0,0.0,0.0,0.0,0.0,0.0,0.0,0.0,0.0,0.0,0.0,0.0,0.0,0.0,0.0,0.0,0.0,0.0,0.0,0.0,0.0,0.0,0.0,0.0,0.0,0.0,0.0,0.0,0.0,0.0,0.0,0.0,0.0,0.0,0.0,0.0,0.0,-1.9709,0.0,0.0,0.0,0.0,0.0,0.0,0.0,0.0,0.0,0.0,0.0,0.0,0.0,0.0,0.0,0.0,0.0,0.0,0.0,0.0,0.0,0.0,0.0,0.0,0.0,0.0,0.0,0.0,0.0,0.0,0.0,0.0,0.0,0.0,0.0,0.0,0.0,0.0,0.0,0.0,0.0,0.0,0.0,0.0,0.0,0.0,0.0,0.0,0.0,0.0,0.0,0.0,0.0,0.0,0.0,0.0,0.0,0.0,0.0,0.0,0.0,0.0,0.0,0.0,0.0,0.0,0.0,0.0,0.0,0.0,0.0,0.0,0.0,0.0,0.0,0.0,0.0,0.0,0.0,0.0,0.0,0.0,0.0,0.0,0.0,0.0,0.0,0.0,0.0,0.0,0.0,0.0,0.0,0.0,0.0,0.0,0.0,0.0,0.0,0.0,0.0,0.0,0.0,0.0,0.0,0.0,0.0,0.0,0.0,0.0,-2.1676,-2.1344,-2.096,-2.0669,-2.033,0.0,0.0,0.0,0.0,0.0,0.0,0.0,0.0,0.0,0.0,0.0,0.0,0.0,0.0,0.0,0.0,0.0,0.0,0.0,0.0,0.0,0.0,0.0,0.0,0.0,0.0,0.0,0.0,0.0,0.0,0.0,0.0,0.0,0.0,0.0,0.0,0.0,0.0,0.0,0.0,0.0,0.0,0.0,0.0,0.0,0.0,0.0,0.0,0.0,0.0,0.0,0.0,0.0,0.0,0.0,0.0,0.0,0.0,0.0,0.0,0.0,0.0,0.0,0.0,0.0,0.0,0.0,0.0,0.0,0.0,0.0,0.0,0.0,0.0,0.0,0.0,0.0,0.0,0.0,0.0,0.0,0.0,0.0,0.0,0.0,0.0,0.0,0.0,0.0,0.0,0.0,0.0,0.0,0.0,0.0,0.0,0.0,0.0,0.0,0.0,0.0,0.0,0.0,0.0,0.0,0.0,0.0,0.0,0.0,0.0,0.0,0.0,-2.1435,-2.0968,-2.069,0.0,0.0,0.0,0.0,0.0,0.0,0.0,0.0,0.0,0.0,0.0,0.0,0.0,0.0,0.0,0.0,0.0,0.0,0.0,0.0,0.0,0.0,0.0,0.0,0.0,0.0,0.0,0.0,0.0,0.0,0.0,0.0,0.0,0.0,0.0,0.0,0.0,0.0,0.0,0.0,0.0,0.0,0.0,0.0,0.0,0.0,0.0,0.0,0.0,0.0,0.0,0.0,0.0,0.0,0.0,0.0,0.0,0.0,0.0,0.0,0.0,0.0,0.0,0.0,0.0,0.0,0.0,0.0,0.0,0.0,0.0,0.0,0.0,0.0,0.0,0.0,0.0,0.0,0.0,0.0,0.0,0.0,0.0,0.0,0.0,0.0,0.0,0.0,0.0,0.0,0.0,0.0,0.0,0.0,0.0,0.0,0.0,0.0,0.0,0.0,0.0,0.0,0.0,0.0,0.0,0.0,0.0,0.0,0.0,0.0,-2.3235,-2.3235,-2.2588,0.0,-2.0471,0.0,0.0,0.0,0.0,0.0,0.0,0.0,0.0,0.0,0.0,0.0,0.0,0.0,0.0,0.0,0.0,0.0,0.0,0.0,0.0,0.0,0.0,0.0,0.0,0.0,0.0,0.0,0.0,0.0,0.0,0.0,0.0,0.0,0.0,0.0,0.0,0.0,0.0,0.0,0.0,0.0,0.0,0.0,0.0,0.0,0.0,0.0,0.0,0.0,0.0,0.0,0.0,0.0,0.0,0.0,0.0,0.0,0.0,0.0,0.0,0.0,0.0,0.0,0.0,0.0,0.0,0.0,0.0,0.0,0.0,0.0,0.0,0.0,0.0,0.0,0.0,0.0,0.0,0.0,0.0,0.0,0.0,0.0,0.0,0.0,0.0,0.0,0.0,0.0,0.0,0.0,0.0,0.0,0.0,0.0,0.0,0.0,0.0,0.0,0.0,0.0,0.0,0.0,0.0,0.0,0.0,0.0,0.0,0.0,0.0,-2.306,-2.3042,-2.2428,-2.1873,0.0,0.0,0.0,0.0,0.0,0.0,0.0,0.0,0.0,0.0,0.0,0.0,0.0,0.0,0.0,0.0,0.0,0.0,0.0,0.0,0.0,0.0,0.0,0.0,0.0,0.0,0.0,0.0,0.0,0.0,0.0,0.0,0.0,0.0,0.0,0.0,0.0,0.0,0.0,0.0,0.0,0.0,0.0,0.0,0.0,0.0,0.0,0.0,0.0,0.0,0.0,0.0,0.0,0.0,0.0,0.0,0.0,0.0,0.0,0.0,0.0,0.0,0.0,0.0,0.0,0.0,0.0,0.0,0.0,0.0,0.0,0.0,0.0,0.0,0.0,0.0,0.0,0.0,0.0,0.0,0.0,0.0,0.0,0.0,0.0,0.0,0.0,0.0,0.0,0.0,0.0,0.0,0.0,0.0,0.0,0.0,0.0,0.0,0.0,0.0,0.0,0.0,0.0,0.0,0.0,0.0,0.0,0.0,0.0,0.0,-2.2773,-2.3149,-2.2948,-2.2398,-2.2062,-2.2024,0.0,0.0,0.0,0.0,0.0,0.0,0.0,0.0,0.0,0.0,0.0,0.0,0.0,0.0,0.0,0.0,0.0,0.0,0.0,0.0,0.0,0.0,0.0,0.0,0.0,0.0,0.0,0.0,0.0,0.0,0.0,0.0,0.0,0.0,0.0,0.0,0.0,0.0,0.0,0.0,0.0,0.0,0.0,0.0,0.0,0.0,0.0,0.0,0.0,0.0,0.0,0.0,0.0,0.0,0.0,0.0,0.0,0.0,0.0,0.0,0.0,0.0,0.0,0.0,0.0,0.0,0.0,0.0,0.0,0.0,0.0,0.0,0.0,0.0,0.0,0.0,0.0,0.0,0.0,0.0,0.0,0.0,0.0,0.0,0.0,0.0,0.0,0.0,0.0,0.0,0.0,0.0,0.0,0.0,0.0,0.0,0.0,0.0,0.0,0.0,0.0,0.0,0.0,0.0,0.0,0.0,0.0,0.0,-2.2293,-2.3537,-2.3947,-2.3398,-2.2823,-2.2311,0.0,0.0,0.0,0.0,0.0,0.0,0.0,0.0,0.0,0.0,0.0,0.0,0.0,0.0,0.0,0.0,0.0,0.0,0.0,0.0,0.0,0.0,0.0,0.0,0.0,0.0,0.0,0.0,0.0,0.0,0.0,0.0,0.0,0.0,0.0,0.0,0.0,0.0,0.0,0.0,0.0,0.0,0.0,0.0,0.0,0.0,0.0,0.0,0.0,0.0,0.0,0.0,0.0,0.0,0.0,0.0,0.0,0.0,0.0,0.0,0.0,0.0,0.0,0.0,0.0,0.0,0.0,0.0,0.0,0.0,0.0,0.0,0.0,0.0,0.0,0.0,0.0,0.0,0.0,0.0,0.0,0.0,0.0,0.0,0.0,0.0,0.0,0.0,0.0,0.0,0.0,0.0,0.0,0.0,0.0,0.0,0.0,0.0,0.0,0.0,0.0,0.0,0.0,0.0,0.0,0.0,0.0,0.0,0.0,-2.2125,-2.3407,-2.4008,-2.3753,-2.2753,-2.2106,0.0,0.0,0.0,0.0,0.0,0.0,0.0,0.0,0.0,0.0,0.0,0.0,0.0,0.0,0.0,0.0,0.0,0.0,0.0,0.0,0.0,0.0,0.0,0.0,0.0,0.0,0.0,0.0,0.0,0.0,0.0,0.0,0.0,0.0,0.0,0.0,0.0,0.0,0.0,0.0,0.0,0.0,0.0,0.0,0.0,0.0,0.0,0.0,0.0,0.0,0.0,0.0,0.0,0.0,0.0,0.0,0.0,0.0,0.0,0.0,0.0,0.0,0.0,0.0,0.0,0.0,0.0,0.0,0.0,0.0,0.0,0.0,0.0,0.0,0.0,0.0,0.0,0.0,0.0,0.0,0.0,0.0,0.0,0.0,0.0,0.0,0.0,0.0,0.0,0.0,0.0,0.0,0.0,0.0,0.0,0.0,0.0,0.0,0.0,0.0,0.0,0.0,0.0,0.0,0.0,0.0,0.0,0.0,0.0,-2.2828,0.0,-2.423,-2.4191,-2.297,-2.2191,0.0,0.0,0.0,0.0,0.0,0.0,0.0,0.0,0.0,0.0,0.0,0.0,0.0,0.0,0.0,0.0,0.0,0.0,0.0,0.0,0.0,0.0,0.0,0.0,0.0,0.0,0.0,0.0,0.0,0.0,0.0,0.0,0.0,0.0,0.0,0.0,0.0,0.0,0.0,0.0,0.0,0.0,0.0,0.0,0.0,0.0,0.0,0.0,0.0,0.0,0.0,0.0,0.0,0.0,0.0,0.0,0.0,0.0,0.0,0.0,0.0,0.0,0.0,0.0,0.0,0.0,0.0,0.0,0.0,0.0,0.0,0.0,0.0,0.0,0.0,0.0,0.0,0.0,0.0,0.0,0.0,0.0,0.0,0.0,0.0,0.0,0.0,0.0,0.0,0.0,0.0,0.0,0.0,0.0,0.0,0.0,0.0,0.0,0.0,0.0,0.0,0.0,0.0,0.0,0.0,0.0,0.0,0.0,-2.2735,-2.4485,-2.4605,-2.4732,-2.4784,-2.3549,-2.2586,0.0,0.0,0.0,0.0,0.0,0.0,0.0,0.0,0.0,0.0,0.0,0.0,0.0,0.0,0.0,0.0,0.0,0.0,0.0,0.0,0.0,0.0,0.0,0.0,0.0,0.0,0.0,0.0,0.0,0.0,0.0,0.0,0.0,0.0,0.0,0.0,0.0,0.0,0.0,0.0,0.0,0.0,0.0,0.0,0.0,0.0,0.0,0.0,0.0,0.0,0.0,0.0,0.0,0.0,0.0,0.0,0.0,0.0,0.0,0.0,0.0,0.0,0.0,0.0,0.0,0.0,0.0,0.0,0.0,0.0,0.0,0.0,0.0,0.0,0.0,0.0,0.0,0.0,0.0,0.0,0.0,0.0,0.0,0.0,0.0,0.0,0.0,0.0,0.0,0.0,0.0,0.0,0.0,0.0,0.0,0.0,0.0,0.0,0.0,0.0,0.0,0.0,0.0,0.0,0.0,0.0,0.0,0.0,0.0,-2.4605,-2.5525,-2.6027,-2.5991,-2.4762,-2.3554,0.0,0.0,0.0,0.0,0.0,0.0,0.0,0.0,0.0,0.0,0.0,0.0,0.0,0.0,0.0,0.0,0.0,0.0,0.0,0.0,0.0,0.0,0.0,0.0,0.0,0.0,0.0,0.0,0.0,0.0,0.0,0.0,0.0,0.0,0.0,0.0,0.0,0.0,0.0,0.0,0.0,0.0,0.0,0.0,0.0,0.0,0.0,0.0,0.0,0.0,0.0,0.0,0.0,0.0,0.0,0.0,0.0,0.0,0.0,0.0,0.0,0.0,0.0,0.0,0.0,0.0,0.0,0.0,0.0,0.0,0.0,0.0,0.0,0.0,0.0,0.0,0.0,0.0,0.0,0.0,0.0,0.0,0.0,0.0,0.0,0.0,0.0,0.0,0.0,0.0,0.0,0.0,0.0,0.0,0.0,0.0,0.0,0.0,0.0,0.0,0.0,0.0,0.0,0.0,0.0,0.0,0.0,0.0,0.0,-2.6713,-2.728,-2.7603,-2.7633,-2.6039,-2.4491,-2.3059,0.0,0.0,0.0,0.0,0.0,0.0,0.0,0.0,0.0,0.0,0.0,0.0,0.0,0.0,0.0,0.0,0.0,0.0,0.0,0.0,0.0,0.0,0.0,0.0,0.0,0.0,0.0,0.0,0.0,0.0,0.0,0.0,0.0,0.0,0.0,0.0,0.0,0.0,0.0,0.0,0.0,0.0,0.0,0.0,0.0,0.0,0.0,0.0,0.0,0.0,0.0,0.0,0.0,0.0,0.0,0.0,0.0,0.0,0.0,0.0,0.0,0.0,0.0,0.0,0.0,0.0,0.0,0.0,0.0,0.0,0.0,0.0,0.0,0.0,0.0,0.0,0.0,0.0,0.0,0.0,0.0,0.0,0.0,0.0,0.0,0.0,0.0,0.0,0.0,0.0,0.0,0.0,0.0,0.0,0.0,0.0,0.0,0.0,0.0,0.0,0.0,0.0,0.0,0.0,0.0,0.0,0.0,0.0,-3.0359,-2.9827,-2.9444,-2.9324,-2.7384,-2.5466,0.0,0.0,0.0,0.0,0.0,0.0,0.0,0.0,0.0,0.0,0.0,0.0,0.0,0.0,0.0,0.0,0.0,0.0,0.0,0.0,0.0,0.0,0.0,0.0,0.0,0.0,0.0,0.0,0.0,0.0,0.0,0.0,0.0,0.0,0.0,0.0,0.0,0.0,0.0,0.0,0.0,0.0,0.0,0.0,0.0,0.0,0.0,0.0,0.0,0.0,0.0,0.0,0.0,0.0,0.0,0.0,0.0,0.0,0.0,0.0,0.0,0.0,0.0,0.0,0.0,0.0,0.0,0.0,0.0,0.0,0.0,0.0,0.0,0.0,0.0,0.0,0.0,0.0,0.0,0.0,0.0,0.0,0.0,0.0,0.0,0.0,0.0,0.0,0.0,0.0,0.0,0.0,0.0,0.0,0.0,0.0,0.0,0.0,0.0,0.0,0.0,0.0,0.0,0.0,0.0,0.0,0.0,0.0,0.0,-3.1764,-3.1922,-3.1435,-3.0397,-2.8821,-2.6873,0.0,0.0,0.0,0.0,0.0,0.0,0.0,0.0,0.0,0.0,0.0,0.0,0.0,0.0,0.0,0.0,0.0,0.0,0.0,0.0,0.0,0.0,0.0,0.0,0.0,0.0,0.0,0.0,0.0,0.0,0.0,0.0,0.0,0.0,0.0,0.0,0.0,0.0,0.0,0.0,0.0,0.0,0.0,0.0,0.0,0.0,0.0,0.0,0.0,0.0,0.0,0.0,0.0,0.0,0.0,0.0,0.0,0.0,0.0,0.0,0.0,0.0,0.0,0.0,0.0,0.0,0.0,0.0,0.0,0.0,0.0,0.0,0.0,0.0,0.0,0.0,0.0,0.0,0.0,0.0,0.0,0.0,0.0,0.0,0.0,0.0,0.0,0.0,0.0,0.0,0.0,0.0,0.0,0.0,0.0,0.0,0.0,0.0,0.0,0.0,0.0,0.0,0.0,0.0,0.0,0.0,0.0,0.0,-3.0845,-3.2811,-3.3413,-3.3004,-3.1618,-2.9881,-2.7825,0.0,0.0,0.0,0.0,0.0,0.0,0.0,0.0,0.0,0.0,0.0,0.0,0.0,0.0,0.0,0.0,0.0,0.0,0.0,0.0,0.0,0.0,0.0,0.0,0.0,0.0,0.0,0.0,0.0,0.0,0.0,0.0,0.0,0.0,0.0,0.0,0.0,0.0,0.0,0.0,0.0,0.0,0.0,0.0,0.0,0.0,0.0,0.0,0.0,0.0,0.0,0.0,0.0,0.0,0.0,0.0,0.0,0.0,0.0,0.0,0.0,0.0,0.0,0.0,0.0,0.0,0.0,0.0,0.0,0.0,0.0,0.0,0.0,0.0,0.0,0.0,0.0,0.0,0.0,0.0,0.0,0.0,0.0,0.0,0.0,0.0,0.0,0.0,0.0,0.0,0.0,0.0,0.0,0.0,0.0,0.0,0.0,0.0,0.0,0.0,0.0,0.0,0.0,0.0,0.0,0.0,0.0,0.0,-3.1071,-3.3431,-3.4242,-3.4067,-3.2798,-3.0776,-2.8601,0.0,0.0,0.0,0.0,0.0,0.0,0.0,0.0,0.0,0.0,0.0,0.0,0.0,0.0,0.0,0.0,0.0,0.0,0.0,0.0,0.0,0.0,0.0,0.0,0.0,0.0,0.0,0.0,0.0,0.0,0.0,0.0,0.0,0.0,0.0,0.0,0.0,0.0,0.0,0.0,0.0,0.0,0.0,0.0,0.0,0.0,0.0,0.0,0.0,0.0,0.0,0.0,0.0,0.0,0.0,0.0,0.0,0.0,0.0,0.0,0.0,0.0,0.0,0.0,0.0,0.0,0.0,0.0,0.0,0.0,0.0,0.0,0.0,0.0,0.0,0.0,0.0,0.0,0.0,0.0,0.0,0.0,0.0,0.0,0.0,0.0,0.0,0.0,0.0,0.0,0.0,0.0,0.0,0.0,0.0,0.0,0.0,0.0,0.0,0.0,0.0,0.0,0.0,0.0,0.0,0.0,0.0,0.0,-3.1296,-3.3221,-3.368,-3.3734,-3.3398,-3.1881,-2.9663,0.0,0.0,0.0,0.0,0.0,0.0,0.0,0.0,0.0,0.0,0.0,0.0,0.0,0.0,0.0,0.0,0.0,0.0,0.0,0.0,0.0,0.0,0.0,0.0,0.0,0.0,0.0,0.0,0.0,0.0,0.0,0.0,0.0,0.0,0.0,0.0,0.0,0.0,0.0,0.0,0.0,0.0,0.0,0.0,0.0,0.0,0.0,0.0,-1.9184,0.0,0.0,0.0,0.0,0.0,0.0,0.0,0.0,0.0,0.0,0.0,0.0,0.0,0.0,0.0,0.0,0.0,0.0,0.0,0.0,0.0,0.0,0.0,0.0,0.0,0.0,0.0,0.0,0.0,0.0,0.0,0.0,0.0,0.0,0.0,0.0,0.0,0.0,0.0,0.0,0.0,0.0,0.0,0.0,0.0,0.0,0.0,0.0,0.0,0.0,0.0,0.0,0.0,0.0,0.0,0.0,0.0,0.0,0.0,-3.1658,-3.3062,-3.3752,-3.3741,-3.3066,-3.2053,-3.0067,0.0,0.0,0.0,0.0,0.0,0.0,0.0,0.0,0.0,0.0,0.0,0.0,0.0,0.0,0.0,0.0,0.0,0.0,0.0,0.0,0.0,0.0,0.0,0.0,0.0,0.0,0.0,0.0,0.0,0.0,0.0,0.0,0.0,0.0,0.0,0.0,0.0,0.0,0.0,0.0,0.0,0.0,0.0,0.0,0.0,0.0,0.0,0.0,0.0,0.0,0.0,0.0,0.0,0.0,0.0,0.0,0.0,0.0,0.0,0.0,0.0,0.0,0.0,0.0,0.0,0.0,0.0,0.0,0.0,0.0,0.0,0.0,0.0,0.0,0.0,0.0,0.0,0.0,0.0,0.0,0.0,0.0,0.0,0.0,0.0,0.0,0.0,0.0,0.0,0.0,0.0,0.0,0.0,0.0,0.0,0.0,0.0,0.0,0.0,0.0,0.0,0.0,0.0,0.0,0.0,0.0,0.0,-3.0069,-3.1906,-3.287,-3.396,-3.3849,-3.2392,-3.1797,-3.0047,-2.6987,0.0,0.0,0.0,0.0,0.0,0.0,0.0,0.0,0.0,0.0,0.0,0.0,0.0,0.0,0.0,0.0,0.0,0.0,0.0,0.0,0.0,0.0,0.0,0.0,0.0,0.0,0.0,0.0,0.0,0.0,0.0,0.0,0.0,0.0,0.0,0.0,0.0,0.0,-1.775,-1.8229,0.0,0.0,0.0,0.0,0.0,0.0,0.0,0.0,-1.9465,0.0,0.0,0.0,0.0,0.0,0.0,0.0,0.0,0.0,0.0,0.0,0.0,0.0,0.0,0.0,0.0,0.0,0.0,0.0,0.0,0.0,0.0,0.0,0.0,0.0,0.0,0.0,0.0,0.0,0.0,0.0,0.0,0.0,0.0,0.0,0.0,0.0,0.0,0.0,0.0,0.0,0.0,0.0,0.0,0.0,0.0,0.0,0.0,0.0,0.0,0.0,0.0,0.0,0.0,0.0,0.0,-2.7233,-2.9884,-3.159,-3.222,-3.3328,-3.3312,-3.2191,-3.1403,-2.9706,-2.6943,0.0,0.0,0.0,0.0,0.0,0.0,0.0,0.0,0.0,0.0,0.0,0.0,0.0,0.0,0.0,0.0,0.0,0.0,0.0,0.0,0.0,0.0,0.0,0.0,0.0,0.0,0.0,0.0,0.0,0.0,0.0,0.0,0.0,0.0,0.0,0.0,0.0,0.0,0.0,-1.9912,-2.0465,0.0,0.0,0.0,0.0,0.0,0.0,0.0,0.0,-2.1355,0.0,0.0,0.0,0.0,0.0,0.0,0.0,0.0,0.0,0.0,0.0,0.0,0.0,0.0,0.0,0.0,0.0,0.0,0.0,0.0,0.0,0.0,0.0,0.0,0.0,0.0,0.0,0.0,0.0,0.0,0.0,0.0,0.0,0.0,0.0,0.0,0.0,0.0,0.0,0.0,0.0,0.0,0.0,0.0,0.0,0.0,0.0,0.0,0.0,0.0,0.0,0.0,0.0,0.0,0.0,-2.7138,-2.9704,-3.1337,-3.1924,-3.2953,-3.2979,-3.1762,-3.0806,-2.9151,0.0,0.0,0.0,0.0,0.0,0.0,0.0,0.0,0.0,0.0,0.0,0.0,0.0,0.0,0.0,0.0,0.0,0.0,0.0,0.0,0.0,0.0,0.0,0.0,0.0,0.0,0.0,0.0,0.0,0.0,0.0,0.0,0.0,0.0,0.0,0.0,0.0,0.0,0.0,0.0,-2.0767,-2.1219,-2.1443,0.0,0.0,0.0,0.0,0.0,0.0,-2.211,-2.2195,0.0,0.0,0.0,0.0,0.0,0.0,0.0,0.0,0.0,0.0,0.0,0.0,0.0,0.0,0.0,0.0,0.0,0.0,0.0,0.0,0.0,0.0,0.0,0.0,0.0,0.0,0.0,0.0,0.0,0.0,0.0,0.0,0.0,0.0,0.0,0.0,0.0,0.0,0.0,0.0,0.0,0.0,0.0,0.0,0.0,0.0,0.0,0.0,0.0,0.0,0.0,0.0,0.0,0.0,0.0,-2.6901,-2.9377,-3.0998,-3.1655,-3.2516,-3.2499,-3.1452,-3.0357,-2.8787,0.0,0.0,0.0,0.0,0.0,0.0,0.0,0.0,0.0,0.0,0.0,0.0,0.0,0.0,0.0,0.0,0.0,0.0,0.0,0.0,0.0,0.0,0.0,0.0,0.0,0.0,0.0,0.0,0.0,0.0,0.0,0.0,0.0,0.0,0.0,0.0,0.0,0.0,0.0,0.0,0.0,-2.1895,-2.2121,-2.22,0.0,0.0,0.0,0.0,-2.2744,-2.2824,0.0,0.0,0.0,0.0,0.0,0.0,0.0,0.0,0.0,0.0,0.0,0.0,0.0,0.0,0.0,0.0,0.0,0.0,0.0,0.0,0.0,0.0,0.0,0.0,0.0,0.0,0.0,0.0,0.0,0.0,0.0,0.0,0.0,0.0,0.0,0.0,0.0,0.0,0.0,0.0,0.0,0.0,0.0,0.0,0.0,0.0,0.0,0.0,0.0,0.0,0.0,0.0,0.0,0.0,0.0,0.0,-2.6568,-2.8799,-3.0421,-3.1377,-3.1553,-3.1553,-3.1386,-3.0357,-2.8787,0.0,0.0,0.0,0.0,0.0,0.0,0.0,0.0,0.0,0.0,0.0,0.0,0.0,0.0,0.0,0.0,0.0,0.0,0.0,0.0,0.0,0.0,0.0,0.0,0.0,0.0,0.0,0.0,0.0,0.0,0.0,0.0,0.0,0.0,0.0,0.0,0.0,0.0,0.0,0.0,0.0,-2.3271,-2.4274,-2.4431,-2.4249,0.0,0.0,0.0,-2.391,-2.3834,0.0,0.0,0.0,0.0,0.0,0.0,0.0,0.0,0.0,0.0,0.0,0.0,0.0,0.0,0.0,0.0,0.0,0.0,0.0,0.0,0.0,0.0,0.0,0.0,0.0,0.0,0.0,0.0,0.0,0.0,0.0,0.0,0.0,0.0,0.0,0.0,0.0,0.0,0.0,0.0,0.0,0.0,0.0,0.0,0.0,0.0,0.0,0.0,0.0,0.0,0.0,0.0,0.0,0.0,0.0,-2.4808,-2.6499,-2.8348,-2.9854,-3.0909,-3.1235,-3.1235,-3.0959,-2.988,-2.8398,0.0,0.0,0.0,0.0,0.0,0.0,0.0,0.0,0.0,0.0,0.0,0.0,0.0,0.0,0.0,0.0,0.0,0.0,0.0,0.0,0.0,0.0,0.0,0.0,0.0,0.0,0.0,0.0,0.0,0.0,0.0,0.0,0.0,0.0,0.0,0.0,0.0,0.0,0.0,0.0,0.0,0.0,-2.4675,-2.5059,0.0,0.0,0.0,-2.531,-2.5418,0.0,0.0,0.0,0.0,0.0,0.0,0.0,0.0,0.0,0.0,0.0,0.0,0.0,0.0,0.0,0.0,0.0,0.0,0.0,0.0,0.0,0.0,0.0,0.0,0.0,0.0,0.0,0.0,0.0,0.0,0.0,0.0,0.0,0.0,0.0,0.0,0.0,0.0,0.0,0.0,0.0,0.0,0.0,0.0,0.0,0.0,0.0,0.0,0.0,0.0,0.0,0.0,0.0,0.0,0.0,0.0,0.0,-2.6474,-2.7946,-2.9327,-3.0557,-3.0859,-3.0859,-3.0608,-2.9377,0.0,0.0,0.0,0.0,0.0,0.0,0.0,0.0,0.0,0.0,0.0,0.0,0.0,0.0,0.0,0.0,0.0,0.0,0.0,0.0,0.0,0.0,0.0,0.0,0.0,0.0,0.0,-1.6679,0.0,0.0,0.0,0.0,0.0,0.0,0.0,0.0,0.0,0.0,0.0,0.0,0.0,0.0,-2.4506,-2.531,-2.5762,-2.6063,0.0,0.0,-2.6163,-2.6625,-2.5636,-2.48,0.0,0.0,0.0,0.0,0.0,0.0,0.0,0.0,0.0,0.0,0.0,0.0,0.0,0.0,0.0,0.0,0.0,0.0,0.0,0.0,0.0,0.0,0.0,0.0,0.0,0.0,0.0,0.0,0.0,0.0,0.0,0.0,0.0,0.0,0.0,0.0,0.0,0.0,0.0,0.0,0.0,0.0,0.0,0.0,0.0,0.0,0.0,0.0,0.0,0.0,0.0,0.0,0.0,0.0,0.0,-2.6474,-2.7595,-2.895,-3.0507,-3.0131,-3.0131,-3.0557,-2.9026,-2.7645,0.0,0.0,0.0,0.0,0.0,0.0,0.0,0.0,0.0,0.0,0.0,0.0,0.0,0.0,0.0,0.0,0.0,0.0,0.0,0.0,0.0,0.0,0.0,0.0,0.0,0.0,0.0,0.0,0.0,0.0,0.0,0.0,0.0,0.0,0.0,0.0,0.0,0.0,0.0,0.0,0.0,-2.5302,-2.6892,-2.7143,-2.7344,0.0,0.0,-2.7193,-2.7218,-2.5887,-2.48,-2.48,0.0,0.0,0.0,0.0,0.0,0.0,0.0,0.0,0.0,0.0,0.0,0.0,0.0,0.0,0.0,0.0,0.0,0.0,0.0,0.0,0.0,0.0,0.0,0.0,0.0,0.0,0.0,0.0,0.0,0.0,0.0,0.0,0.0,0.0,0.0,0.0,0.0,0.0,0.0,0.0,0.0,0.0,0.0,0.0,0.0,0.0,0.0,0.0,0.0,0.0,0.0,0.0,0.0,-2.4958,-2.5937,-2.7369,-2.8574,-2.949,-2.9704,-2.9905,-3.0105,-2.8825,-2.7595,0.0,0.0,0.0,0.0,0.0,0.0,0.0,0.0,0.0,0.0,0.0,0.0,0.0,0.0,0.0,0.0,0.0,0.0,0.0,0.0,0.0,0.0,0.0,0.0,0.0,0.0,0.0,0.0,-1.8289,-1.9033,-1.9459,0.0,0.0,0.0,0.0,0.0,0.0,0.0,0.0,0.0,0.0,-2.6189,-2.7178,-2.7871,0.0,0.0,-2.8147,-2.7795,-2.7795,-2.6113,-2.48,-2.48,-2.3221,0.0,0.0,0.0,0.0,0.0,0.0,0.0,0.0,0.0,0.0,0.0,0.0,0.0,0.0,0.0,0.0,0.0,0.0,0.0,0.0,0.0,0.0,0.0,0.0,0.0,0.0,0.0,0.0,0.0,0.0,0.0,0.0,0.0,0.0,0.0,0.0,0.0,0.0,0.0,0.0,0.0,0.0,0.0,0.0,0.0,0.0,0.0,0.0,0.0,0.0,0.0,0.0,-2.5084,-2.5586,-2.7243,-2.8373,-2.8888,-2.9503,-2.9779,-2.9754,-2.8699,-2.7595,0.0,0.0,0.0,0.0,0.0,0.0,0.0,0.0,0.0,0.0,0.0,0.0,0.0,0.0,0.0,0.0,0.0,0.0,0.0,0.0,0.0,0.0,0.0,0.0,0.0,0.0,0.0,0.0,-1.8411,-1.9105,-1.9632,0.0,0.0,0.0,0.0,0.0,0.0,0.0,0.0,0.0,0.0,-2.6751,-2.7419,-2.8323,-2.8963,-2.9139,-2.8574,-2.8122,-2.8122,-2.6389,-2.5059,-2.5059,0.0,0.0,0.0,0.0,0.0,0.0,0.0,0.0,0.0,0.0,0.0,0.0,0.0,0.0,0.0,0.0,0.0,0.0,0.0,0.0,0.0,0.0,0.0,0.0,0.0,0.0,0.0,0.0,0.0,0.0,0.0,0.0,0.0,0.0,0.0,0.0,0.0,0.0,0.0,0.0,0.0,0.0,0.0,0.0,0.0,0.0,0.0,0.0,0.0,0.0,0.0,0.0,0.0,0.0,-2.5611,-2.7268,-2.8373,-2.8888,-2.9503,-2.9779,-2.9754,-2.8699,-2.757,-2.6474,0.0,0.0,0.0,0.0,0.0,0.0,0.0,0.0,0.0,0.0,0.0,0.0,0.0,0.0,0.0,0.0,0.0,0.0,0.0,0.0,0.0,0.0,0.0,0.0,0.0,0.0,-1.7751,-1.8612,-1.924,0.0,0.0,0.0,0.0,0.0,0.0,0.0,0.0,0.0,0.0,-2.5468,-2.6901,-2.7921,-2.8537,-2.9151,-2.9679,-2.8825,-2.8122,-2.8122,-2.6666,-2.5586,0.0,0.0,0.0,0.0,0.0,0.0,0.0,0.0,0.0,0.0,0.0,0.0,0.0,0.0,0.0,0.0,0.0,0.0,0.0,0.0,0.0,0.0,0.0,0.0,0.0,0.0,0.0,0.0,0.0,0.0,0.0,0.0,0.0,0.0,0.0,0.0,0.0,0.0,0.0,0.0,-2.665,-2.5456,0.0,0.0,0.0,0.0,0.0,0.0,0.0,0.0,0.0,0.0,0.0,0.0,-2.5259,-2.6223,-2.7444,-2.8373,-2.8888,-2.9503,-2.9779,-2.9779,-2.8699,-2.7067,-2.4915,0.0,0.0,0.0,0.0,0.0,0.0,0.0,0.0,0.0,0.0,0.0,0.0,0.0,0.0,0.0,0.0,0.0,0.0,0.0,0.0,0.0,0.0,0.0,0.0,0.0,-1.7205,0.0,0.0,0.0,0.0,0.0,0.0,0.0,0.0,0.0,0.0,0.0,-2.3728,-2.4456,-2.6264,-2.767,-2.8072,-2.89,-2.9578,0.0,0.0,0.0,0.0,0.0,0.0,0.0,0.0,0.0,0.0,0.0,0.0,0.0,0.0,-2.1215,-2.0003,-1.9654,-1.9483,-1.9365,0.0,0.0,0.0,0.0,0.0,0.0,0.0,0.0,0.0,0.0,0.0,0.0,0.0,0.0,0.0,0.0,-3.2787,0.0,0.0,0.0,0.0,0.0,0.0,0.0,0.0,-2.7394,-2.7456,-2.7521,-2.6336,-2.5527,0.0,-2.4016,-2.314,0.0,0.0,0.0,0.0,0.0,0.0,0.0,0.0,-2.536,-2.6499,-2.7544,-2.8336,-2.8888,-2.9503,-2.9779,-2.9779,-2.8499,-2.6716,-2.4356,-2.3201,-2.2096,0.0,0.0,0.0,0.0,0.0,0.0,0.0,0.0,0.0,0.0,0.0,0.0,0.0,0.0,0.0,0.0,0.0,0.0,0.0,0.0,0.0,0.0,0.0,-1.7256,0.0,0.0,0.0,0.0,0.0,0.0,0.0,0.0,0.0,-2.1517,-2.293,-2.4185,-2.4878,-2.6702,-2.8049,-2.8097,0.0,0.0,0.0,0.0,0.0,0.0,0.0,-2.6086,-2.5984,-2.5367,-2.4762,-2.4435,-2.3823,-2.3156,-2.2522,0.0,0.0,-2.0392,-1.9896,-1.9669,-1.9535,-1.9278,-1.9054,-1.8951,-1.8857,-1.8763,0.0,0.0,0.0,0.0,0.0,0.0,0.0,0.0,-3.5036,-3.4479,0.0,0.0,0.0,0.0,0.0,0.0,0.0,0.0,0.0,0.0,-2.8,-2.7594,-2.7259,-2.6822,-2.6215,-2.5445,-2.5166,-2.448,-2.3394,-2.2921,0.0,0.0,0.0,0.0,0.0,0.0,-2.541,-2.6549,-2.7595,-2.8398,-2.8913,-2.9503,-2.9754,-2.9679,-2.8147,-2.6515,-2.4883,-2.3722,-2.2619,-2.1546,-2.0413,0.0,0.0,0.0,0.0,0.0,0.0,0.0,0.0,0.0,0.0,0.0,0.0,0.0,0.0,0.0,0.0,0.0,0.0,0.0,0.0,-1.6829,0.0,0.0,0.0,0.0,0.0,0.0,0.0,0.0,0.0,0.0,-2.1804,-2.2979,-2.4169,-2.5177,0.0,0.0,0.0,0.0,-2.9457,-2.9702,-2.9264,-2.885,-2.885,-2.7789,-2.6887,-2.6697,0.0,0.0,-2.4743,-2.419,-2.3559,-2.275,-2.2266,-2.1826,-2.1282,-2.0745,-2.0411,-2.0275,-1.988,-1.9604,-1.955,-1.9234,-1.9036,-4.2884,0.0,0.0,0.0,0.0,-3.7557,-3.7334,-3.6878,-3.7217,-3.6531,-3.5016,-3.4604,0.0,0.0,0.0,0.0,0.0,0.0,-2.8348,-2.8737,-2.8362,-2.8295,-2.8484,-2.7439,-2.6769,-2.6355,-2.5525,-2.5015,-2.4799,-2.4529,-2.398,-2.3148,0.0,0.0,0.0,0.0,-2.6575,-2.762,-2.8323,-2.8976,-2.9553,-2.9704,-2.9402,-2.8624,-2.7745,-2.6515,-2.485,-2.4098,-2.305,-2.1568,-2.0842,0.0,0.0,0.0,0.0,0.0,0.0,0.0,0.0,0.0,0.0,0.0,0.0,0.0,0.0,0.0,0.0,0.0,0.0,0.0,-1.6224,-1.6602,-1.6864,0.0,0.0,0.0,0.0,0.0,0.0,0.0,0.0,0.0,-2.1861,-2.3836,-2.5388,0.0,0.0,-2.8174,-2.8249,-2.8804,-2.9209,-2.9287,0.0,0.0,0.0,-2.7336,-2.6444,-2.6142,-2.5143,-2.4286,-2.3973,-2.3446,-2.2883,-2.2323,-2.2024,-2.172,-2.1275,-2.0762,-2.0371,-2.0168,-1.9698,-1.9342,-1.9287,-1.8975,-1.8664,-4.5647,-4.3495,-4.0906,-3.946,-3.8953,-3.8653,-3.8245,-3.7826,-3.7994,-3.7355,-3.6071,-3.557,-3.4264,-3.2387,-3.1,0.0,0.0,0.0,-2.9022,-2.9239,-2.8793,-2.8733,-2.8885,-2.7886,-2.7268,-2.6903,-2.6189,-2.5723,-2.5543,-2.5442,-2.5013,-2.4307,0.0,0.0,-2.5555,-2.6308,-2.7272,-2.8398,-2.8712,-2.9202,-2.9779,-2.9578,-2.9026,-2.8122,-2.7404,-2.6289,-2.485,-2.4048,-2.3,-2.1543,-2.0993,-2.0189,0.0,0.0,0.0,0.0,0.0,0.0,0.0,0.0,0.0,0.0,0.0,-1.4868,0.0,0.0,0.0,0.0,-1.5282,-1.567,-1.6226,-1.641,0.0,0.0,0.0,0.0,0.0,0.0,0.0,-1.9448,-2.0549,-2.153,-2.2196,-2.4108,-2.5457,-2.5524,-2.6748,-2.7659,-2.7735,0.0,-2.8633,-2.8736,-2.8198,-2.7782,-2.7642,-2.6716,-2.5753,-2.5028,-2.4113,-2.3431,-2.3261,-2.274,-2.2289,-2.2025,-2.1759,-2.1474,-2.1128,-2.0818,-2.0541,-2.0285,-1.9707,-1.9198,-1.9198,-1.8783,-1.8414,-4.8035,-4.6971,-4.3234,-4.1437,-4.0896,-3.9589,-3.8948,-3.8716,-3.7982,-3.751,-3.7178,-3.6409,-3.5046,-3.3129,-3.0796,0.0,0.0,-2.9351,-2.9505,-2.9779,-2.9351,-2.9013,-2.8816,-2.8219,-2.7696,-2.7267,-2.7044,-2.6613,-2.5981,-2.5918,-2.5967,-2.6123,-2.6042,-2.6021,-2.6107,-2.6788,-2.7739,-2.8863,-2.8938,-2.9189,-2.9704,-2.9151,-2.8562,-2.8047,-2.7002,-2.5921,-2.4825,-2.3697,-2.2623,-2.1543,-2.0993,-2.0214,-1.9133,0.0,0.0,0.0,0.0,0.0,0.0,0.0,0.0,0.0,0.0,0.0,0.0,0.0,0.0,0.0,-1.6035,0.0,-1.6165,-1.6329,0.0,0.0,0.0,-1.7922,-1.8364,-1.8815,-1.9329,-2.0009,0.0,0.0,0.0,0.0,-2.4608,-2.4837,-2.5833,-2.6609,-2.6774,-2.7254,-2.7693,-2.7909,-2.7372,-2.6933,-2.68,-2.5876,-2.4751,-2.3764,-2.3038,-2.2665,-2.259,-2.2176,-2.1797,-2.1683,-2.1436,-2.1108,-2.0857,-2.0777,-2.0756,-2.0409,-1.9765,-1.9204,-1.9109,-1.868,-1.8279,-4.9584,-4.7883,-4.5973,-4.4273,-4.2745,-4.2105,-4.1586,-4.1091,-4.0136,-3.9228,-3.8332,-3.7252,-3.5419,-3.3101,-3.2203,-3.1202,-3.0201,-3.0125,-2.9974,-2.9779,-2.9482,-2.9223,-2.9013,-2.8578,-2.8243,-2.7938,-2.7389,-2.7221,-2.7371,-2.7024,-2.6909,-2.7096,-2.7606,-2.7617,-2.7152,-2.8014,-2.86,-2.8888,-2.9377,-2.9453,-2.9126,-2.8574,-2.8021,-2.7494,-2.6389,-2.5485,-2.48,-2.3697,-2.2594,-2.1543,-2.0993,-2.0365,-1.966,-1.8731,0.0,0.0,0.0,0.0,0.0,0.0,0.0,0.0,0.0,-1.5736,-1.5669,0.0,-1.5777,0.0,-1.6168,-1.644,-1.6741,-1.6811,0.0,0.0,-1.7737,-1.8058,-1.8575,-1.8818,-1.9211,-1.9961,-2.0693,-2.1367,-2.189,-2.2672,-2.3244,-2.3468,-2.4937,-2.6,-2.6039,-2.6008,-2.6076,-2.6138,-2.589,-2.5581,-2.5318,-2.4559,-2.3715,-2.3029,-2.2402,-2.2025,-2.2046,-2.1645,-2.1282,-2.1167,-2.1051,-2.0777,-2.0251,-2.0116,-1.9997,-1.9698,-1.9423,-1.9187,-1.8817,-1.837,-1.8076,-5.0505,-4.9085,-4.7516,-4.6044,-4.4678,-4.3273,-4.2395,-4.1886,-4.0778,-3.9862,-3.9143,-3.7391,-3.5648,-3.4028,-3.3223,-3.2222,-3.106,-3.0868,-3.0471,-2.9934,-2.9574,-2.9341,-2.9209,-2.8736,-2.8419,-2.8299,-2.7777,-2.7615,-2.7881,-2.7615,-2.7636,-2.7893,-2.8394,-2.8563,-2.836,-2.886,-2.9163,-2.9302,-2.9628,-2.9503,-2.8913,-2.8398,-2.772,-2.6952,-2.5586,-2.4632,-2.4048,-2.2744,-2.1744,-2.1169,-2.0616,-2.0137,-1.9811,-1.9032,-1.8531,0.0,0.0,0.0,0.0,0.0,0.0,0.0,0.0,0.0,0.0,0.0,-1.6672,0.0,0.0,0.0,-1.7335,-1.7377,-1.7533,-1.7968,-1.8072,-1.8322,-1.8813,-1.9141,-1.9507,-2.0115,-2.0686,-2.1234,-2.1808,-2.2195,-2.2515,-2.2703,-2.3611,-2.4451,-2.4851,-2.4915,-2.4915,-2.4915,-2.4542,-2.4105,-2.3677,-2.311,-2.2624,-2.2239,-2.1818,-2.155,-2.1492,-2.11,-2.0713,-2.0579,-2.0365,-2.0092,-1.9725,-1.9648,-1.9492,-1.9121,-1.9004,-1.8906,-1.8656,-1.8266,-1.8008,-5.1032,-5.0261,-4.8449,-4.722,-4.631,-4.3944,-4.2695,-4.2159,-4.0868,-4.0135,-3.956,-3.7272,-3.5868,-3.5178,-3.4,-3.2906,-3.1874,-3.1423,-3.0829,-3.0088,-2.9651,-2.9457,-2.938,-2.8855,-2.8602,-2.8538,-2.8203,-2.8002,-2.8042,-2.8042,-2.8203,-2.8578,-2.8776,-2.9067,-2.938,-2.9419,-2.956,-2.9779,-2.9779,-2.9503,-2.8888,-2.8398,-2.757,-2.6499,-2.4933,-2.3803,-2.3095,-2.1594,-2.0767,-2.0693,-2.0112,-1.9811,-1.9786,-1.9309,-1.9008,0.0,-1.8481,0.0,0.0,0.0,0.0,0.0,0.0,0.0,0.0,-1.763,-1.7744,-1.7621,-1.7522,-1.7606,-1.7946,-1.7957,-1.8114,-1.8519,-1.8561,-1.8727,-1.9144,-1.9539,-1.992,-2.0321,-2.0736,-2.1208,-2.1853,-2.2017,-2.2054,-2.2268,-2.2322,-2.2601,-2.327,-2.3625,-2.3828,-2.3914,-2.3296,-2.2678,-2.2088,-2.1811,-2.158,-2.1349,-2.1078,-2.0986,-2.0946,-2.0494,-2.0086,-2.0029,-1.9681,-1.9353,-1.9219,-1.9199,-1.9062,-1.8617,-1.852,-1.85,-1.8461,-1.8227,-1.8027,-5.1567,-5.0359,-4.966,-4.8227,-4.6435,-4.5615,-4.4619,-4.3524,-4.2282,-4.0811,-3.9217,-3.77,-3.6452,-3.5399,-3.4639,-3.3368,-3.1874,-3.1578,-3.0945,-3.0101,-3.0011,-2.9754,-2.9419,-2.9263,-2.9145,-2.8973,-2.8736,-2.8736,-2.8855,-2.8673,-2.8736,-2.8973,-2.9184,-2.9302,0.0,0.0,0.0,0.0,-2.9779,-2.9503,-2.8888,-2.8398,-2.757,-2.6524,-2.5285,0.0,-2.312,-2.197,-2.1144,-2.0717,-2.0112,0.0,0.0,0.0,0.0,0.0,0.0,0.0,0.0,0.0,0.0,0.0,-1.9316,-1.9258,-1.8263,-1.8238,-1.8248,-1.8245,-1.8246,-1.8468,-1.891,-1.8796,-1.886,-1.9305,-1.9368,-1.9411,-1.9517,-1.9601,-1.9779,-2.0265,-2.0254,-2.0561,-2.1371,-2.1386,-2.1458,-2.1824,-2.1578,-2.1375,-2.1458,-2.1987,-2.2258,-2.2199,-2.1865,-2.1413,-2.093,-2.0832,-2.069,-2.0293,-2.0046,-1.9956,-1.9939,-1.9713,-1.9468,-1.9468,-1.9372,-1.9141,-1.8828,-1.8715,-1.8633,-1.8169,-1.8144,-1.8125,-1.8125,-1.8066,-1.8008,-5.2037,0.0,-5.0154,-4.8786,0.0,0.0,-4.518,-4.3927,-4.2866,-4.124,-3.9284,-3.7997,-3.7003,-3.622,-3.5447,-3.4244,-3.2785,-3.2293,-3.1474,-3.0394,-3.0203,-2.9947,-2.9754,-2.9496,-2.9341,-2.9223,-2.9052,-2.9013,-2.9091,-2.9013,-2.9052,-2.9223,-2.9341,-2.9457,-2.9599,-2.974,-2.9779,-2.9779,-2.9779,-2.9528,-2.8913,-2.8398,-2.757,-2.6499,0.0,0.0,0.0,0.0,0.0,0.0,0.0,0.0,0.0,0.0,0.0,-1.9384,-1.9158,-1.8982,-1.9007,-1.9459,-1.9733,-1.9655,-2.0291,-2.0305,-1.9567,-1.9275,-1.9268,-1.949,-1.9411,-1.9492,-1.983,-1.9736,-1.9684,-1.9737,-1.9726,-1.9714,-1.9637,-1.9828,-2.0041,-2.0262,-2.0392,-2.0695,-2.1117,-2.1036,-2.099,-2.1219,-2.0964,-2.071,-2.0606,-2.0806,-2.0987,-2.0876,-2.0707,-2.0461,-2.0149,-2.0109,-2.0012,-1.9644,-1.9532,-1.9459,-1.9423,-1.9174,-1.8965,-1.8945,-1.8809,-1.8574,-1.8398,-1.8286,-1.8262,-1.8066,-1.8008,-1.8008,-1.8008,-1.8008,-1.8008,-5.244,-5.1729,-5.0519,-4.9283,-4.801,-4.6708,-4.5311,-4.3927,0.0,0.0,0.0,-3.8284,-3.7443,-3.7017,-3.623,-3.5152,-3.3877,-3.3158,-3.2162,-3.0929,-3.0483,-3.0216,-3.0101,-2.9767,-2.9574,-2.9496,-2.9365,-2.9248,-2.9209,-2.9209,-2.9326,-2.9482,-2.9457,-2.956,-2.9779,-2.9779,-2.9779,-2.9779,-2.9779,-2.9578,-2.9038,-2.8448,-2.762,-2.6675,-2.5116,-2.3929,-2.312,-2.2272,-2.1493,-2.0867,-2.0842,-2.0616,-2.0137,-2.0087,-2.0112,-2.0087,-2.0112,-2.0112,-2.0112,-2.0566,-2.0838,-2.0829,-2.1113,-2.1109,-2.073,-2.0369,-2.037,-2.0785,-2.0573,-2.05,-2.0719,-2.0593,-2.0367,-2.0085,-2.0042,-1.9976,-1.9834,-2.0102,-2.0371,-2.0402,-2.0625,-2.0877,-2.0941,-2.0765,-2.0667,-2.0673,-2.0532,-2.0194,-2.0017,-2.0032,-2.0102,-1.9901,-1.9869,-1.9733,-1.9505,-1.9413,-1.9321,-1.9076,-1.904,-1.9062,-1.9004,-1.8734,-1.852,-1.8481,-1.8223,-1.8066,-1.8027,-1.8047,-1.8008,-1.8008,-1.8008,-1.8008,-1.8008,-1.8008,-1.8008,-5.3085,-5.1911,-5.1192,-5.0177,-4.8936,-4.7659,-4.5928,-4.3858,-4.2111,-4.1033,-4.0498,-3.8839,-3.7787,-3.7211,-3.6744,-3.5884,-3.4679,-3.3892,-3.2812,0.0,-3.1133,-3.0672,-3.0368,-3.0292,-3.0177,-3.0024,-2.9947,-2.9856,-2.974,-2.9727,-2.9702,-2.9765,-2.974,-2.974,-2.9779,-2.9779,-2.9779,-2.9779,-2.9779,-2.9754,-2.9654,-2.8649,-2.7795,-2.7143,-2.5988,-2.4657,-2.317,-2.2945,-2.2393,-2.1443,-2.1368,-2.1343,-2.1267,-2.1217,-2.1242,-2.1267,-2.1267,-2.1267,-2.1242,-2.1317,-2.1568,-2.1992,-2.1998,-2.1704,-2.1088,-2.1136,-2.1218,-2.1308,-2.1244,-2.1244,-2.125,-2.1019,-2.0818,-2.0754,-2.0658,-2.0561,-2.0551,-2.0585,-2.063,-2.0652,-2.0369,-2.0445,-2.0759,-2.0574,-2.0448,-2.0562,-2.0233,-1.9748,-1.915,-1.9289,-1.9564,-1.9423,-1.9386,-1.9193,-1.8864,-1.873,-1.8613,-1.8242,-1.8242,-1.8281,-1.8301,-1.8223,-1.811,-1.8105,-1.8066,-1.8008,-1.8008,-1.8008,-1.8008,-1.8008,-1.8008,-1.8008,-1.8008,-1.8008,-1.8008,-5.3221,-5.198,-5.1503,-5.0489,-4.9031,-4.706,-4.534,-4.3927,-4.2458,-4.1483,-4.0837,-3.9475,-3.8484,-3.7749,-3.725,-3.6437,-3.5361,-3.4826,-3.3842,-3.2437,-3.1993,-3.1412,-3.0799,-3.0906,-3.0881,-3.0739,-3.102,-3.1134,-3.1055,-3.0936,-3.0857,-3.0831,-3.0461,-3.0105,-2.9804,-2.9779,-2.9779,-2.9779,-2.9779,-2.9779,-2.9779,-2.8674,-2.7996,-2.772,-2.6364,-2.5259,-2.4506,-2.3904,-2.3195,-2.2393,-2.2096,-2.1794,-2.1518,-2.1493,-2.1493,-2.1493,-2.1493,-2.1493,-2.1493,-2.1769,-2.2142,-2.2694,-2.2685,-2.2526,-2.2217,-2.2119,-2.211,-2.208,-2.1961,-2.1831,-2.1831,-2.1517,-2.1296,-2.1178,-2.1115,-2.1074,-2.0978,-2.0978,-2.0978,-2.0946,-2.0732,-2.0606,-2.0796,-2.0478,-2.0211,-2.0224,-1.9669,-1.9022,-1.8556,-1.8631,-1.8699,-1.8629,-1.8594,-1.8516,-1.8305,-1.8266,-1.8203,-1.8027,-1.8008,-1.8008,-1.8008,-1.8008,-1.8008,-1.8008,-1.8008,-1.8008,-1.8008,-1.8008,-1.8008,-1.8008,-1.8008,-1.8008,-1.8008,-1.8008,-1.7974,-5.3523,-5.2356,-5.1749,-5.0462,-4.8694,-4.6586,-4.5061,-4.3957,-4.3094,-4.2094,-4.1118,-4.0064,-3.9115,-3.8194,-3.7711,-3.6995,-3.6189,-3.5763,-3.4826,-3.3474,-3.3095,-3.2433,-3.171,-3.1887,-3.1863,-3.1681,-3.2028,-3.2235,-3.2154,-3.1979,-3.1833,-3.1726,-3.1105,-3.0507,-3.0005,-2.998,-2.993,-2.9804,-2.9779,-2.9779,-2.9754,-2.88,-2.8222,-2.8021,-2.6741,-2.5896,-2.5586,-2.4782,-2.4104,-2.3496,-2.3,-2.2498,-2.2096,-2.192,-2.187,-2.187,-2.187,-2.1845,-2.187,-2.2246,-2.2644,-2.3045,-2.3095,-2.3095,-2.3065,-2.2909,-2.2781,-2.2696,-2.2451,-2.2321,-2.229,-2.2042,-2.1769,-2.1651,-2.1588,-2.1549,-2.1391,-2.136,-2.1328,-2.1296,-2.1146,-2.0987,-2.0892,-2.0539,-2.014,-1.9823,-1.9152,-1.865,-1.8482,-1.8245,-1.8076,-1.8008,-1.8008,-1.8047,-1.8008,-1.8027,-1.8027,-1.8008,-1.8008,-1.8008,-1.8008,-1.8008,-1.8008,-1.8008,-1.8008,-1.8008,-1.8008,-1.8008,-1.8008,-1.8008,-1.8008,-1.8008,-1.8008,-1.8008,-1.7906,-5.44,-5.3413,-5.2093,-5.0054,-4.7781,-4.7092,-4.5733,-4.4087,-4.3663,-4.2745,-4.1376,-4.0442,-3.9378,-3.8298,-3.8165,-3.7729,-3.7109,-3.6409,-3.5767,-3.519,-3.4492,-3.3914,-3.3423,-3.3492,-3.3286,-3.2961,-3.2804,-3.2697,-3.2538,-3.2246,-3.2019,-3.1777,-3.1483,-3.106,-3.0608,-3.0532,-3.0306,-2.9804,-2.9779,-2.9779,-2.9754,-2.9176,-2.8599,-2.8122,-2.7469,-2.664,-2.5711,-2.5511,-2.5209,-2.465,-2.413,-2.3803,-2.3703,-2.3251,-2.2945,-2.292,-2.292,-2.2945,-2.2945,-2.302,-2.302,-2.3095,-2.3095,-2.3095,-2.3095,-2.3065,-2.303,-2.2878,-2.2726,-2.2659,-2.2629,-2.2451,-2.2297,-2.2266,-2.2173,-2.2049,-2.1862,-2.1831,-2.1824,-2.1667,-2.1517,-2.1305,-2.1201,-2.0796,-2.0313,-1.9758,-1.9264,-1.8852,-1.8549,-1.8347,-1.8178,-1.8042,-1.8008,-1.8008,-1.8008,-1.8008,-1.8008,-1.8008,-1.8008,-1.8008,-1.8008,-1.8008,-1.8008,-1.8008,-1.8008,-1.8008,-1.8008,-1.8008,-1.8008,-1.8008,-1.8008,-1.8008,-1.8008,-1.8008,-1.7872,-5.4537,-5.3551,-5.224,-5.0171,-4.7864,-4.7232,-4.5834,-4.4018,-4.3793,-4.3055,-4.1961,-4.1189,-4.007,-3.8752,-3.8612,-3.8315,-3.7834,-3.7491,-3.6845,-3.6079,-3.5685,-3.5075,-3.4344,-3.4635,-3.4539,-3.4203,-3.426,-3.4259,-3.4098,-3.3692,-3.3086,-3.2352,-3.2136,-3.1776,-3.1085,-3.0758,-3.0482,-3.0281,-2.9955,-2.9779,-2.9729,-2.9227,-2.8787,-2.8487,-2.7745,-2.7092,-2.659,-2.5988,-2.5511,-2.5259,-2.4757,-2.4299,-2.4004,-2.3778,-2.3446,-2.3145,-2.3095,-2.3095,-2.3095,-2.3095,-2.3095,-2.3095,-2.3095,-2.3095,-2.3095,-2.3095,-2.309,-2.3005,-2.2909,-2.2842,-2.2818,-2.2665,-2.2574,-2.2598,-2.2537,-2.2475,-2.2414,-2.2359,-2.2321,-2.2142,-2.1956,-2.18,-2.1549,-2.1019,-2.041,-1.9857,-1.9396,-1.8965,-1.8583,-1.8381,-1.8212,-1.8042,-1.8008,-1.8008,-1.8008,-1.8008,-1.8008,-1.8008,-1.8008,-1.8008,-1.8008,-1.8008,-1.8008,-1.8008,-1.8008,-1.8008,-1.8008,-1.8008,-1.8008,-1.8008,-1.8008,-1.8008,-1.8008,-1.8008,-1.7872,-5.4742,-5.3889,-5.2339,-5.0214,-4.7953,-4.7348,-4.5912,-4.4165,-4.3871,-4.3274,-4.2381,-4.1901,-4.083,-3.9519,-3.9069,-3.8686,-3.8389,-3.8315,-3.7783,-3.6968,-3.6835,-3.6269,-3.5478,-3.5774,-3.5764,-3.5495,-3.5546,-3.5521,-3.5345,-3.4729,-3.3939,-3.3162,-3.2928,-3.2456,-3.176,-3.1125,-3.0758,-3.0583,-3.008,-2.9779,-2.9729,-2.9377,-2.9063,-2.8838,-2.8147,-2.7595,-2.7304,-2.6524,-2.6021,-2.5837,-2.531,-2.4782,-2.4255,-2.4079,-2.3722,-2.3195,-2.3095,-2.3095,-2.3095,-2.3095,-2.3095,-2.3095,-2.3095,-2.3095,-2.3095,-2.3095,-2.3095,-2.309,-2.303,-2.2969,-2.2939,-2.2848,-2.2818,-2.2818,-2.2818,-2.2787,-2.2726,-2.2726,-2.2665,-2.2482,-2.2321,-2.2111,-2.1769,-2.1178,-2.0603,-2.002,-1.9594,-1.9098,-1.8684,-1.8482,-1.8279,-1.8042,-1.8008,-1.8008,-1.8008,-1.8008,-1.8008,-1.8008,-1.8008,-1.8008,-1.8008,-1.8008,-1.8008,-1.8008,-1.8008,-1.8008,-1.8008,-1.8008,-1.8008,-1.8008,-1.8008,-1.8008,-1.8008,-1.8008,-1.7837,-5.5259,-5.4598,-5.2212,-5.0027,-4.8179,-4.7533,-4.6137,-4.4258,-4.4065,-4.3361,-4.2539,-4.2351,-4.1594,-4.033,-3.9579,-3.901,-3.876,-3.8575,-3.8352,-3.8011,-3.789,-3.7615,-3.7232,-3.7222,-3.7,-3.6565,-3.6346,-3.5964,-3.5426,-3.4771,-3.4397,-3.4236,-3.3691,-3.3098,-3.2482,-3.176,-3.111,-3.0658,-3.0131,-2.9804,-2.9779,-2.9754,-2.9478,-2.8988,-2.8838,-2.8323,-2.7469,-2.7243,-2.6977,-2.6474,-2.5887,-2.5335,-2.4775,-2.428,-2.3728,-2.3195,-2.3095,-2.3095,-2.3095,-2.3095,-2.3095,-2.3095,-2.3095,-2.3095,-2.3095,-2.3095,-2.3095,-2.3095,-2.3065,-2.3065,-2.3065,-2.3035,-2.3035,-2.306,-2.3065,-2.303,-2.2909,-2.2878,-2.2842,-2.269,-2.2482,-2.2173,-2.1588,-2.1273,-2.0828,-2.0313,-1.9955,-1.9583,-1.8918,-1.8617,-1.8347,-1.811,-1.8008,-1.8008,-1.8008,-1.8008,-1.8008,-1.8008,-1.8008,-1.8008,-1.8008,-1.8008,-1.8008,-1.8008,-1.8008,-1.8008,-1.8008,-1.8008,-1.8008,-1.8008,-1.8008,-1.8008,-1.8008,-1.8008,-1.7872,-5.4546,-5.3213,-5.1884,-5.0214,-4.8366,-4.7732,-4.6291,-4.4366,-4.4104,-4.3603,-4.298,-4.259,-4.2141,-4.1624,-4.089,-4.0003,-3.901,-3.8907,-3.876,-3.8575,-3.8538,-3.8352,-3.8089,-3.7938,-3.7749,-3.7481,-3.7106,-3.6598,-3.6004,-3.5467,-3.5018,-3.4605,-3.423,-3.3749,-3.3115,-3.2507,-3.1827,-3.111,-3.0583,-3.0156,-2.9829,-2.9779,-2.9679,-2.9478,-2.9088,-2.8712,-2.8348,-2.767,-2.7228,-2.7027,-2.6499,-2.5887,-2.531,-2.4481,-2.3753,-2.3195,-2.3095,-2.3095,-2.3095,-2.3095,-2.3095,-2.3095,-2.3095,-2.3095,-2.3095,-2.3095,-2.3095,-2.3095,-2.3095,-2.3095,-2.3095,-2.3095,-2.3095,-2.3095,-2.3095,-2.309,-2.3035,-2.3005,-2.3,-2.2818,-2.2574,-2.2266,-2.1925,-2.1612,-2.1115,-2.0539,-2.0118,-1.9681,-1.9098,-1.8717,-1.8414,-1.8212,-1.8076,-1.8008,-1.8008,-1.8008,-1.8008,-1.8008,-1.8008,-1.8008,-1.8008,-1.8008,-1.8008,-1.8008,-1.8008,-1.8008,-1.8008,-1.8008,-1.8008,-1.8008,-1.8008,-1.8008,-1.8008,-1.8008,-1.7837,-5.3973,-5.2442,-5.1758,-5.0394,-4.862,-4.7884,-4.6375,-4.4442,-4.4104,-4.3754,-4.3279,-4.2851,-4.262,-4.2351,-4.1931,-4.1077,-3.9884,-3.9645,-3.9297,-3.8907,-3.8907,-3.8797,-3.8612,-3.8464,-3.8315,-3.8052,-3.7596,-3.7095,-3.652,-3.6031,-3.5507,-3.5059,-3.4647,-3.4189,-3.3691,-3.302,-3.2253,-3.1533,-3.0924,-3.0357,-2.9854,-2.9779,-2.9779,-2.9729,-2.9402,-2.9063,-2.8888,-2.8047,-2.7444,-2.7278,-2.6801,-2.6147,-2.536,-2.4481,-2.3728,-2.3195,-2.3095,-2.3095,-2.3095,-2.3095,-2.3095,-2.3095,-2.3095,-2.3095,-2.3095,-2.3095,-2.3095,-2.3095,-2.3095,-2.3095,-2.3095,-2.3095,-2.3095,-2.3095,-2.3095,-2.3095,-2.3095,-2.3095,-2.3005,-2.2909,-2.2665,-2.242,-2.2197,-2.1769,-2.1296,-2.0764,-2.028,-1.9758,-1.9264,-1.8785,-1.8448,-1.8313,-1.811,-1.8042,-1.8008,-1.8008,-1.8008,-1.8008,-1.8008,-1.8008,-1.8008,-1.8008,-1.8008,-1.8008,-1.8008,-1.8008,-1.8008,-1.8008,-1.8008,-1.8008,-1.8008,-1.8008,-1.8008,-1.8008,-1.7803,-5.3469,-5.2553,-5.1798,-5.0436,-4.8804,-4.7864,-4.6459,-4.4695,-4.4151,-4.3754,-4.3329,-4.323,-4.294,-4.253,-4.241,-4.2021,-4.1294,-4.0719,-4.0077,-3.9327,-3.9268,-3.9194,-3.9011,-3.9003,-3.8892,-3.8668,-3.7978,-3.749,-3.7141,-3.654,-3.6033,-3.5588,-3.4853,-3.4439,-3.4356,-3.3255,-3.2361,-3.1721,-3.1029,-3.0407,-2.9854,-2.9779,-2.9779,-2.9779,-2.9729,-2.9503,-2.8938,-2.8373,-2.7821,-2.7379,-2.6801,-2.5996,-2.5059,-2.4381,-2.3778,-2.3296,-2.312,-2.3095,-2.3095,-2.3095,-2.3095,-2.3095,-2.3095,-2.3095,-2.3095,-2.3095,-2.3095,-2.3095,-2.3095,-2.3095,-2.3095,-2.3095,-2.3095,-2.3095,-2.3095,-2.3095,-2.3095,-2.3095,-2.3035,-2.2939,-2.2757,-2.2567,-2.2259,-2.1917,-2.1486,-2.0978,-2.0442,-1.9889,-1.9384,-1.8852,-1.8482,-1.8313,-1.8144,-1.8008,-1.8008,-1.8008,-1.8008,-1.8008,-1.8008,-1.8008,-1.8008,-1.8008,-1.8008,-1.8008,-1.8008,-1.8008,-1.8008,-1.8008,-1.8008,-1.8008,-1.8008,-1.8008,-1.8008,-1.7974,-1.7803,-5.3538,-5.2662,-5.1457,-5.0196,-4.8889,-4.7638,-4.6097,-4.4603,-4.4181,-4.3723,-4.3369,-4.329,-4.317,-4.306,-4.303,-4.2671,-4.2111,-4.1803,-4.1414,-4.0771,-4.0681,-4.0584,-4.0539,-4.0456,-4.0296,-4.0038,-3.9615,-3.9073,-3.8437,-3.7743,-3.6992,-3.6126,-3.5426,-3.4853,-3.4397,-3.3688,-3.2909,-3.1853,-3.1357,-3.0708,-2.988,-2.9779,-2.9779,-2.9779,-2.9779,-2.9679,-2.9478,-2.8624,-2.8047,-2.7821,-2.6977,-2.6147,-2.541,-2.4858,-2.4274,-2.3747,-2.3321,-2.3095,-2.3095,-2.312,-2.312,-2.3095,-2.3095,-2.3095,-2.3095,-2.3095,-2.3095,-2.3095,-2.3095,-2.3095,-2.3095,-2.3095,-2.3095,-2.3095,-2.3095,-2.3095,-2.3095,-2.3095,-2.3065,-2.3035,-2.2909,-2.2757,-2.2512,-2.2166,-2.1643,-2.1138,-2.0539,-1.9955,-1.9528,-1.8918,-1.8516,-1.8414,-1.8212,-1.8008,-1.8008,-1.8008,-1.8008,-1.8008,-1.8008,-1.8008,-1.8008,-1.8008,-1.8008,-1.8008,-1.8008,-1.8008,-1.8008,-1.8008,-1.8008,-1.8008,-1.8008,-1.8008,-1.8008,-1.794,-1.7803,-5.327,-5.2662,-5.1298,-5.0004,-4.8857,-4.7421,-4.5947,-4.4671,-4.4181,-4.3754,-4.3369,-4.329,-4.329,-4.329,-4.329,-4.312,-4.2761,-4.2731,-4.2491,-4.2043,-4.1504,-4.1422,-4.1384,-4.127,-4.1109,-4.0888,-4.0656,-4.0071,-3.9189,-3.851,-3.7636,-3.6552,-3.5831,-3.5223,-3.4647,-3.4079,-3.3203,-3.2051,-3.1564,-3.0884,-3.003,-2.9779,-2.9779,-2.9779,-2.9779,-2.9779,-2.9729,-2.89,-2.8323,-2.7971,-2.7077,-2.6248,-2.5636,-2.5259,-2.4858,-2.4381,-2.3948,-2.3672,-2.3471,-2.3471,-2.3296,-2.317,-2.3095,-2.3095,-2.3095,-2.3095,-2.3095,-2.3095,-2.3095,-2.3095,-2.3095,-2.3095,-2.3095,-2.3095,-2.3095,-2.3095,-2.3095,-2.3095,-2.3095,-2.3065,-2.2969,-2.2848,-2.2635,-2.2235,-2.1737,-2.1233,-2.0635,-2.0053,-1.9615,-1.9052,-1.8751,-1.8448,-1.8178,-1.8076,-1.8008,-1.8008,-1.8008,-1.8008,-1.8008,-1.8008,-1.8008,-1.8008,-1.8008,-1.8008,-1.8008,-1.8008,-1.8008,-1.8008,-1.8008,-1.8008,-1.8008,-1.8008,-1.8008,-1.8008,-1.7872,-5.2765,-5.2354,-5.1161,-4.9834,-4.8578,-4.722,-4.5816,-4.4633,-4.4181,-4.3723,-4.3369,-4.329,-4.329,-4.329,-4.329,-4.326,-4.329,-4.32,-4.317,-4.2841,-4.2192,-4.1683,-4.1713,-4.1713,-4.1628,-4.1415,-4.1308,-4.0625,-3.9663,-3.9053,-3.8047,-3.6939,-3.6166,-3.5507,-3.5018,-3.4465,-3.3436,-3.2188,-3.163,-3.0859,-2.9854,-2.9779,-2.9779,-2.9779,-2.9779,-2.9779,-2.9704,-2.9176,-2.8599,-2.8021,-2.7027,-2.6273,-2.5787,-2.5636,-2.531,-2.485,-2.48,-2.4449,-2.4155,-2.4029,-2.3879,-2.3421,-2.3296,-2.3145,-2.3221,-2.317,-2.3095,-2.3095,-2.3095,-2.3095,-2.3095,-2.3195,-2.3221,-2.3221,-2.3296,-2.3271,-2.3246,-2.3296,-2.3396,-2.3346,-2.3099,-2.2947,-2.2868,-2.2356,-2.184,-2.1296,-2.0754,-2.0205,-1.9714,-1.9198,-1.8785,-1.8482,-1.8212,-1.8076,-1.8008,-1.8008,-1.8008,-1.8008,-1.8008,-1.8008,-1.8008,-1.8008,-1.8008,-1.8008,-1.8008,-1.8008,-1.8008,-1.8008,-1.8008,-1.8008,-1.8008,-1.8008,-1.8008,-1.8008,-1.7906,-5.2429,-5.1514,-5.026,-4.8972,-4.7654,-4.6402,-4.5323,-4.4412,-4.4143,-4.3754,-4.3369,-4.329,-4.329,-4.329,-4.329,-4.329,-4.329,-4.329,-4.329,-4.326,-4.2991,-4.2781,-4.2781,-4.2821,-4.2751,-4.2643,-4.2436,-4.1991,-4.1057,-4.011,-3.9068,-3.7839,-3.6662,-3.5871,-3.5304,-3.4481,-3.3426,-3.2228,-3.163,-3.0884,-3.0005,-2.9804,-2.9779,-2.9779,-2.9779,-2.9779,-2.9729,-2.9227,-2.8448,-2.7544,-2.6901,-2.6449,-2.6223,-2.5837,-2.5561,-2.541,-2.5059,-2.4775,-2.4657,-2.4607,-2.4506,-2.4349,-2.3923,-2.3778,-2.3722,-2.3346,-2.3145,-2.3095,-2.3095,-2.3145,-2.3195,-2.3496,-2.3904,-2.4224,-2.3998,-2.3929,-2.4173,-2.4349,-2.4349,-2.4349,-2.4267,-2.3909,-2.336,-2.2868,-2.2282,-2.1493,-2.085,-2.027,-1.9813,-1.9264,-1.8818,-1.8516,-1.8245,-1.811,-1.8008,-1.8008,-1.8008,-1.8008,-1.8008,-1.8008,-1.8008,-1.8008,-1.8008,-1.8008,-1.8008,-1.8008,-1.8008,-1.8008,-1.8008,-1.8008,-1.8008,-1.8008,-1.8008,-1.8008,-1.7837,-5.2016,-5.0935,-4.9785,-4.8461,-4.7075,-4.5971,-4.5061,-4.4374,-4.4104,-4.3754,-4.3369,-4.329,-4.329,-4.329,-4.329,-4.329,-4.329,-4.329,-4.329,-4.329,-4.326,-4.326,-4.326,-4.329,-4.329,-4.329,-4.317,-4.2555,-4.1646,-4.0754,-3.9632,-3.8263,-3.7091,-3.6111,-3.5386,-3.462,-3.3649,-3.2562,-3.1782,-3.0959,-3.0206,-2.9905,-2.9779,-2.9779,-2.9779,-2.9779,-2.9704,-2.9189,-2.8487,-2.772,-2.7153,-2.6751,-2.6474,-2.6197,-2.5996,-2.5937,-2.5661,-2.5435,-2.5184,-2.5134,-2.5001,-2.48,-2.4449,-2.4381,-2.4305,-2.3973,-2.3822,-2.3847,-2.3822,-2.3822,-2.3873,-2.4123,-2.4582,-2.4958,-2.4858,-2.4707,-2.48,-2.475,-2.4808,-2.48,-2.4775,-2.4503,-2.3638,-2.3254,-2.2552,-2.1658,-2.0987,-2.0464,-1.9944,-1.9384,-1.8885,-1.8549,-1.8313,-1.8178,-1.8042,-1.8008,-1.8008,-1.8008,-1.8008,-1.8008,-1.8008,-1.8008,-1.8008,-1.8008,-1.8008,-1.8008,-1.8008,-1.8008,-1.8008,-1.8008,-1.8008,-1.8008,-1.8008,-1.8008,-1.7837,-5.1529,-5.0448,-4.9368,-4.8043,-4.6613,-4.5756,-4.4911,-4.4305,-4.4026,-4.3714,-4.3369,-4.329,-4.329,-4.329,-4.329,-4.329,-4.329,-4.329,-4.329,-4.329,-4.329,-4.329,-4.329,-4.329,-4.329,-4.329,-4.329,-4.2664,-4.1755,-4.0911,-3.9789,-3.8449,-3.7248,-3.6298,-3.5507,-3.4771,-3.3918,-3.287,-3.194,-3.115,-3.0532,-3.008,-2.9804,-2.9779,-2.9779,-2.9779,-2.9679,-2.9327,-2.8762,-2.8197,-2.767,-2.7178,-2.67,-2.66,-2.6499,-2.6449,-2.6348,-2.6147,-2.582,-2.5686,-2.5511,-2.5184,-2.5008,-2.4876,-2.4858,-2.47,-2.46,-2.4575,-2.4775,-2.4675,-2.4808,-2.485,-2.5159,-2.5536,-2.5661,-2.546,-2.5134,-2.4983,-2.5008,-2.4983,-2.5034,-2.4571,-2.3942,-2.3359,-2.2871,-2.1963,-2.1243,-2.0571,-2.0053,-1.9495,-1.8998,-1.8549,-1.8347,-1.8212,-1.811,-1.8008,-1.8008,-1.8008,-1.8008,-1.8008,-1.8008,-1.8008,-1.8008,-1.8008,-1.8008,-1.8008,-1.8008,-1.8008,-1.8008,-1.8008,-1.8008,-1.8008,-1.8008,-1.8008,-1.7906,-5.0555,-4.9336,-4.8083,-4.6839,-4.5756,-4.5086,-4.4526,-4.4065,-4.3871,-4.3596,-4.3329,-4.329,-4.329,-4.329,-4.329,-4.329,-4.329,-4.329,-4.329,-4.329,-4.329,-4.329,-4.329,-4.329,-4.329,-4.329,-4.329,-4.2694,-4.1755,-4.095,-3.9994,-3.8578,-3.7462,-3.6508,-3.5629,-3.4909,-3.4069,-3.2962,-3.2097,-3.1387,-3.0658,-3.0156,-2.9829,-2.9804,-2.9779,-2.9779,-2.9779,-2.9679,-2.9327,-2.8737,-2.8247,-2.7745,-2.7278,-2.7102,-2.6927,-2.6625,-2.6499,-2.6424,-2.6323,-2.6248,-2.6248,-2.6047,-2.5636,-2.5435,-2.5385,-2.5084,-2.4908,-2.48,-2.4833,-2.5084,-2.5385,-2.5435,-2.5686,-2.6097,-2.6248,-2.6223,-2.6147,-2.6097,-2.6013,-2.6047,-2.6013,-2.5786,-2.4846,-2.4165,-2.3441,-2.2412,-2.1555,-2.0767,-2.015,-1.9627,-1.9098,-1.8617,-1.8414,-1.8279,-1.811,-1.8008,-1.8008,-1.8008,-1.8008,-1.8008,-1.8008,-1.8008,-1.8008,-1.8008,-1.8008,-1.8008,-1.8008,-1.8008,-1.8008,-1.8008,-1.8008,-1.8008,-1.8008,-1.8008,-1.7974,-4.9628,-4.8115,-4.7298,-4.6244,-4.5123,-4.4723,-4.4335,-4.391,-4.3784,-4.3557,-4.3329,-4.329,-4.329,-4.329,-4.329,-4.329,-4.329,-4.329,-4.329,-4.329,-4.329,-4.329,-4.329,-4.329,-4.329,-4.329,-4.329,-4.2694,-4.1794,-4.1028,-4.0032,-3.8617,-3.7522,-3.6575,-3.571,-3.5059,-3.4267,-3.3348,-3.2561,-3.1782,-3.1025,-3.0457,-3.0005,-2.9854,-2.9779,-2.9779,-2.9779,-2.9779,-2.9628,-2.9327,-2.9026,-2.8499,-2.7745,-2.7419,-2.7153,-2.6927,-2.66,-2.6499,-2.6474,-2.6499,-2.6474,-2.6499,-2.6197,-2.6097,-2.5988,-2.5711,-2.5611,-2.5586,-2.5636,-2.5737,-2.5996,-2.6021,-2.6248,-2.6373,-2.6499,-2.6499,-2.6499,-2.6499,-2.6499,-2.6499,-2.6424,-2.5943,-2.5308,-2.4746,-2.3845,-2.2746,-2.1985,-2.1167,-2.0215,-1.9693,-1.9164,-1.8717,-1.8516,-1.8313,-1.811,-1.8008,-1.8008,-1.8008,-1.8008,-1.8008,-1.8008,-1.8008,-1.8008,-1.8008,-1.8008,-1.8008,-1.8008,-1.8008,-1.8008,-1.8008,-1.8008,-1.8008,-1.8008,-1.8008,-1.7974,-4.8629,-4.7029,-4.6639,-4.5741,-4.4709,-4.4496,-4.4181,-4.3784,-4.3636,-4.3478,-4.3329,-4.329,-4.329,-4.329,-4.329,-4.329,-4.329,-4.329,-4.329,-4.329,-4.329,-4.329,-4.329,-4.329,-4.329,-4.329,-4.315,-4.2525,-4.1627,-4.088,-3.9731,-3.8513,-3.7522,-3.6575,-3.575,-3.51,-3.4387,-3.3656,-3.2935,-3.2279,-3.1502,-3.0909,-3.0306,-2.988,-2.9779,-2.9779,-2.9779,-2.9779,-2.9754,-2.9779,-2.9779,-2.9277,-2.8524,-2.7846,-2.7404,-2.7318,-2.6876,-2.665,-2.6524,-2.6499,-2.6499,-2.6499,-2.6474,-2.6474,-2.6424,-2.6373,-2.6323,-2.6348,-2.6348,-2.6348,-2.6499,-2.6424,-2.6424,-2.6499,-2.6499,-2.6499,-2.6499,-2.6499,-2.6499,-2.6499,-2.6474,-2.6127,-2.5623,-2.5074,-2.4087,-2.3119,-2.2385,-2.157,-2.061,-1.9758,-1.9252,-1.8818,-1.8583,-1.8313,-1.8076,-1.8027,-1.8027,-1.8066,-1.8047,-1.8086,-1.8066,-1.8008,-1.8008,-1.8008,-1.8008,-1.8008,-1.8008,-1.8008,-1.8008,-1.8008,-1.8008,-1.8008,-1.8008,-1.8008,-1.7974,-4.7293,-4.674,-4.5503,-4.4778,-4.4564,-4.4065,-4.3793,-4.3675,-4.3478,-4.3359,-4.329,-4.329,-4.329,-4.329,-4.329,-4.329,-4.329,-4.329,-4.329,-4.329,-4.329,-4.329,-4.329,-4.329,-4.329,-4.314,-4.2821,-4.1998,-4.1095,-4.0233,-3.9323,-3.7987,-3.7296,-3.6547,-3.5831,-3.5223,-3.4564,-3.3801,-3.3155,-3.2631,-3.1946,-3.111,-3.0407,-2.9905,-2.9829,-2.9779,-2.9779,-2.9779,-2.9779,-2.9779,-2.9779,-2.9679,-2.9352,-2.8875,-2.8222,-2.757,-2.7193,-2.6927,-2.665,-2.6499,-2.6499,-2.6499,-2.6499,-2.6499,-2.6499,-2.6499,-2.6499,-2.6499,-2.6499,-2.6499,-2.6499,-2.6499,-2.6499,-2.6499,-2.6499,-2.6499,-2.6499,-2.6499,-2.6499,-2.6499,-2.644,-2.6371,-2.5915,-2.5428,-2.4638,-2.3718,-2.2905,-2.2001,-2.0964,-2.0127,-1.9426,-1.9006,-1.8617,-1.8347,-1.8076,-1.8047,-1.8066,-1.8144,-1.8164,-1.8242,-1.8203,-1.8047,-1.8008,-1.8125,-1.8086,-1.8008,-1.8008,-1.8008,-1.8008,-1.8008,-1.8008,-1.8008,-1.8008,-1.8008,-1.8008,-4.6328,-4.5603,-4.4885,-4.4381,-4.4104,-4.3832,-4.3596,-4.3478,-4.3359,-4.329,-4.329,-4.329,-4.329,-4.329,-4.329,-4.329,-4.329,-4.329,-4.329,-4.329,-4.329,-4.329,-4.329,-4.329,-4.309,-4.2761,-4.2162,-4.1522,-4.079,-4.0123,-3.8993,-3.7844,-3.7211,-3.6547,-3.579,-3.5263,-3.4605,-3.3833,-3.3376,-3.2928,-3.2206,-3.1185,-3.0507,-3.0256,-2.993,-2.9804,-2.9779,-2.9779,-2.9779,-2.9779,-2.9779,-2.9779,-2.9704,-2.9503,-2.9001,-2.8222,-2.762,-2.7193,-2.6876,-2.67,-2.6499,-2.6499,-2.6499,-2.6499,-2.6499,-2.6499,-2.6499,-2.6499,-2.6499,-2.6499,-2.6499,-2.6499,-2.6499,-2.6499,-2.6499,-2.6499,-2.6499,-2.6499,-2.6499,-2.6499,-2.6474,-2.6371,-2.6164,-2.5674,-2.5119,-2.4345,-2.3474,-2.2456,-2.1397,-2.0508,-1.9749,-1.8972,-1.8549,-1.8339,-1.814,-1.8203,-1.8301,-1.8359,-1.8418,-1.8496,-1.8555,-1.8516,-1.8437,-1.8418,-1.8301,-1.8105,-1.8008,-1.8008,-1.8008,-1.8008,-1.8008,-1.8008,-1.8008,-1.8008,-1.8008,-4.5521,-4.4572,-4.4458,-4.4143,-4.3714,-4.3636,-4.3518,-4.3329,-4.329,-4.329,-4.329,-4.329,-4.329,-4.329,-4.329,-4.329,-4.329,-4.329,-4.329,-4.329,-4.329,-4.329,-4.329,-4.312,-4.288,-4.247,-4.1572,-4.1016,-4.0503,-3.9829,-3.8847,-3.7854,-3.7173,-3.6547,-3.579,-3.5304,-3.4564,-3.3995,-3.3658,-3.3166,-3.2198,-3.1436,-3.0783,-3.0633,-3.0181,-2.993,-2.9804,-2.9779,-2.9779,-2.9779,-2.9779,-2.9779,-2.9779,-2.9779,-2.9553,-2.9026,-2.8047,-2.7519,-2.7178,-2.6776,-2.6499,-2.6499,-2.6499,-2.6499,-2.6499,-2.6499,-2.6499,-2.6499,-2.6499,-2.6499,-2.6499,-2.6499,-2.6499,-2.6499,-2.6499,-2.6499,-2.6499,-2.6499,-2.6499,-2.6499,-2.6499,-2.643,-2.6292,-2.599,-2.5442,-2.4867,-2.3988,-2.3156,-2.2093,-2.0982,-2.0084,-1.9042,-1.8434,-1.8242,-1.8223,-1.8437,-1.8559,-1.8769,-1.8867,-1.8965,-1.9062,-1.9141,-1.8984,-1.8789,-1.8422,-1.8262,-1.8144,-1.8027,-1.8008,-1.8008,-1.8008,-1.8008,-1.8008,-1.8008,-1.8008,-4.4709,-4.4534,-4.4026,-4.3754,-4.3636,-4.3448,-4.3359,-4.329,-4.329,-4.329,-4.329,-4.329,-4.329,-4.329,-4.329,-4.329,-4.329,-4.329,-4.329,-4.329,-4.329,-4.326,-4.317,-4.2701,-4.2432,-4.2021,-4.1055,-4.0382,-3.9912,-3.9268,-3.8535,-3.7701,-3.7173,-3.6587,-3.575,-3.5304,-3.4605,-3.3869,-3.3658,-3.3191,-3.2399,-3.2039,-3.1461,-3.0909,-3.0507,-3.0281,-2.993,-2.9854,-2.9779,-2.9779,-2.9779,-2.9779,-2.9779,-2.9779,-2.9779,-2.9402,-2.8699,-2.7795,-2.7404,-2.6901,-2.6524,-2.6524,-2.6499,-2.6499,-2.6499,-2.6499,-2.6499,-2.6499,-2.6499,-2.6499,-2.6499,-2.6499,-2.6499,-2.6499,-2.6499,-2.6499,-2.6499,-2.6499,-2.6499,-2.6499,-2.6499,-2.6499,-2.643,-2.6094,-2.5756,-2.5188,-2.4553,-2.3688,-2.2705,-2.1466,-2.0355,-1.9342,-1.8774,-1.8577,-1.8594,-1.8734,-1.8929,-1.918,-1.9355,-1.9473,-1.9551,-1.9609,-1.9394,-1.9141,-1.8809,-1.8516,-1.8379,-1.8242,-1.8086,-1.8008,-1.8008,-1.8008,-1.8008,-1.8008,-1.8105,-4.4104,-4.4065,-4.3823,-4.3596,-4.3448,-4.3329,-4.329,-4.329,-4.329,-4.329,-4.329,-4.329,-4.329,-4.329,-4.329,-4.329,-4.329,-4.329,-4.329,-4.329,-4.326,-4.312,-4.2791,-4.25,-4.2171,-4.1265,-4.0659,-3.9966,-3.9417,-3.8929,-3.8389,-3.7663,-3.7173,-3.6547,-3.575,-3.5304,-3.4564,-3.3894,-3.3471,-3.3156,-3.2734,-3.2365,-3.1989,-3.1512,-3.0919,-3.0557,-3.0256,-2.9905,-2.9804,-2.9779,-2.9779,-2.9779,-2.9779,-2.9779,-2.9779,-2.9729,-2.9051,-2.8348,-2.7795,-2.7243,-2.6876,-2.6549,-2.6499,-2.6499,-2.6499,-2.6499,-2.6499,-2.6499,-2.6499,-2.6499,-2.6499,-2.6499,-2.6499,-2.6499,-2.6499,-2.6499,-2.6499,-2.6499,-2.6499,-2.6499,-2.6499,-2.6499,-2.6465,-2.6154,-2.5875,-2.5463,-2.4814,-2.4002,-2.2883,-2.1599,-2.0597,-1.9616,-1.9258,-1.9065,-1.9154,-1.9277,-1.9416,-1.9687,-1.998,-2.0096,-2.0116,-2.0077,-1.9824,-1.9687,-1.9492,-1.916,-1.8769,-1.8418,-1.8203,-1.8086,-1.8008,-1.8105,-1.8223,-1.8325,-1.8442,-4.3154,-4.3145,-4.3446,-4.3388,-4.309,-4.309,-4.297,-4.2821,-4.2791,-4.2781,-4.291,-4.3,-4.311,-4.329,-4.329,-4.329,-4.329,-4.329,-4.329,-4.326,-4.312,-4.2791,-4.241,-4.2111,-4.1362,-4.0397,-4.0217,-3.9638,-3.9084,-3.8694,-3.8389,-3.7625,-3.7211,-3.6547,-3.579,-3.5182,-3.4522,-3.3683,-3.3326,-3.3129,-3.3011,-3.2667,-3.239,-3.1989,-3.1486,-3.0884,-3.0583,-3.0281,-3.003,-2.9779,-2.9779,-2.9779,-2.9779,-2.9779,-2.9779,-2.9729,-2.9302,-2.89,-2.8298,-2.767,-2.7143,-2.6826,-2.6524,-2.6499,-2.6499,-2.6499,-2.6499,-2.6499,-2.6499,-2.6499,-2.6499,-2.6499,-2.6499,-2.6499,-2.6499,-2.6499,-2.6499,-2.6499,-2.6499,-2.6499,-2.6499,-2.6499,-2.6396,-2.6154,-2.591,-2.5641,-2.5051,-2.427,-2.3095,-2.1775,-2.0827,-1.9925,-1.9593,-1.9436,-1.9546,-1.9687,-1.9902,-2.0078,-2.041,-2.0527,-2.0449,-2.0429,-2.0312,-2.0156,-2.0019,-1.9727,-1.9297,-1.8789,-1.834,-1.8496,-1.8594,-1.8457,-1.8516,-1.8637,-1.887,-4.1542,-4.1662,-4.2821,-4.294,-4.247,-4.247,-4.2141,-4.1713,-4.1594,-4.1654,-4.1773,-4.2171,-4.2731,-4.305,-4.305,-4.308,-4.323,-4.329,-4.314,-4.297,-4.2761,-4.2381,-4.1931,-4.1272,-4.0576,-4.0247,-3.9852,-3.9341,-3.8907,-3.8767,-3.8315,-3.7634,-3.7211,-3.6508,-3.571,-3.4977,-3.4272,-3.3556,-3.3197,-3.3136,-3.3136,-3.2986,-3.2742,-3.234,-3.2064,-3.1662,-3.0708,-3.0532,-3.0231,-2.9829,-2.9779,-2.9779,-2.9779,-2.9779,-2.9779,-2.9729,-2.9704,-2.9327,-2.8825,-2.8097,-2.7419,-2.7153,-2.6876,-2.6575,-2.6499,-2.6499,-2.6499,-2.6499,-2.6499,-2.6499,-2.6499,-2.6499,-2.6499,-2.6499,-2.6499,-2.6499,-2.6499,-2.6499,-2.6499,-2.6499,-2.6499,-2.6499,-2.643,-2.6223,-2.6015,-2.577,-2.4969,-2.4184,-2.3162,-2.1955,-2.1125,-2.0358,-1.9889,-1.9769,-1.9842,-2.0,-2.0137,-2.0273,-2.0527,-2.0586,-2.0566,-2.0566,-2.0546,-2.041,-2.0215,-2.0019,-1.9863,-1.9473,-1.9219,-1.9219,-1.916,-1.8945,-1.8965,-1.916,-1.9434,-4.1422,-4.1482,-4.1953,-4.1983,-4.1782,-4.1782,-4.1662,-4.1452,-4.1422,-4.1422,-4.1422,-4.1692,-4.1931,-4.2102,-4.2132,-4.2132,-4.2132,-4.2132,-4.2162,-4.2102,-4.1863,-4.1534,-4.1085,-4.0696,-4.0217,-3.9858,-3.9493,-3.9192,-3.8833,-3.8767,-3.8315,-3.7711,-3.7173,-3.6508,-3.571,-3.4729,-3.3937,-3.3513,-3.3197,-3.3136,-3.3136,-3.3111,-3.2968,-3.2792,-3.2315,-3.1863,-3.116,-3.0783,-3.0331,-2.9955,-2.9829,-2.9779,-2.9779,-2.9779,-2.9779,-2.9779,-2.9779,-2.9654,-2.9402,-2.8674,-2.8047,-2.7379,-2.7102,-2.6876,-2.6675,-2.6524,-2.6499,-2.6499,-2.6549,-2.665,-2.6524,-2.6499,-2.6499,-2.6499,-2.6524,-2.6549,-2.6499,-2.6499,-2.6499,-2.6499,-2.6499,-2.6499,-2.6396,-2.6292,-2.6084,-2.584,-2.4969,-2.4095,-2.3164,-2.2299,-2.1518,-2.0917,-2.0481,-2.0183,-2.0252,-2.0331,-2.041,-2.0507,-2.0605,-2.0605,-2.0605,-2.0605,-2.0566,-2.0507,-2.0488,-2.0312,-2.0215,-2.0194,-1.9999,-1.9629,-1.9473,-1.9355,-1.9453,-1.9648,-1.9883,-4.0786,-4.0756,-4.0576,-4.0726,-4.1055,-4.1085,-4.0965,-4.0816,-4.0756,-4.0935,-4.1085,-4.1085,-4.1235,-4.1362,-4.1452,-4.1482,-4.1542,-4.1542,-4.1482,-4.1354,-4.1205,-4.0816,-4.0487,-4.0157,-3.9828,-3.9433,-3.9337,-3.9192,-3.8833,-3.8767,-3.8315,-3.7711,-3.7201,-3.6508,-3.5588,-3.4413,-3.3598,-3.33,-3.3197,-3.3136,-3.3136,-3.3111,-3.3068,-3.3061,-3.2692,-3.2265,-3.1662,-3.1185,-3.0633,-3.0206,-2.993,-2.9804,-2.9779,-2.9779,-2.9779,-2.9779,-2.9779,-2.9779,-2.9654,-2.9202,-2.8499,-2.7745,-2.7605,-2.7354,-2.7102,-2.6977,-2.7153,-2.7102,-2.7052,-2.6942,-2.6952,-2.7102,-2.6977,-2.7002,-2.6876,-2.6851,-2.6575,-2.6499,-2.6499,-2.6499,-2.6499,-2.6499,-2.6361,-2.6258,-2.5945,-2.5665,-2.4992,-2.4213,-2.3489,-2.2722,-2.2087,-2.1556,-2.1138,-2.0873,-2.0663,-2.0585,-2.0507,-2.0527,-2.0605,-2.0605,-2.0605,-2.0605,-2.0605,-2.0566,-2.0566,-2.0605,-2.0527,-2.041,-2.0175,-1.9881,-1.9785,-1.9824,-1.9941,-2.0155,-2.0253,-3.9403,-3.9379,-3.8781,-3.923,-4.0217,-4.0397,-4.0008,-3.9499,-3.9529,-3.9828,-4.0277,-4.0367,-4.0726,-4.1123,-4.1055,-4.1055,-4.1085,-4.1145,-4.1145,-4.0995,-4.0606,-4.0397,-4.0157,-3.9828,-3.9553,-3.9433,-3.9337,-3.9192,-3.8767,-3.8767,-3.8352,-3.7634,-3.7017,-3.635,-3.5588,-3.4371,-3.3513,-3.3154,-3.3111,-3.3136,-3.3136,-3.3136,-3.3136,-3.3086,-3.2993,-3.2616,-3.2039,-3.1512,-3.0959,-3.0507,-3.0005,-2.9829,-2.9779,-2.9779,-2.9779,-2.9779,-2.9779,-2.9779,-2.9754,-2.9252,-2.8725,-2.8222,-2.8097,-2.7971,-2.7996,-2.7971,-2.7846,-2.767,-2.7821,-2.7896,-2.7971,-2.7946,-2.762,-2.7419,-2.7354,-2.7153,-2.6876,-2.6675,-2.6725,-2.6549,-2.6499,-2.6465,-2.6361,-2.6154,-2.5781,-2.5394,-2.4849,-2.4273,-2.3666,-2.3001,-2.2365,-2.1856,-2.1397,-2.1012,-2.0722,-2.0644,-2.0605,-2.0605,-2.0605,-2.0605,-2.0605,-2.0605,-2.0605,-2.0605,-2.0605,-2.0605,-2.0605,-2.0586,-2.037,-2.0214,-2.037,-2.0429,-2.0546,-2.0546,-2.0546,-3.8093,-3.8063,-3.7823,-3.8003,-3.8392,-3.8422,-3.8272,-3.8182,-3.8542,-3.8871,-3.914,-3.9499,-3.9828,-4.0038,-4.0157,-4.0187,-4.0157,-4.0068,-4.0068,-4.0098,-3.9888,-3.9798,-3.9649,-3.9619,-3.9403,-3.9403,-3.9373,-3.9192,-3.8767,-3.8767,-3.8352,-3.7634,-3.6665,-3.571,-3.4895,-3.4021,-3.3513,-3.3197,-3.3136,-3.3136,-3.3136,-3.3136,-3.3136,-3.3136,-3.3136,-3.2817,-3.229,-3.1763,-3.121,-3.0708,-3.0181,-2.9854,-2.9804,-2.9779,-2.9779,-2.9779,-2.9779,-2.9779,-2.9779,-2.9528,-2.9252,-2.8875,-2.8649,-2.8499,-2.8222,-2.8122,-2.8122,-2.8172,-2.8273,-2.8247,-2.8072,-2.8072,-2.7896,-2.7896,-2.777,-2.7519,-2.7304,-2.7153,-2.7027,-2.6675,-2.6499,-2.6499,-2.643,-2.6188,-2.584,-2.5465,-2.4992,-2.4454,-2.3872,-2.315,-2.244,-2.1932,-2.1436,-2.1051,-2.076,-2.0644,-2.0605,-2.0605,-2.0605,-2.0605,-2.0605,-2.0605,-2.0605,-2.0605,-2.0605,-2.0605,-2.0605,-2.0605,-2.0605,-2.0586,-2.0605,-2.0605,-2.0586,-2.0586,-2.0586,-3.7404,-3.7375,-3.7165,-3.7075,-3.7135,-3.7315,-3.7404,-3.7494,-3.7853,-3.8063,-3.8212,-3.8751,-3.908,-3.914,-3.932,-3.9403,-3.9403,-3.9403,-3.9403,-3.9403,-3.9403,-3.9433,-3.9433,-3.9403,-3.9403,-3.9403,-3.9337,-3.9192,-3.8804,-3.8767,-3.8211,-3.7327,-3.627,-3.5386,-3.4564,-3.3979,-3.3513,-3.3197,-3.3136,-3.3136,-3.3136,-3.3136,-3.3136,-3.3136,-3.3086,-3.2893,-3.2466,-3.1964,-3.1411,-3.0884,-3.0432,-2.998,-2.988,-2.9779,-2.9779,-2.9779,-2.9779,-2.9779,-2.9779,-2.9779,-2.9503,-2.9302,-2.9227,-2.9051,-2.8775,-2.8825,-2.88,-2.8775,-2.8624,-2.8649,-2.8649,-2.8624,-2.8524,-2.8524,-2.8323,-2.8072,-2.7745,-2.757,-2.7369,-2.7002,-2.6725,-2.6675,-2.6515,-2.6154,-2.5875,-2.5524,-2.5171,-2.4598,-2.4018,-2.3261,-2.2515,-2.197,-2.1474,-2.1051,-2.076,-2.0644,-2.0605,-2.0605,-2.0605,-2.0605,-2.0605,-2.0605,-2.0605,-2.0605,-2.0605,-2.0605,-2.0605,-2.0605,-2.0605,-2.0605,-2.0605,-2.0605,-2.0605,-2.0605,-2.0605,-3.7345,-3.7255,-3.6716,-3.6477,-3.6537,-3.6985,-3.7255,-3.7315,-3.7375,-3.7375,-3.7434,-3.8063,-3.8362,-3.8512,-3.905,-3.9254,-3.9313,-3.9313,-3.9403,-3.9403,-3.9403,-3.9403,-3.9403,-3.9403,-3.9403,-3.9403,-3.9337,-3.9192,-3.8804,-3.8575,-3.7976,-3.7134,-3.6151,-3.5263,-3.4522,-3.3937,-3.3513,-3.3197,-3.3136,-3.3136,-3.3136,-3.3136,-3.3136,-3.3136,-3.3111,-3.3086,-3.2742,-3.239,-3.1863,-3.1336,-3.0859,-3.0331,-2.998,-2.9804,-2.9779,-2.9779,-2.9779,-2.9779,-2.9779,-2.9779,-2.9779,-2.9628,-2.9679,-2.9729,-2.9654,-2.9478,-2.9402,-2.9428,-2.9402,-2.9553,-2.9628,-2.9503,-2.9352,-2.9202,-2.8976,-2.8649,-2.8247,-2.8021,-2.7821,-2.7519,-2.7243,-2.7042,-2.6681,-2.6338,-2.5924,-2.563,-2.5242,-2.467,-2.4091,-2.3409,-2.2665,-2.1911,-2.1474,-2.1051,-2.0799,-2.0644,-2.0605,-2.0605,-2.0605,-2.0605,-2.0605,-2.0605,-2.0605,-2.0605,-2.0605,-2.0605,-2.0605,-2.0605,-2.0605,-2.0605,-2.0605,-2.0605,-2.0605,-2.0605,-2.0605,-3.6025,-3.6028,-3.5848,-3.5789,-3.5818,-3.5998,-3.6058,-3.6118,-3.6507,-3.6746,-3.6776,-3.7404,-3.7674,-3.7764,-3.8392,-3.8631,-3.8871,-3.914,-3.9343,-3.9373,-3.9343,-3.9373,-3.9403,-3.9403,-3.9403,-3.9403,-3.9337,-3.9162,-3.8723,-3.8389,-3.7749,-3.6978,-3.6111,-3.5263,-3.4522,-3.3937,-3.3513,-3.3197,-3.3136,-3.3136,-3.3136,-3.3136,-3.3136,-3.3136,-3.3136,-3.3136,-3.2943,-3.2566,-3.2014,-3.1411,-3.0909,-3.0382,-2.9854,-2.9779,-2.9779,-2.9779,-2.9779,-2.9779,-2.9779,-2.9779,-2.9779,-2.9779,-2.9779,-2.9779,-2.9779,-2.9779,-2.9779,-2.9779,-2.9779,-2.9779,-2.9779,-2.9704,-2.9654,-2.9528,-2.9377,-2.9151,-2.88,-2.8624,-2.8398,-2.7996,-2.772,-2.7318,-2.6932,-2.6377,-2.5987,-2.5714,-2.5312,-2.4742,-2.4127,-2.3446,-2.2777,-2.2025,-2.1474,-2.1051,-2.0799,-2.0605,-2.0605,-2.0605,-2.0605,-2.0605,-2.0605,-2.0605,-2.0605,-2.0605,-2.0605,-2.0605,-2.0605,-2.0605,-2.0605,-2.0605,-2.0605,-2.0605,-2.0605,-2.0605,-2.0605,-3.5489,-3.5489,-3.5489,-3.5489,-3.5489,-3.5489,-3.5489,-3.5579,-3.5938,-3.6118,-3.6178,-3.6746,-3.7045,-3.7135,-3.7704,-3.8033,-3.8063,-3.8631,-3.896,-3.899,-3.926,-3.9373,-3.9403,-3.9403,-3.9403,-3.9403,-3.9337,-3.9162,-3.8686,-3.8014,-3.7366,-3.6822,-3.6071,-3.5263,-3.4496,-3.3937,-3.3513,-3.324,-3.3136,-3.3136,-3.3136,-3.3136,-3.3136,-3.3136,-3.3136,-3.3136,-3.3086,-3.2641,-3.219,-3.1537,-3.1009,-3.0532,-3.0005,-2.9779,-2.9779,-2.9779,-2.9779,-2.9779,-2.9779,-2.9779,-2.9779,-2.9779,-2.9779,-2.9779,-2.9779,-2.9779,-2.9779,-2.9779,-2.9779,-2.9779,-2.9779,-2.9779,-2.9779,-2.9754,-2.9679,-2.9628,-2.9453,-2.9302,-2.8925,-2.8473,-2.8047,-2.7656,-2.7137,-2.6579,-2.6037,-2.5773,-2.5312,-2.4706,-2.4127,-2.3482,-2.2815,-2.2101,-2.153,-2.1089,-2.0838,-2.0644,-2.0605,-2.0605,-2.0605,-2.0605,-2.0605,-2.0605,-2.0605,-2.0605,-2.0605,-2.0605,-2.0605,-2.0605,-2.0605,-2.0605,-2.0605,-2.0605,-2.0605,-2.0605,-2.0605,-3.5489,-3.5489,-3.5489,-3.5489,-3.5489,-3.5489,-3.5489,-3.5489,-3.5549,-3.5519,-3.5669,-3.6148,-3.6417,-3.6537,-3.7045,-3.7315,-3.7524,-3.8003,-3.8452,-3.8427,-3.8931,-3.923,-3.9373,-3.9403,-3.9403,-3.9403,-3.9337,-3.9156,-3.8649,-3.7938,-3.7211,-3.6665,-3.5991,-3.5182,-3.4397,-3.3937,-3.3513,-3.3197,-3.3136,-3.3136,-3.3136,-3.3136,-3.3136,-3.3136,-3.3136,-3.3111,-3.3111,-3.2885,-3.2558,-3.1788,-3.116,-3.0708,-3.0131,-2.9779,-2.9779,-2.9779,-2.9779,-2.9779,-2.9779,-2.9779,-2.9779,-2.9779,-2.9779,-2.9779,-2.9779,-2.9779,-2.9779,-2.9779,-2.9779,-2.9779,-2.9779,-2.9779,-2.9779,-2.9779,-2.9754,-2.9704,-2.9654,-2.9528,-2.9377,-2.8925,-2.8524,-2.8097,-2.7723,-2.7196,-2.6426,-2.5955,-2.5312,-2.467,-2.4127,-2.3482,-2.2815,-2.2138,-2.1568,-2.1128,-2.0896,-2.0741,-2.0605,-2.0605,-2.0605,-2.0605,-2.0605,-2.0605,-2.0605,-2.0605,-2.0605,-2.0605,-2.0605,-2.0605,-2.0605,-2.0605,-2.0605,-2.0605,-2.0605,-2.0605,-2.0605,-3.5489,-3.5489,-3.5489,-3.5489,-3.5489,-3.5489,-3.5489,-3.5489,-3.5489,-3.5489,-3.5519,-3.5669,-3.5759,-3.5908,-3.6447,-3.6686,-3.6866,-3.7345,-3.7913,-3.8182,-3.8601,-3.899,-3.932,-3.9379,-3.9373,-3.9403,-3.9301,-3.9083,-3.8493,-3.7749,-3.7056,-3.6401,-3.5763,-3.5059,-3.423,-3.3852,-3.3513,-3.3011,-3.2968,-3.2986,-3.2935,-3.3061,-3.3136,-3.3086,-3.3061,-3.2986,-3.2842,-3.2566,-3.2089,-3.1486,-3.0984,-3.0432,-2.9854,-2.9804,-2.9779,-2.9779,-2.9779,-2.9779,-2.9779,-2.9779,-2.9779,-2.9779,-2.9779,-2.9779,-2.9779,-2.9779,-2.9779,-2.9779,-2.9779,-2.9779,-2.9779,-2.9779,-2.9779,-2.9779,-2.9779,-2.9779,-2.9779,-2.9754,-2.9704,-2.9402,-2.9001,-2.8662,-2.8262,-2.7666,-2.6892,-2.6116,-2.5314,-2.4657,-2.4127,-2.3519,-2.2889,-2.2214,-2.1589,-2.1167,-2.0935,-2.0741,-2.0644,-2.0605,-2.0605,-2.0605,-2.0605,-2.0605,-2.0605,-2.0605,-2.0605,-2.0605,-2.0605,-2.0605,-2.0605,-2.0605,-2.0605,-2.0605,-2.0605,-2.0605,-2.0605,-3.5489,-3.5489,-3.5489,-3.5489,-3.5489,-3.5489,-3.5489,-3.5489,-3.5489,-3.5489,-3.5489,-3.5489,-3.5489,-3.5489,-3.5908,-3.6088,-3.6207,-3.6716,-3.7075,-3.7494,-3.8182,-3.8601,-3.8931,-3.929,-3.9373,-3.9373,-3.9156,-3.8797,-3.824,-3.7634,-3.6978,-3.6203,-3.5588,-3.4977,-3.4189,-3.3784,-3.3361,-3.2734,-3.2692,-3.2591,-3.2533,-3.2541,-3.2491,-3.2466,-3.234,-3.2407,-3.224,-3.1964,-3.1612,-3.106,-3.0532,-3.0231,-2.9854,-2.9779,-2.9779,-2.9779,-2.9779,-2.9779,-2.9779,-2.9779,-2.9779,-2.9779,-2.9779,-2.9779,-2.9779,-2.9779,-2.9779,-2.9779,-2.9779,-2.9779,-2.9779,-2.9779,-2.9779,-2.9779,-2.9779,-2.9779,-2.9779,-2.9779,-2.9754,-2.9654,-2.9352,-2.9151,-2.8675,-2.7977,-2.7236,-2.6431,-2.5589,-2.4753,-2.42,-2.3593,-2.2927,-2.2289,-2.1683,-2.1282,-2.1089,-2.0858,-2.0605,-2.0605,-2.0605,-2.0605,-2.0605,-2.0605,-2.0605,-2.0605,-2.0605,-2.0605,-2.0605,-2.0605,-2.0605,-2.0605,-2.0605,-2.0605,-2.0625,-2.0683,-2.0742,-3.5489,-3.5489,-3.5489,-3.5489,-3.5489,-3.5489,-3.5489,-3.5489,-3.5489,-3.5489,-3.5489,-3.5489,-3.5489,-3.5489,-3.5489,-3.5489,-3.5669,-3.6148,-3.6387,-3.6926,-3.7734,-3.8212,-3.8661,-3.905,-3.9254,-3.9228,-3.9017,-3.8538,-3.7976,-3.7443,-3.6822,-3.6031,-3.5467,-3.4909,-3.4152,-3.363,-3.3131,-3.2391,-3.2039,-3.1788,-3.1763,-3.1813,-3.1788,-3.1587,-3.1386,-3.1386,-3.1386,-3.1235,-3.1035,-3.0658,-3.0206,-2.9955,-2.9829,-2.9779,-2.9779,-2.9779,-2.9779,-2.9779,-2.9779,-2.9779,-2.9779,-2.9779,-2.9779,-2.9779,-2.9779,-2.9779,-2.9779,-2.9779,-2.9779,-2.9779,-2.9779,-2.9779,-2.9779,-2.9779,-2.9779,-2.9779,-2.9779,-2.9779,-2.9779,-2.9779,-2.9654,-2.9478,-2.9025,-2.8338,-2.7569,-2.6797,-2.5961,-2.5098,-2.4309,-2.3689,-2.3038,-2.2402,-2.1797,-2.1474,-2.1205,-2.0896,-2.0605,-2.0605,-2.0605,-2.0605,-2.0605,-2.0605,-2.0605,-2.0605,-2.0605,-2.0605,-2.0605,-2.0605,-2.0605,-2.0605,-2.0605,-2.0644,-2.0801,-2.0879,-2.0996,-3.5489,-3.5489,-3.5489,-3.5489,-3.5489,-3.5489,-3.5489,-3.5489,-3.5489,-3.5489,-3.5489,-3.5489,-3.5489,-3.5489,-3.5489,-3.5489,-3.5519,-3.5789,-3.6118,-3.6626,-3.7225,-3.7823,-3.8362,-3.8811,-3.9182,-3.9119,-3.887,-3.8464,-3.7863,-3.7289,-3.6598,-3.5776,-3.5318,-3.4492,-3.3307,-3.2915,-3.2571,-3.1861,-3.1486,-3.1286,-3.106,-3.1185,-3.1461,-3.1411,-3.1386,-3.1386,-3.1286,-3.0959,-3.0758,-3.0482,-3.0131,-2.9854,-2.9779,-2.9779,-2.9779,-2.9779,-2.9779,-2.9779,-2.9779,-2.9779,-2.9779,-2.9779,-2.9779,-2.9779,-2.9779,-2.9779,-2.9779,-2.9779,-2.9779,-2.9779,-2.9779,-2.9779,-2.9779,-2.9779,-2.9779,-2.9779,-2.9779,-2.9779,-2.9779,-2.9779,-2.9754,-2.9654,-2.9578,-2.885,-2.8114,-2.7275,-2.6348,-2.549,-2.4477,-2.3835,-2.3187,-2.2553,-2.1911,-2.155,-2.1205,-2.0858,-2.0605,-2.0605,-2.0605,-2.0605,-2.0605,-2.0605,-2.0605,-2.0605,-2.0605,-2.0605,-2.0605,-2.0605,-2.0605,-2.0605,-2.0605,-2.0683,-2.0898,-2.1172,-2.1348]},{"header":{"parameterUnit":"m.s-1","parameterCategory":1,"la1":31.0,"la2":29.5877,"lo1":-88.7671,"lo2":-86.6584,"dy":0.0162,"dx":0.0185,"nx":115,"ny":88,"refTime":"2023-07-12T18:00:00:Z","depth":0,"parameterNumber":3,"parameterNumberName":"V-component_of_WINDS"},"data":[0.0,0.0,0.0,0.0,0.0,0.0,0.0,0.0,0.0,0.0,0.0,0.0,0.0,0.0,0.0,0.0,0.0,0.0,0.0,0.0,0.0,0.0,0.0,0.0,0.0,0.0,0.0,0.0,0.0,0.0,0.0,0.0,0.0,0.0,0.0,0.0,0.0,0.0,0.0,0.0,0.0,0.0,0.0,0.0,0.0,0.0,0.0,0.0,0.0,0.0,0.0,0.0,0.0,0.0,0.0,0.0,0.0,0.0,0.0,0.0,0.0,0.0,0.0,0.0,0.0,0.0,0.0,0.0,0.0,0.0,0.0,0.0,0.0,0.0,0.0,0.0,0.0,0.0,0.0,0.0,0.0,0.0,0.0,0.0,0.0,0.0,0.0,0.0,0.0,0.0,0.0,0.0,0.0,0.0,0.0,0.0,0.0,0.0,0.0,0.0,0.0,0.0,0.0,0.0,0.0,0.0,0.0,0.0,0.0,0.0,0.0,0.0,0.0,0.0,0.0,0.0,0.0,0.0,0.0,0.0,0.0,0.0,0.0,0.0,0.0,0.0,0.0,0.0,0.0,0.0,0.0,0.0,0.0,0.0,0.0,0.0,0.0,0.0,0.0,0.0,0.0,0.0,0.0,0.0,0.0,0.0,0.0,0.0,0.0,0.0,0.0,0.0,0.0,0.0,0.0,0.0,0.0,0.0,0.0,0.0,0.0,0.0,0.0,0.0,0.0,0.0,0.0,0.0,0.0,0.0,0.0,0.0,0.0,0.0,0.0,0.0,0.0,0.0,0.0,0.0,0.0,0.0,0.0,0.0,0.0,0.0,0.0,0.0,0.0,0.0,0.0,0.0,0.0,0.0,0.0,0.0,0.0,0.0,0.0,0.0,0.0,0.0,0.0,0.0,0.0,0.0,0.0,0.0,0.0,0.0,0.0,0.0,0.0,0.0,0.0,0.0,0.0,0.0,0.0,0.0,0.0,0.0,0.0,0.0,0.0,0.0,0.0,0.0,0.0,0.0,0.0,0.0,0.0,0.0,0.0,0.0,0.0,0.0,0.0,0.0,0.0,0.0,0.0,0.0,0.0,0.0,0.0,0.0,0.0,0.0,0.0,0.0,0.0,0.0,0.0,0.0,0.0,0.0,0.0,0.0,0.0,0.0,0.0,0.0,0.0,0.0,0.0,0.0,0.0,0.0,0.0,0.0,0.0,0.0,0.0,0.0,0.0,0.0,0.0,0.0,0.0,0.0,0.0,0.0,0.0,0.0,0.0,0.0,0.0,0.0,0.0,0.0,0.0,0.0,0.0,0.0,0.0,0.0,0.0,0.0,0.0,0.0,0.0,0.0,0.0,0.0,0.0,0.0,0.0,0.0,0.0,0.0,0.0,0.0,0.0,0.0,0.0,0.0,0.0,0.0,0.0,0.0,0.0,0.0,0.0,0.0,0.0,0.0,0.0,0.0,0.0,0.0,0.0,0.0,0.0,0.0,0.0,0.0,0.0,0.0,0.0,0.0,0.0,0.0,0.0,0.0,0.0,0.0,0.0,0.0,0.0,0.0,0.0,0.0,0.0,0.0,0.0,0.0,0.0,0.0,0.0,0.0,0.0,0.0,0.0,0.0,0.0,0.0,0.0,0.0,0.0,0.0,0.0,0.0,0.0,0.0,0.0,0.0,0.0,0.0,0.0,0.0,0.0,0.0,0.0,0.0,0.0,0.0,0.0,0.0,0.0,0.0,0.0,0.0,0.0,0.0,0.0,0.0,0.0,0.0,0.0,0.0,0.0,0.0,0.0,0.0,0.0,0.0,0.0,0.0,0.0,0.0,0.0,0.0,0.0,0.0,0.0,0.0,0.0,0.0,0.0,0.0,0.0,0.0,0.0,0.0,0.0,0.0,0.0,0.0,0.0,0.0,0.0,0.0,0.0,0.0,0.0,0.0,0.0,0.0,0.0,0.0,0.0,0.0,0.0,0.0,0.0,0.0,0.0,0.0,0.0,0.0,0.0,0.0,0.0,0.0,0.0,0.0,0.0,0.0,0.0,0.0,0.0,0.0,0.0,0.0,0.0,0.0,0.0,0.0,0.0,0.0,0.0,0.0,0.0,0.0,0.0,0.0,0.0,0.0,0.0,0.0,0.0,0.0,0.0,0.0,0.0,0.0,0.0,0.0,0.0,0.0,0.0,0.0,0.0,0.0,0.0,0.0,0.0,0.0,0.0,0.0,0.0,0.0,0.0,0.0,0.0,0.0,0.0,0.0,0.0,0.0,0.0,0.0,0.0,0.0,0.0,0.0,0.0,0.0,0.0,0.0,0.0,0.0,0.0,0.0,0.0,0.0,0.0,0.0,0.0,0.0,0.0,0.0,0.0,0.0,0.0,0.0,0.0,0.0,0.0,0.0,0.0,0.0,0.0,0.0,0.0,0.0,0.0,0.0,0.0,0.0,0.0,0.0,0.0,0.0,0.0,0.0,0.0,0.0,0.0,0.0,0.0,0.0,0.0,0.0,0.0,0.0,0.0,0.0,0.0,0.0,0.0,0.0,0.0,0.0,0.0,0.0,0.0,0.0,0.0,0.0,0.0,0.0,0.0,0.0,0.0,0.0,0.0,0.0,0.0,0.0,0.0,0.0,0.0,0.0,0.0,0.0,0.0,0.0,0.0,0.0,0.0,0.0,0.0,0.0,0.0,0.0,0.0,0.0,0.0,0.0,0.0,0.0,0.0,0.0,0.0,0.0,0.0,0.0,0.0,0.0,0.0,0.0,0.0,0.0,0.0,0.0,0.0,0.0,0.0,0.0,0.0,0.0,0.0,0.0,0.0,0.0,0.0,0.0,0.0,0.0,0.0,0.0,0.0,0.0,0.0,0.0,0.0,0.0,0.0,0.0,0.0,0.0,0.0,0.0,0.0,0.0,0.0,0.0,0.0,0.0,0.0,0.0,0.0,0.0,0.0,0.0,0.0,0.0,0.0,0.0,0.0,0.0,0.0,0.0,0.0,0.0,0.0,0.0,0.0,0.0,0.0,0.0,0.0,0.0,0.0,0.0,0.0,0.0,0.0,0.0,0.0,0.0,0.0,0.0,0.0,0.0,0.0,0.0,0.0,0.0,0.0,0.0,0.0,0.0,0.0,0.0,0.0,0.0,0.0,0.0,0.0,0.0,0.0,0.0,0.0,0.0,0.0,0.0,0.0,0.0,0.0,0.0,0.0,0.0,0.0,0.0,0.0,0.0,0.0,0.0,0.0,0.0,0.0,0.0,0.0,0.0,0.0,0.0,0.0,0.0,0.0,0.0,0.0,0.0,0.0,0.0,0.0,0.0,0.0,0.0,0.0,0.0,0.0,0.0,0.0,0.0,0.0,0.0,0.0,0.0,0.0,0.0,0.0,0.0,0.0,0.0,0.0,0.0,0.0,0.0,0.0,0.0,0.0,0.0,0.0,0.0,0.0,0.0,0.0,0.0,0.0,0.0,0.0,0.0,0.0,0.0,0.0,0.0,0.0,0.0,0.0,0.0,0.0,0.0,0.0,0.0,0.0,0.0,0.0,0.0,0.0,0.0,0.0,0.0,0.0,0.0,0.0,0.0,0.0,0.0,0.0,0.0,0.0,0.0,0.0,0.0,0.0,0.0,0.0,0.0,0.0,0.0,0.0,0.0,0.0,0.0,0.0,0.0,0.0,0.0,0.0,0.0,0.0,0.0,0.0,0.0,0.0,0.0,0.0,0.0,0.0,0.0,0.0,0.0,0.0,0.0,0.0,0.0,0.0,0.0,0.0,0.0,0.0,0.0,0.0,0.0,0.0,0.0,0.0,0.0,0.0,0.0,0.0,0.0,0.0,0.0,0.0,0.0,0.0,0.0,0.0,0.0,0.0,0.0,0.0,0.0,0.0,0.0,0.0,0.0,0.0,0.0,0.0,0.0,0.0,0.0,0.0,0.0,0.0,0.0,0.0,0.0,0.0,0.0,0.0,0.0,0.0,0.0,0.0,0.0,0.0,0.0,0.0,0.0,0.0,0.0,0.0,0.0,0.0,0.0,0.0,0.0,0.0,0.0,0.0,0.0,0.0,0.0,0.0,0.0,0.0,0.0,0.0,0.0,0.0,0.0,0.0,0.0,0.0,0.0,0.0,0.0,0.0,0.0,0.0,0.0,0.0,0.0,0.0,0.0,0.0,0.0,0.0,0.0,0.0,0.0,0.0,0.0,0.0,0.0,0.0,0.0,0.0,0.0,0.0,0.0,0.0,0.0,0.0,0.0,0.0,0.0,0.0,0.0,-1.1871,0.0,0.0,0.0,0.0,0.0,0.0,0.0,0.0,0.0,0.0,0.0,0.0,0.0,0.0,0.0,0.0,0.0,0.0,0.0,0.0,0.0,0.0,0.0,0.0,0.0,0.0,0.0,0.0,0.0,0.0,0.0,0.0,0.0,0.0,0.0,0.0,0.0,0.0,0.0,0.0,0.0,0.0,0.0,0.0,0.0,0.0,0.0,0.0,0.0,0.0,0.0,0.0,0.0,0.0,0.0,0.0,0.0,0.0,0.0,0.0,0.0,0.0,0.0,0.0,0.0,0.0,0.0,0.0,0.0,0.0,0.0,0.0,0.0,0.0,0.0,0.0,0.0,0.0,0.0,0.0,0.0,0.0,0.0,0.0,0.0,0.0,0.0,0.0,0.0,0.0,0.0,0.0,0.0,0.0,0.0,0.0,0.0,0.0,0.0,0.0,0.0,0.0,0.0,0.0,0.0,0.0,0.0,0.0,0.0,0.0,-1.3446,-1.324,-1.297,-1.2697,-1.2428,0.0,0.0,0.0,0.0,0.0,0.0,0.0,0.0,0.0,0.0,0.0,0.0,0.0,0.0,0.0,0.0,0.0,0.0,0.0,0.0,0.0,0.0,0.0,0.0,0.0,0.0,0.0,0.0,0.0,0.0,0.0,0.0,0.0,0.0,0.0,0.0,0.0,0.0,0.0,0.0,0.0,0.0,0.0,0.0,0.0,0.0,0.0,0.0,0.0,0.0,0.0,0.0,0.0,0.0,0.0,0.0,0.0,0.0,0.0,0.0,0.0,0.0,0.0,0.0,0.0,0.0,0.0,0.0,0.0,0.0,0.0,0.0,0.0,0.0,0.0,0.0,0.0,0.0,0.0,0.0,0.0,0.0,0.0,0.0,0.0,0.0,0.0,0.0,0.0,0.0,0.0,0.0,0.0,0.0,0.0,0.0,0.0,0.0,0.0,0.0,0.0,0.0,0.0,0.0,0.0,0.0,0.0,0.0,0.0,0.0,0.0,0.0,-1.3755,-1.3326,-1.296,0.0,0.0,0.0,0.0,0.0,0.0,0.0,0.0,0.0,0.0,0.0,0.0,0.0,0.0,0.0,0.0,0.0,0.0,0.0,0.0,0.0,0.0,0.0,0.0,0.0,0.0,0.0,0.0,0.0,0.0,0.0,0.0,0.0,0.0,0.0,0.0,0.0,0.0,0.0,0.0,0.0,0.0,0.0,0.0,0.0,0.0,0.0,0.0,0.0,0.0,0.0,0.0,0.0,0.0,0.0,0.0,0.0,0.0,0.0,0.0,0.0,0.0,0.0,0.0,0.0,0.0,0.0,0.0,0.0,0.0,0.0,0.0,0.0,0.0,0.0,0.0,0.0,0.0,0.0,0.0,0.0,0.0,0.0,0.0,0.0,0.0,0.0,0.0,0.0,0.0,0.0,0.0,0.0,0.0,0.0,0.0,0.0,0.0,0.0,0.0,0.0,0.0,0.0,0.0,0.0,0.0,0.0,0.0,0.0,0.0,-1.5709,-1.5709,-1.52,0.0,-1.3517,0.0,0.0,0.0,0.0,0.0,0.0,0.0,0.0,0.0,0.0,0.0,0.0,0.0,0.0,0.0,0.0,0.0,0.0,0.0,0.0,0.0,0.0,0.0,0.0,0.0,0.0,0.0,0.0,0.0,0.0,0.0,0.0,0.0,0.0,0.0,0.0,0.0,0.0,0.0,0.0,0.0,0.0,0.0,0.0,0.0,0.0,0.0,0.0,0.0,0.0,0.0,0.0,0.0,0.0,0.0,0.0,0.0,0.0,0.0,0.0,0.0,0.0,0.0,0.0,0.0,0.0,0.0,0.0,0.0,0.0,0.0,0.0,0.0,0.0,0.0,0.0,0.0,0.0,0.0,0.0,0.0,0.0,0.0,0.0,0.0,0.0,0.0,0.0,0.0,0.0,0.0,0.0,0.0,0.0,0.0,0.0,0.0,0.0,0.0,0.0,0.0,0.0,0.0,0.0,0.0,0.0,0.0,0.0,0.0,0.0,-1.6373,-1.6398,-1.5777,-1.5209,0.0,0.0,0.0,0.0,0.0,0.0,0.0,0.0,0.0,0.0,0.0,0.0,0.0,0.0,0.0,0.0,0.0,0.0,0.0,0.0,0.0,0.0,0.0,0.0,0.0,0.0,0.0,0.0,0.0,0.0,0.0,0.0,0.0,0.0,0.0,0.0,0.0,0.0,0.0,0.0,0.0,0.0,0.0,0.0,0.0,0.0,0.0,0.0,0.0,0.0,0.0,0.0,0.0,0.0,0.0,0.0,0.0,0.0,0.0,0.0,0.0,0.0,0.0,0.0,0.0,0.0,0.0,0.0,0.0,0.0,0.0,0.0,0.0,0.0,0.0,0.0,0.0,0.0,0.0,0.0,0.0,0.0,0.0,0.0,0.0,0.0,0.0,0.0,0.0,0.0,0.0,0.0,0.0,0.0,0.0,0.0,0.0,0.0,0.0,0.0,0.0,0.0,0.0,0.0,0.0,0.0,0.0,0.0,0.0,0.0,-1.6967,-1.7247,-1.7058,-1.6423,-1.5955,-1.5673,0.0,0.0,0.0,0.0,0.0,0.0,0.0,0.0,0.0,0.0,0.0,0.0,0.0,0.0,0.0,0.0,0.0,0.0,0.0,0.0,0.0,0.0,0.0,0.0,0.0,0.0,0.0,0.0,0.0,0.0,0.0,0.0,0.0,0.0,0.0,0.0,0.0,0.0,0.0,0.0,0.0,0.0,0.0,0.0,0.0,0.0,0.0,0.0,0.0,0.0,0.0,0.0,0.0,0.0,0.0,0.0,0.0,0.0,0.0,0.0,0.0,0.0,0.0,0.0,0.0,0.0,0.0,0.0,0.0,0.0,0.0,0.0,0.0,0.0,0.0,0.0,0.0,0.0,0.0,0.0,0.0,0.0,0.0,0.0,0.0,0.0,0.0,0.0,0.0,0.0,0.0,0.0,0.0,0.0,0.0,0.0,0.0,0.0,0.0,0.0,0.0,0.0,0.0,0.0,0.0,0.0,0.0,0.0,-1.7339,-1.8348,-1.8584,-1.7954,-1.7355,-1.6736,0.0,0.0,0.0,0.0,0.0,0.0,0.0,0.0,0.0,0.0,0.0,0.0,0.0,0.0,0.0,0.0,0.0,0.0,0.0,0.0,0.0,0.0,0.0,0.0,0.0,0.0,0.0,0.0,0.0,0.0,0.0,0.0,0.0,0.0,0.0,0.0,0.0,0.0,0.0,0.0,0.0,0.0,0.0,0.0,0.0,0.0,0.0,0.0,0.0,0.0,0.0,0.0,0.0,0.0,0.0,0.0,0.0,0.0,0.0,0.0,0.0,0.0,0.0,0.0,0.0,0.0,0.0,0.0,0.0,0.0,0.0,0.0,0.0,0.0,0.0,0.0,0.0,0.0,0.0,0.0,0.0,0.0,0.0,0.0,0.0,0.0,0.0,0.0,0.0,0.0,0.0,0.0,0.0,0.0,0.0,0.0,0.0,0.0,0.0,0.0,0.0,0.0,0.0,0.0,0.0,0.0,0.0,0.0,0.0,-1.7678,-1.8702,-1.9139,-1.8894,-1.8018,-1.7388,0.0,0.0,0.0,0.0,0.0,0.0,0.0,0.0,0.0,0.0,0.0,0.0,0.0,0.0,0.0,0.0,0.0,0.0,0.0,0.0,0.0,0.0,0.0,0.0,0.0,0.0,0.0,0.0,0.0,0.0,0.0,0.0,0.0,0.0,0.0,0.0,0.0,0.0,0.0,0.0,0.0,0.0,0.0,0.0,0.0,0.0,0.0,0.0,0.0,0.0,0.0,0.0,0.0,0.0,0.0,0.0,0.0,0.0,0.0,0.0,0.0,0.0,0.0,0.0,0.0,0.0,0.0,0.0,0.0,0.0,0.0,0.0,0.0,0.0,0.0,0.0,0.0,0.0,0.0,0.0,0.0,0.0,0.0,0.0,0.0,0.0,0.0,0.0,0.0,0.0,0.0,0.0,0.0,0.0,0.0,0.0,0.0,0.0,0.0,0.0,0.0,0.0,0.0,0.0,0.0,0.0,0.0,0.0,0.0,-1.8734,0.0,-1.9797,-1.9721,-1.8684,-1.797,0.0,0.0,0.0,0.0,0.0,0.0,0.0,0.0,0.0,0.0,0.0,0.0,0.0,0.0,0.0,0.0,0.0,0.0,0.0,0.0,0.0,0.0,0.0,0.0,0.0,0.0,0.0,0.0,0.0,0.0,0.0,0.0,0.0,0.0,0.0,0.0,0.0,0.0,0.0,0.0,0.0,0.0,0.0,0.0,0.0,0.0,0.0,0.0,0.0,0.0,0.0,0.0,0.0,0.0,0.0,0.0,0.0,0.0,0.0,0.0,0.0,0.0,0.0,0.0,0.0,0.0,0.0,0.0,0.0,0.0,0.0,0.0,0.0,0.0,0.0,0.0,0.0,0.0,0.0,0.0,0.0,0.0,0.0,0.0,0.0,0.0,0.0,0.0,0.0,0.0,0.0,0.0,0.0,0.0,0.0,0.0,0.0,0.0,0.0,0.0,0.0,0.0,0.0,0.0,0.0,0.0,0.0,0.0,-1.8908,-2.0591,-2.0691,-2.0661,-2.0476,-1.9456,-1.8536,0.0,0.0,0.0,0.0,0.0,0.0,0.0,0.0,0.0,0.0,0.0,0.0,0.0,0.0,0.0,0.0,0.0,0.0,0.0,0.0,0.0,0.0,0.0,0.0,0.0,0.0,0.0,0.0,0.0,0.0,0.0,0.0,0.0,0.0,0.0,0.0,0.0,0.0,0.0,0.0,0.0,0.0,0.0,0.0,0.0,0.0,0.0,0.0,0.0,0.0,0.0,0.0,0.0,0.0,0.0,0.0,0.0,0.0,0.0,0.0,0.0,0.0,0.0,0.0,0.0,0.0,0.0,0.0,0.0,0.0,0.0,0.0,0.0,0.0,0.0,0.0,0.0,0.0,0.0,0.0,0.0,0.0,0.0,0.0,0.0,0.0,0.0,0.0,0.0,0.0,0.0,0.0,0.0,0.0,0.0,0.0,0.0,0.0,0.0,0.0,0.0,0.0,0.0,0.0,0.0,0.0,0.0,0.0,0.0,-2.0691,-2.1418,-2.1791,-2.1713,-2.0686,-1.9633,0.0,0.0,0.0,0.0,0.0,0.0,0.0,0.0,0.0,0.0,0.0,0.0,0.0,0.0,0.0,0.0,0.0,0.0,0.0,0.0,0.0,0.0,0.0,0.0,0.0,0.0,0.0,0.0,0.0,0.0,0.0,0.0,0.0,0.0,0.0,0.0,0.0,0.0,0.0,0.0,0.0,0.0,0.0,0.0,0.0,0.0,0.0,0.0,0.0,0.0,0.0,0.0,0.0,0.0,0.0,0.0,0.0,0.0,0.0,0.0,0.0,0.0,0.0,0.0,0.0,0.0,0.0,0.0,0.0,0.0,0.0,0.0,0.0,0.0,0.0,0.0,0.0,0.0,0.0,0.0,0.0,0.0,0.0,0.0,0.0,0.0,0.0,0.0,0.0,0.0,0.0,0.0,0.0,0.0,0.0,0.0,0.0,0.0,0.0,0.0,0.0,0.0,0.0,0.0,0.0,0.0,0.0,0.0,0.0,-2.2614,-2.3094,-2.3316,-2.3341,-2.2141,-2.0825,-1.9434,0.0,0.0,0.0,0.0,0.0,0.0,0.0,0.0,0.0,0.0,0.0,0.0,0.0,0.0,0.0,0.0,0.0,0.0,0.0,0.0,0.0,0.0,0.0,0.0,0.0,0.0,0.0,0.0,0.0,0.0,0.0,0.0,0.0,0.0,0.0,0.0,0.0,0.0,0.0,0.0,0.0,0.0,0.0,0.0,0.0,0.0,0.0,0.0,0.0,0.0,0.0,0.0,0.0,0.0,0.0,0.0,0.0,0.0,0.0,0.0,0.0,0.0,0.0,0.0,0.0,0.0,0.0,0.0,0.0,0.0,0.0,0.0,0.0,0.0,0.0,0.0,0.0,0.0,0.0,0.0,0.0,0.0,0.0,0.0,0.0,0.0,0.0,0.0,0.0,0.0,0.0,0.0,0.0,0.0,0.0,0.0,0.0,0.0,0.0,0.0,0.0,0.0,0.0,0.0,0.0,0.0,0.0,0.0,-2.6044,-2.5644,-2.5371,-2.5211,-2.3752,-2.2089,0.0,0.0,0.0,0.0,0.0,0.0,0.0,0.0,0.0,0.0,0.0,0.0,0.0,0.0,0.0,0.0,0.0,0.0,0.0,0.0,0.0,0.0,0.0,0.0,0.0,0.0,0.0,0.0,0.0,0.0,0.0,0.0,0.0,0.0,0.0,0.0,0.0,0.0,0.0,0.0,0.0,0.0,0.0,0.0,0.0,0.0,0.0,0.0,0.0,0.0,0.0,0.0,0.0,0.0,0.0,0.0,0.0,0.0,0.0,0.0,0.0,0.0,0.0,0.0,0.0,0.0,0.0,0.0,0.0,0.0,0.0,0.0,0.0,0.0,0.0,0.0,0.0,0.0,0.0,0.0,0.0,0.0,0.0,0.0,0.0,0.0,0.0,0.0,0.0,0.0,0.0,0.0,0.0,0.0,0.0,0.0,0.0,0.0,0.0,0.0,0.0,0.0,0.0,0.0,0.0,0.0,0.0,0.0,0.0,-2.8413,-2.8996,-2.8428,-2.6775,-2.5667,-2.4037,0.0,0.0,0.0,0.0,0.0,0.0,0.0,0.0,0.0,0.0,0.0,0.0,0.0,0.0,0.0,0.0,0.0,0.0,0.0,0.0,0.0,0.0,0.0,0.0,0.0,0.0,0.0,0.0,0.0,0.0,0.0,0.0,0.0,0.0,0.0,0.0,0.0,0.0,0.0,0.0,0.0,0.0,0.0,0.0,0.0,0.0,0.0,0.0,0.0,0.0,0.0,0.0,0.0,0.0,0.0,0.0,0.0,0.0,0.0,0.0,0.0,0.0,0.0,0.0,0.0,0.0,0.0,0.0,0.0,0.0,0.0,0.0,0.0,0.0,0.0,0.0,0.0,0.0,0.0,0.0,0.0,0.0,0.0,0.0,0.0,0.0,0.0,0.0,0.0,0.0,0.0,0.0,0.0,0.0,0.0,0.0,0.0,0.0,0.0,0.0,0.0,0.0,0.0,0.0,0.0,0.0,0.0,0.0,-2.8264,-3.0396,-3.1639,-3.1388,-2.9613,-2.7925,-2.5891,0.0,0.0,0.0,0.0,0.0,0.0,0.0,0.0,0.0,0.0,0.0,0.0,0.0,0.0,0.0,0.0,0.0,0.0,0.0,0.0,0.0,0.0,0.0,0.0,0.0,0.0,0.0,0.0,0.0,0.0,0.0,0.0,0.0,0.0,0.0,0.0,0.0,0.0,0.0,0.0,0.0,0.0,0.0,0.0,0.0,0.0,0.0,0.0,0.0,0.0,0.0,0.0,0.0,0.0,0.0,0.0,0.0,0.0,0.0,0.0,0.0,0.0,0.0,0.0,0.0,0.0,0.0,0.0,0.0,0.0,0.0,0.0,0.0,0.0,0.0,0.0,0.0,0.0,0.0,0.0,0.0,0.0,0.0,0.0,0.0,0.0,0.0,0.0,0.0,0.0,0.0,0.0,0.0,0.0,0.0,0.0,0.0,0.0,0.0,0.0,0.0,0.0,0.0,0.0,0.0,0.0,0.0,0.0,-2.968,-3.2073,-3.3649,-3.3992,-3.2941,-3.0376,-2.774,0.0,0.0,0.0,0.0,0.0,0.0,0.0,0.0,0.0,0.0,0.0,0.0,0.0,0.0,0.0,0.0,0.0,0.0,0.0,0.0,0.0,0.0,0.0,0.0,0.0,0.0,0.0,0.0,0.0,0.0,0.0,0.0,0.0,0.0,0.0,0.0,0.0,0.0,0.0,0.0,0.0,0.0,0.0,0.0,0.0,0.0,0.0,0.0,0.0,0.0,0.0,0.0,0.0,0.0,0.0,0.0,0.0,0.0,0.0,0.0,0.0,0.0,0.0,0.0,0.0,0.0,0.0,0.0,0.0,0.0,0.0,0.0,0.0,0.0,0.0,0.0,0.0,0.0,0.0,0.0,0.0,0.0,0.0,0.0,0.0,0.0,0.0,0.0,0.0,0.0,0.0,0.0,0.0,0.0,0.0,0.0,0.0,0.0,0.0,0.0,0.0,0.0,0.0,0.0,0.0,0.0,0.0,0.0,-3.157,-3.3512,-3.4649,-3.5085,-3.4812,-3.2584,-3.0053,0.0,0.0,0.0,0.0,0.0,0.0,0.0,0.0,0.0,0.0,0.0,0.0,0.0,0.0,0.0,0.0,0.0,0.0,0.0,0.0,0.0,0.0,0.0,0.0,0.0,0.0,0.0,0.0,0.0,0.0,0.0,0.0,0.0,0.0,0.0,0.0,0.0,0.0,0.0,0.0,0.0,0.0,0.0,0.0,0.0,0.0,0.0,0.0,-1.9866,0.0,0.0,0.0,0.0,0.0,0.0,0.0,0.0,0.0,0.0,0.0,0.0,0.0,0.0,0.0,0.0,0.0,0.0,0.0,0.0,0.0,0.0,0.0,0.0,0.0,0.0,0.0,0.0,0.0,0.0,0.0,0.0,0.0,0.0,0.0,0.0,0.0,0.0,0.0,0.0,0.0,0.0,0.0,0.0,0.0,0.0,0.0,0.0,0.0,0.0,0.0,0.0,0.0,0.0,0.0,0.0,0.0,0.0,0.0,-3.3287,-3.4916,-3.6037,-3.6421,-3.5928,-3.4524,-3.2103,0.0,0.0,0.0,0.0,0.0,0.0,0.0,0.0,0.0,0.0,0.0,0.0,0.0,0.0,0.0,0.0,0.0,0.0,0.0,0.0,0.0,0.0,0.0,0.0,0.0,0.0,0.0,0.0,0.0,0.0,0.0,0.0,0.0,0.0,0.0,0.0,0.0,0.0,0.0,0.0,0.0,0.0,0.0,0.0,0.0,0.0,0.0,0.0,0.0,0.0,0.0,0.0,0.0,0.0,0.0,0.0,0.0,0.0,0.0,0.0,0.0,0.0,0.0,0.0,0.0,0.0,0.0,0.0,0.0,0.0,0.0,0.0,0.0,0.0,0.0,0.0,0.0,0.0,0.0,0.0,0.0,0.0,0.0,0.0,0.0,0.0,0.0,0.0,0.0,0.0,0.0,0.0,0.0,0.0,0.0,0.0,0.0,0.0,0.0,0.0,0.0,0.0,0.0,0.0,0.0,0.0,0.0,-3.2528,-3.4819,-3.6108,-3.7387,-3.7593,-3.6693,-3.602,-3.3813,-2.9841,0.0,0.0,0.0,0.0,0.0,0.0,0.0,0.0,0.0,0.0,0.0,0.0,0.0,0.0,0.0,0.0,0.0,0.0,0.0,0.0,0.0,0.0,0.0,0.0,0.0,0.0,0.0,0.0,0.0,0.0,0.0,0.0,0.0,0.0,0.0,0.0,0.0,0.0,-2.1107,-2.1724,0.0,0.0,0.0,0.0,0.0,0.0,0.0,0.0,-2.1476,0.0,0.0,0.0,0.0,0.0,0.0,0.0,0.0,0.0,0.0,0.0,0.0,0.0,0.0,0.0,0.0,0.0,0.0,0.0,0.0,0.0,0.0,0.0,0.0,0.0,0.0,0.0,0.0,0.0,0.0,0.0,0.0,0.0,0.0,0.0,0.0,0.0,0.0,0.0,0.0,0.0,0.0,0.0,0.0,0.0,0.0,0.0,0.0,0.0,0.0,0.0,0.0,0.0,0.0,0.0,0.0,-3.0513,-3.3853,-3.5942,-3.674,-3.8003,-3.8069,-3.6869,-3.6364,-3.4475,-3.1132,0.0,0.0,0.0,0.0,0.0,0.0,0.0,0.0,0.0,0.0,0.0,0.0,0.0,0.0,0.0,0.0,0.0,0.0,0.0,0.0,0.0,0.0,0.0,0.0,0.0,0.0,0.0,0.0,0.0,0.0,0.0,0.0,0.0,0.0,0.0,0.0,0.0,0.0,0.0,-2.3678,-2.4335,0.0,0.0,0.0,0.0,0.0,0.0,0.0,0.0,-2.3874,0.0,0.0,0.0,0.0,0.0,0.0,0.0,0.0,0.0,0.0,0.0,0.0,0.0,0.0,0.0,0.0,0.0,0.0,0.0,0.0,0.0,0.0,0.0,0.0,0.0,0.0,0.0,0.0,0.0,0.0,0.0,0.0,0.0,0.0,0.0,0.0,0.0,0.0,0.0,0.0,0.0,0.0,0.0,0.0,0.0,0.0,0.0,0.0,0.0,0.0,0.0,0.0,0.0,0.0,0.0,-3.1014,-3.4322,-3.6369,-3.705,-3.8328,-3.8358,-3.7189,-3.6309,-3.4435,0.0,0.0,0.0,0.0,0.0,0.0,0.0,0.0,0.0,0.0,0.0,0.0,0.0,0.0,0.0,0.0,0.0,0.0,0.0,0.0,0.0,0.0,0.0,0.0,0.0,0.0,0.0,0.0,0.0,0.0,0.0,0.0,0.0,0.0,0.0,0.0,0.0,0.0,0.0,0.0,-2.4694,-2.5232,-2.5555,0.0,0.0,0.0,0.0,0.0,0.0,-2.5603,-2.5477,0.0,0.0,0.0,0.0,0.0,0.0,0.0,0.0,0.0,0.0,0.0,0.0,0.0,0.0,0.0,0.0,0.0,0.0,0.0,0.0,0.0,0.0,0.0,0.0,0.0,0.0,0.0,0.0,0.0,0.0,0.0,0.0,0.0,0.0,0.0,0.0,0.0,0.0,0.0,0.0,0.0,0.0,0.0,0.0,0.0,0.0,0.0,0.0,0.0,0.0,0.0,0.0,0.0,0.0,0.0,-3.122,-3.4396,-3.6454,-3.7228,-3.824,-3.8305,-3.74,-3.6178,-3.4231,0.0,0.0,0.0,0.0,0.0,0.0,0.0,0.0,0.0,0.0,0.0,0.0,0.0,0.0,0.0,0.0,0.0,0.0,0.0,0.0,0.0,0.0,0.0,0.0,0.0,0.0,0.0,0.0,0.0,0.0,0.0,0.0,0.0,0.0,0.0,0.0,0.0,0.0,0.0,0.0,0.0,-2.6093,-2.6363,-2.6398,0.0,0.0,0.0,0.0,-2.6808,-2.6842,0.0,0.0,0.0,0.0,0.0,0.0,0.0,0.0,0.0,0.0,0.0,0.0,0.0,0.0,0.0,0.0,0.0,0.0,0.0,0.0,0.0,0.0,0.0,0.0,0.0,0.0,0.0,0.0,0.0,0.0,0.0,0.0,0.0,0.0,0.0,0.0,0.0,0.0,0.0,0.0,0.0,0.0,0.0,0.0,0.0,0.0,0.0,0.0,0.0,0.0,0.0,0.0,0.0,0.0,0.0,0.0,-3.1453,-3.417,-3.6174,-3.731,-3.752,-3.752,-3.7404,-3.6178,-3.4231,0.0,0.0,0.0,0.0,0.0,0.0,0.0,0.0,0.0,0.0,0.0,0.0,0.0,0.0,0.0,0.0,0.0,0.0,0.0,0.0,0.0,0.0,0.0,0.0,0.0,0.0,0.0,0.0,0.0,0.0,0.0,0.0,0.0,0.0,0.0,0.0,0.0,0.0,0.0,0.0,0.0,-2.7794,-2.8992,-2.9116,-2.8963,0.0,0.0,0.0,-2.8431,-2.8342,0.0,0.0,0.0,0.0,0.0,0.0,0.0,0.0,0.0,0.0,0.0,0.0,0.0,0.0,0.0,0.0,0.0,0.0,0.0,0.0,0.0,0.0,0.0,0.0,0.0,0.0,0.0,0.0,0.0,0.0,0.0,0.0,0.0,0.0,0.0,0.0,0.0,0.0,0.0,0.0,0.0,0.0,0.0,0.0,0.0,0.0,0.0,0.0,0.0,0.0,0.0,0.0,0.0,0.0,0.0,-2.9564,-3.1511,-3.3784,-3.5579,-3.6836,-3.7225,-3.7225,-3.6896,-3.5609,-3.3844,0.0,0.0,0.0,0.0,0.0,0.0,0.0,0.0,0.0,0.0,0.0,0.0,0.0,0.0,0.0,0.0,0.0,0.0,0.0,0.0,0.0,0.0,0.0,0.0,0.0,0.0,0.0,0.0,0.0,0.0,0.0,0.0,0.0,0.0,0.0,0.0,0.0,0.0,0.0,0.0,0.0,0.0,-2.9472,-2.9864,0.0,0.0,0.0,-3.0163,-3.0225,0.0,0.0,0.0,0.0,0.0,0.0,0.0,0.0,0.0,0.0,0.0,0.0,0.0,0.0,0.0,0.0,0.0,0.0,0.0,0.0,0.0,0.0,0.0,0.0,0.0,0.0,0.0,0.0,0.0,0.0,0.0,0.0,0.0,0.0,0.0,0.0,0.0,0.0,0.0,0.0,0.0,0.0,0.0,0.0,0.0,0.0,0.0,0.0,0.0,0.0,0.0,0.0,0.0,0.0,0.0,0.0,0.0,-3.1481,-3.3305,-3.4951,-3.6417,-3.6776,-3.6776,-3.6477,-3.5011,0.0,0.0,0.0,0.0,0.0,0.0,0.0,0.0,0.0,0.0,0.0,0.0,0.0,0.0,0.0,0.0,0.0,0.0,0.0,0.0,0.0,0.0,0.0,0.0,0.0,0.0,0.0,-1.9966,0.0,0.0,0.0,0.0,0.0,0.0,0.0,0.0,0.0,0.0,0.0,0.0,0.0,0.0,-2.9205,-3.0163,-3.0702,-3.1061,0.0,0.0,-3.118,-3.166,-3.0552,-2.9621,0.0,0.0,0.0,0.0,0.0,0.0,0.0,0.0,0.0,0.0,0.0,0.0,0.0,0.0,0.0,0.0,0.0,0.0,0.0,0.0,0.0,0.0,0.0,0.0,0.0,0.0,0.0,0.0,0.0,0.0,0.0,0.0,0.0,0.0,0.0,0.0,0.0,0.0,0.0,0.0,0.0,0.0,0.0,0.0,0.0,0.0,0.0,0.0,0.0,0.0,0.0,0.0,0.0,0.0,0.0,-3.1481,-3.2886,-3.4502,-3.6357,-3.5908,-3.5908,-3.6417,-3.4592,-3.2946,0.0,0.0,0.0,0.0,0.0,0.0,0.0,0.0,0.0,0.0,0.0,0.0,0.0,0.0,0.0,0.0,0.0,0.0,0.0,0.0,0.0,0.0,0.0,0.0,0.0,0.0,0.0,0.0,0.0,0.0,0.0,0.0,0.0,0.0,0.0,0.0,0.0,0.0,0.0,0.0,0.0,-3.022,-3.2048,-3.2347,-3.2587,0.0,0.0,-3.2407,-3.2437,-3.0851,-2.9621,-2.9621,0.0,0.0,0.0,0.0,0.0,0.0,0.0,0.0,0.0,0.0,0.0,0.0,0.0,0.0,0.0,0.0,0.0,0.0,0.0,0.0,0.0,0.0,0.0,0.0,0.0,0.0,0.0,0.0,0.0,0.0,0.0,0.0,0.0,0.0,0.0,0.0,0.0,0.0,0.0,0.0,0.0,0.0,0.0,0.0,0.0,0.0,0.0,0.0,0.0,0.0,0.0,0.0,0.0,-2.9744,-3.0911,-3.2617,-3.4053,-3.5222,-3.54,-3.5639,-3.5878,-3.4352,-3.2886,0.0,0.0,0.0,0.0,0.0,0.0,0.0,0.0,0.0,0.0,0.0,0.0,0.0,0.0,0.0,0.0,0.0,0.0,0.0,0.0,0.0,0.0,0.0,0.0,0.0,0.0,0.0,0.0,-2.2335,-2.2885,-2.3191,0.0,0.0,0.0,0.0,0.0,0.0,0.0,0.0,0.0,0.0,-3.121,-3.2318,-3.3215,0.0,0.0,-3.3544,-3.3125,-3.3125,-3.112,-2.9621,-2.9621,-2.7735,0.0,0.0,0.0,0.0,0.0,0.0,0.0,0.0,0.0,0.0,0.0,0.0,0.0,0.0,0.0,0.0,0.0,0.0,0.0,0.0,0.0,0.0,0.0,0.0,0.0,0.0,0.0,0.0,0.0,0.0,0.0,0.0,0.0,0.0,0.0,0.0,0.0,0.0,0.0,0.0,0.0,0.0,0.0,0.0,0.0,0.0,0.0,0.0,0.0,0.0,0.0,0.0,-2.9894,-3.0492,-3.2467,-3.3814,-3.4503,-3.516,-3.5489,-3.5459,-3.4203,-3.2886,0.0,0.0,0.0,0.0,0.0,0.0,0.0,0.0,0.0,0.0,0.0,0.0,0.0,0.0,0.0,0.0,0.0,0.0,0.0,0.0,0.0,0.0,0.0,0.0,0.0,0.0,0.0,0.0,-2.294,-2.3332,-2.3657,0.0,0.0,0.0,0.0,0.0,0.0,0.0,0.0,0.0,0.0,-3.1809,-3.2677,-3.3754,-3.4593,-3.4803,-3.4053,-3.3514,-3.3514,-3.145,-2.9864,-2.9864,0.0,0.0,0.0,0.0,0.0,0.0,0.0,0.0,0.0,0.0,0.0,0.0,0.0,0.0,0.0,0.0,0.0,0.0,0.0,0.0,0.0,0.0,0.0,0.0,0.0,0.0,0.0,0.0,0.0,0.0,0.0,0.0,0.0,0.0,0.0,0.0,0.0,0.0,0.0,0.0,0.0,0.0,0.0,0.0,0.0,0.0,0.0,0.0,0.0,0.0,0.0,0.0,0.0,0.0,-3.0522,-3.2497,-3.3814,-3.4503,-3.516,-3.5489,-3.5459,-3.4203,-3.2856,-3.1481,0.0,0.0,0.0,0.0,0.0,0.0,0.0,0.0,0.0,0.0,0.0,0.0,0.0,0.0,0.0,0.0,0.0,0.0,0.0,0.0,0.0,0.0,0.0,0.0,0.0,0.0,-2.3503,-2.3876,-2.4027,0.0,0.0,0.0,0.0,0.0,0.0,0.0,0.0,0.0,0.0,-3.0285,-3.1989,-3.3275,-3.4084,-3.4741,-3.537,-3.4352,-3.3514,-3.3514,-3.1779,-3.0492,0.0,0.0,0.0,0.0,0.0,0.0,0.0,0.0,0.0,0.0,0.0,0.0,0.0,0.0,0.0,0.0,0.0,0.0,0.0,0.0,0.0,0.0,0.0,0.0,0.0,0.0,0.0,0.0,0.0,0.0,0.0,0.0,0.0,0.0,0.0,0.0,0.0,0.0,0.0,0.0,-3.2401,-3.186,0.0,0.0,0.0,0.0,0.0,0.0,0.0,0.0,0.0,0.0,0.0,0.0,-3.0103,-3.1182,-3.2706,-3.3814,-3.4503,-3.516,-3.5489,-3.5489,-3.4203,-3.2258,-2.9627,0.0,0.0,0.0,0.0,0.0,0.0,0.0,0.0,0.0,0.0,0.0,0.0,0.0,0.0,0.0,0.0,0.0,0.0,0.0,0.0,0.0,0.0,0.0,0.0,0.0,-2.3954,0.0,0.0,0.0,0.0,0.0,0.0,0.0,0.0,0.0,0.0,0.0,-2.8278,-2.9146,-3.13,-3.2976,-3.3455,-3.4442,-3.525,0.0,0.0,0.0,0.0,0.0,0.0,0.0,0.0,0.0,0.0,0.0,0.0,0.0,0.0,-2.92,-2.728,-2.7051,-2.7127,-2.7211,0.0,0.0,0.0,0.0,0.0,0.0,0.0,0.0,0.0,0.0,0.0,0.0,0.0,0.0,0.0,0.0,-2.661,0.0,0.0,0.0,0.0,0.0,0.0,0.0,0.0,-3.2647,-3.3306,-3.3909,-3.3407,-3.3342,0.0,-3.3056,-3.2292,0.0,0.0,0.0,0.0,0.0,0.0,0.0,0.0,-3.0223,-3.1511,-3.2826,-3.3845,-3.4503,-3.516,-3.5489,-3.5489,-3.3963,-3.1839,-2.9026,-2.7649,-2.6333,0.0,0.0,0.0,0.0,0.0,0.0,0.0,0.0,0.0,0.0,0.0,0.0,0.0,0.0,0.0,0.0,0.0,0.0,0.0,0.0,0.0,0.0,0.0,-2.4874,0.0,0.0,0.0,0.0,0.0,0.0,0.0,0.0,0.0,-2.6103,-2.757,-2.9015,-2.9913,-3.2105,-3.3576,-3.3484,0.0,0.0,0.0,0.0,0.0,0.0,0.0,-3.1296,-3.1381,-3.0978,-3.0715,-3.0926,-3.14,-3.1798,-3.1868,0.0,0.0,-2.9259,-2.8747,-2.8619,-2.8758,-2.8649,-2.8517,-2.8632,-2.8694,-2.8756,0.0,0.0,0.0,0.0,0.0,0.0,0.0,0.0,-2.6462,-2.712,0.0,0.0,0.0,0.0,0.0,0.0,0.0,0.0,0.0,0.0,-3.3667,-3.4,-3.427,-3.4563,-3.5026,-3.559,-3.5692,-3.5123,-3.388,-3.2208,0.0,0.0,0.0,0.0,0.0,0.0,-3.0283,-3.157,-3.2886,-3.3844,-3.4533,-3.516,-3.5459,-3.537,-3.3544,-3.1599,-2.9654,-2.8334,-2.7016,-2.5621,-2.4328,0.0,0.0,0.0,0.0,0.0,0.0,0.0,0.0,0.0,0.0,0.0,0.0,0.0,0.0,0.0,0.0,0.0,0.0,0.0,0.0,-2.5306,0.0,0.0,0.0,0.0,0.0,0.0,0.0,0.0,0.0,0.0,-2.7228,-2.8188,-2.9384,-3.0679,0.0,0.0,0.0,0.0,-3.5655,-3.5554,-3.4953,-3.4535,-3.4535,-3.3487,-3.2762,-3.2968,0.0,0.0,-3.2761,-3.3219,-3.3335,-3.2948,-3.3089,-3.3053,-3.2383,-3.1567,-3.1132,-3.1221,-3.0686,-3.0259,-3.0248,-3.0264,-3.039,-2.6087,0.0,0.0,0.0,0.0,-2.6789,-2.7563,-2.8298,-2.8882,-2.9123,-2.9188,-2.9555,0.0,0.0,0.0,0.0,0.0,0.0,-3.3118,-3.4171,-3.4483,-3.4941,-3.5491,-3.5518,-3.5685,-3.5943,-3.5868,-3.5559,-3.509,-3.4707,-3.3082,-3.0441,0.0,0.0,0.0,0.0,-3.16,-3.2916,-3.3754,-3.4532,-3.522,-3.54,-3.504,-3.4113,-3.3066,-3.1599,-2.9681,-2.8783,-2.747,-2.5704,-2.4784,0.0,0.0,0.0,0.0,0.0,0.0,0.0,0.0,0.0,0.0,0.0,0.0,0.0,0.0,0.0,0.0,0.0,0.0,0.0,-2.5651,-2.5873,-2.5844,0.0,0.0,0.0,0.0,0.0,0.0,0.0,0.0,0.0,-2.9209,-3.0304,-3.1213,0.0,0.0,-3.4637,-3.4575,-3.5333,-3.591,-3.5846,0.0,0.0,0.0,-3.3908,-3.3171,-3.346,-3.3291,-3.3198,-3.3377,-3.3797,-3.4086,-3.4129,-3.4323,-3.4424,-3.4379,-3.3226,-3.2365,-3.2354,-3.191,-3.1487,-3.1474,-3.1116,-3.0757,-2.8454,-2.791,-2.6947,-2.693,-2.7657,-2.8407,-2.9082,-2.9753,-3.0358,-3.0588,-3.0604,-3.1126,-3.1123,-3.0734,-3.1203,0.0,0.0,0.0,-3.3981,-3.4923,-3.5241,-3.5641,-3.6071,-3.6259,-3.6433,-3.6607,-3.6546,-3.6398,-3.6143,-3.6166,-3.4986,-3.2551,0.0,0.0,-3.1278,-3.1772,-3.2646,-3.3844,-3.4294,-3.4801,-3.5489,-3.525,-3.4592,-3.3514,-3.2587,-3.133,-2.9681,-2.8723,-2.741,-2.5674,-2.4963,-2.4007,0.0,0.0,0.0,0.0,0.0,0.0,0.0,0.0,0.0,0.0,0.0,-2.1633,0.0,0.0,0.0,0.0,-2.4398,-2.5261,-2.6157,-2.6134,0.0,0.0,0.0,0.0,0.0,0.0,0.0,-2.8297,-2.9483,-3.0464,-3.1046,-3.2212,-3.2804,-3.2305,-3.3778,-3.485,-3.479,0.0,-3.6321,-3.6289,-3.5769,-3.54,-3.546,-3.4349,-3.3562,-3.367,-3.3805,-3.3854,-3.3924,-3.4275,-3.457,-3.4739,-3.4906,-3.5128,-3.5337,-3.4476,-3.3684,-3.3428,-3.2637,-3.2031,-3.2031,-3.1415,-3.0952,-3.0308,-3.109,-2.9437,-2.8947,-2.9373,-2.9832,-3.0156,-3.0453,-3.1241,-3.1685,-3.1894,-3.2711,-3.2753,-3.2273,-3.2382,0.0,0.0,-3.4214,-3.4698,-3.5489,-3.5844,-3.6068,-3.6226,-3.6693,-3.7089,-3.7358,-3.7567,-3.7396,-3.6933,-3.693,-3.6321,-3.5143,-3.4325,-3.3306,-3.2239,-3.2641,-3.3427,-3.4474,-3.4563,-3.4863,-3.54,-3.4741,-3.4114,-3.3425,-3.2108,-3.0823,-2.9651,-2.8304,-2.6961,-2.5674,-2.4963,-2.4036,-2.2853,0.0,0.0,0.0,0.0,0.0,0.0,0.0,0.0,0.0,0.0,0.0,0.0,0.0,0.0,0.0,-2.5724,0.0,-2.6378,-2.6323,0.0,0.0,0.0,-2.7206,-2.7943,-2.8629,-2.9272,-2.9946,0.0,0.0,0.0,0.0,-3.4026,-3.2885,-3.3895,-3.4678,-3.4502,-3.5759,-3.675,-3.6537,-3.616,-3.5904,-3.5808,-3.4889,-3.4067,-3.386,-3.4075,-3.4325,-3.4374,-3.4643,-3.4883,-3.4954,-3.5152,-3.5304,-3.5407,-3.5273,-3.5149,-3.422,-3.3057,-3.2119,-3.2039,-3.1476,-3.1032,-3.1512,-3.1693,-3.1523,-3.1434,-3.1414,-3.1945,-3.2491,-3.3052,-3.3233,-3.3283,-3.3248,-3.3468,-3.3611,-3.3684,-3.4009,-3.4351,-3.4666,-3.4732,-3.5017,-3.5489,-3.5686,-3.5847,-3.6068,-3.6414,-3.6724,-3.6907,-3.7268,-3.7294,-3.699,-3.7196,-3.6699,-3.5633,-3.5735,-3.5032,-3.3605,-3.3909,-3.4235,-3.4503,-3.5011,-3.51,-3.4711,-3.4053,-3.3395,-3.2766,-3.145,-3.0372,-2.9621,-2.8304,-2.6986,-2.5674,-2.4963,-2.4216,-2.343,-2.2323,0.0,0.0,0.0,0.0,0.0,0.0,0.0,0.0,0.0,-2.2266,-2.3121,0.0,-2.3894,0.0,-2.5687,-2.6438,-2.6987,-2.7035,0.0,0.0,-2.7976,-2.8142,-2.8878,-2.9046,-2.9583,-3.0959,-3.1788,-3.2513,-3.3151,-3.3851,-3.4219,-3.3829,-3.456,-3.5137,-3.5109,-3.5471,-3.5808,-3.5812,-3.5799,-3.578,-3.5824,-3.5401,-3.4749,-3.4223,-3.4497,-3.4739,-3.4772,-3.4977,-3.5245,-3.5314,-3.5383,-3.5273,-3.4812,-3.4754,-3.4462,-3.3777,-3.3305,-3.29,-3.2347,-3.1658,-3.1151,-3.2175,-3.2566,-3.2657,-3.2919,-3.3136,-3.3055,-3.3421,-3.3995,-3.399,-3.4045,-3.4101,-3.4187,-3.45,-3.4855,-3.5086,-3.5165,-3.5107,-3.5276,-3.5363,-3.5359,-3.5559,-3.5752,-3.591,-3.6289,-3.6538,-3.6631,-3.7029,-3.715,-3.6999,-3.715,-3.6841,-3.6106,-3.6261,-3.5828,-3.4788,-3.4933,-3.4986,-3.4921,-3.531,-3.516,-3.4533,-3.3844,-3.3036,-3.2049,-3.0492,-2.9355,-2.8723,-2.7165,-2.5914,-2.5173,-2.4515,-2.3999,-2.361,-2.2682,-2.2134,0.0,0.0,0.0,0.0,0.0,0.0,0.0,0.0,0.0,0.0,0.0,-2.4659,0.0,0.0,0.0,-2.7675,-2.7741,-2.8058,-2.8754,-2.8781,-2.9039,-2.9745,-3.0046,-3.0693,-3.188,-3.2628,-3.3251,-3.3904,-3.4259,-3.4423,-3.43,-3.4678,-3.5001,-3.5245,-3.5582,-3.5915,-3.5915,-3.5792,-3.557,-3.5435,-3.5248,-3.5005,-3.4741,-3.4916,-3.5081,-3.5071,-3.4944,-3.4902,-3.4936,-3.4745,-3.4452,-3.4078,-3.4032,-3.3761,-3.3119,-3.2916,-3.2747,-3.2395,-3.1718,-3.119,-3.2511,-3.3267,-3.3298,-3.3759,-3.4346,-3.372,-3.3734,-3.4216,-3.4368,-3.4507,-3.4693,-3.4833,-3.5171,-3.5642,-3.575,-3.5597,-3.5323,-3.5673,-3.5621,-3.5228,-3.5494,-3.5655,-3.572,-3.6195,-3.6445,-3.6445,-3.6754,-3.6908,-3.6877,-3.6877,-3.6754,-3.6414,-3.6258,-3.5975,-3.572,-3.5688,-3.5621,-3.5489,-3.5489,-3.516,-3.4503,-3.3844,-3.2856,-3.1511,-2.9714,-2.8368,-2.7585,-2.5734,-2.4694,-2.4552,-2.3969,-2.361,-2.358,-2.3011,-2.2703,0.0,-2.2074,0.0,0.0,0.0,0.0,0.0,0.0,0.0,0.0,-2.4946,-2.5818,-2.6749,-2.7047,-2.7504,-2.8306,-2.8392,-2.8708,-2.9422,-2.9489,-2.9753,-3.0414,-3.1042,-3.1725,-3.2442,-3.3104,-3.3776,-3.4385,-3.4559,-3.4535,-3.4537,-3.4456,-3.4554,-3.4908,-3.561,-3.6085,-3.6215,-3.5873,-3.5342,-3.4838,-3.4736,-3.4788,-3.4838,-3.4821,-3.5013,-3.4946,-3.4533,-3.4184,-3.4172,-3.3832,-3.3436,-3.3288,-3.3254,-3.3017,-3.2327,-3.2158,-3.2124,-3.2056,-3.165,-3.1224,-3.2615,-3.3332,-3.3812,-3.4163,-3.4439,-3.4686,-3.5017,-3.5324,-3.5479,-3.5398,-3.508,-3.5233,-3.5355,-3.5477,-3.5949,-3.5861,-3.5323,-3.5536,-3.552,-3.5166,-3.5294,-3.5459,-3.5688,-3.5816,-3.5911,-3.61,-3.6289,-3.6289,-3.6195,-3.629,-3.6289,-3.61,-3.5879,-3.5784,0.0,0.0,0.0,0.0,-3.5489,-3.516,-3.4503,-3.3844,-3.2856,-3.154,-3.0133,0.0,-2.7615,-2.6183,-2.5143,-2.4634,-2.3969,0.0,0.0,0.0,0.0,0.0,0.0,0.0,0.0,0.0,0.0,0.0,-2.4067,-2.476,-2.4681,-2.5568,-2.6182,-2.6422,-2.7178,-2.7968,-2.8706,-2.8874,-2.9251,-2.9941,-3.0039,-3.0105,-3.0269,-3.0401,-3.075,-3.1506,-3.1792,-3.243,-3.3627,-3.3895,-3.4173,-3.4589,-3.4282,-3.4041,-3.4173,-3.4763,-3.5192,-3.5184,-3.5162,-3.5028,-3.4407,-3.433,-3.4096,-3.3606,-3.3527,-3.3626,-3.3681,-3.3633,-3.355,-3.355,-3.347,-3.3152,-3.2611,-3.2496,-3.2273,-3.1549,-3.1427,-3.1393,-3.1393,-3.1292,-3.119,-3.2675,0.0,-3.3989,-3.4319,0.0,0.0,-3.5378,-3.5571,-3.5572,-3.5378,-3.5063,-3.5201,-3.5346,-3.5593,-3.6308,-3.6164,-3.5389,-3.5787,-3.5575,-3.4964,-3.5129,-3.5297,-3.5459,-3.5623,-3.5752,-3.5847,-3.6037,-3.6068,-3.6005,-3.6068,-3.6037,-3.5847,-3.5752,-3.5655,-3.5589,-3.5522,-3.5489,-3.5489,-3.5489,-3.519,-3.4533,-3.3844,-3.2856,-3.1511,0.0,0.0,0.0,0.0,0.0,0.0,0.0,0.0,0.0,0.0,0.0,-2.3152,-2.2832,-2.2622,-2.2652,-2.3293,-2.3726,-2.379,-2.4835,-2.5526,-2.5557,-2.6167,-2.6704,-2.7074,-2.7657,-2.8361,-2.9124,-2.9329,-2.9599,-3.0032,-3.0087,-3.0141,-3.0238,-3.0533,-3.086,-3.1276,-3.1703,-3.2251,-3.2909,-3.31,-3.3267,-3.3631,-3.3468,-3.3305,-3.3461,-3.3705,-3.3914,-3.3983,-3.404,-3.4052,-3.3784,-3.3716,-3.3638,-3.3266,-3.3241,-3.3284,-3.3305,-3.3043,-3.2848,-3.2814,-3.2577,-3.2171,-3.1867,-3.1752,-3.163,-3.1292,-3.119,-3.119,-3.119,-3.119,-3.119,-3.2768,-3.3593,-3.4076,-3.4428,-3.4801,-3.5118,-3.54,-3.5571,0.0,0.0,0.0,-3.5004,-3.5223,-3.5669,-3.6468,-3.6322,-3.5543,-3.5949,-3.5642,-3.4806,-3.499,-3.5067,-3.5166,-3.5397,-3.5559,-3.5623,-3.5782,-3.5878,-3.591,-3.591,-3.5814,-3.5686,-3.5655,-3.5621,-3.5489,-3.5489,-3.5489,-3.5489,-3.5489,-3.525,-3.4683,-3.3903,-3.2916,-3.172,-2.9866,-2.8517,-2.7615,-2.6542,-2.5615,-2.4814,-2.4784,-2.4515,-2.3999,-2.3939,-2.3969,-2.3939,-2.3969,-2.3969,-2.3969,-2.4455,-2.4889,-2.51,-2.5727,-2.6184,-2.6236,-2.6665,-2.7154,-2.7771,-2.8122,-2.8608,-2.9316,-2.9547,-2.9704,-2.9848,-2.9924,-2.9968,-3.0109,-3.0587,-3.0924,-3.1044,-3.1459,-3.1994,-3.2092,-3.2206,-3.2362,-3.2451,-3.2541,-3.2475,-3.2585,-3.285,-3.3128,-3.3203,-3.3314,-3.3168,-3.303,-3.3039,-3.3048,-3.2874,-3.2895,-3.3017,-3.2916,-3.253,-3.2158,-3.209,-3.1562,-3.1292,-3.1224,-3.1258,-3.119,-3.119,-3.119,-3.119,-3.119,-3.119,-3.119,-3.269,-3.331,-3.4125,-3.4647,-3.4986,-3.5346,-3.5561,-3.5595,-3.5257,-3.52,-3.5282,-3.4741,-3.4853,-3.5467,-3.5951,-3.6041,-3.5911,-3.5637,-3.5418,0.0,-3.4729,-3.4668,-3.4935,-3.5001,-3.51,-3.5231,-3.5297,-3.5424,-3.5522,-3.5584,-3.5554,-3.5552,-3.5522,-3.5522,-3.5489,-3.5489,-3.5489,-3.5489,-3.5489,-3.5459,-3.534,-3.4143,-3.3125,-3.2347,-3.0971,-2.9385,-2.7675,-2.7405,-2.6746,-2.5555,-2.5465,-2.5435,-2.5345,-2.5285,-2.5315,-2.5345,-2.5345,-2.5345,-2.5315,-2.5405,-2.5704,-2.6267,-2.6567,-2.6505,-2.61,-2.6811,-2.7342,-2.752,-2.8256,-2.8841,-2.8982,-2.9198,-2.9389,-2.9434,-2.9502,-2.957,-2.9624,-2.9743,-2.9807,-2.9839,-2.9986,-3.0453,-3.0995,-3.1306,-3.1714,-3.2198,-3.199,-3.1603,-3.1558,-3.2341,-3.3131,-3.3305,-3.3326,-3.3077,-3.2591,-3.2442,-3.2239,-3.1596,-3.1596,-3.1664,-3.1698,-3.1562,-3.1447,-3.136,-3.1292,-3.119,-3.119,-3.119,-3.119,-3.119,-3.119,-3.119,-3.119,-3.119,-3.119,-3.2694,-3.3275,-3.4009,-3.4538,-3.5054,-3.5624,-3.5743,-3.5571,-3.539,-3.5274,-3.5188,-3.4848,-3.4727,-3.4895,-3.5426,-3.565,-3.5515,-3.544,-3.5198,-3.486,-3.4686,-3.4582,-3.466,-3.5087,-3.5369,-3.5596,-3.5921,-3.6132,-3.62,-3.6301,-3.6369,-3.6339,-3.6141,-3.5878,-3.5519,-3.5489,-3.5489,-3.5489,-3.5489,-3.5489,-3.5489,-3.4173,-3.3365,-3.3036,-3.142,-3.0103,-2.9205,-2.8487,-2.7705,-2.6746,-2.6333,-2.5974,-2.5644,-2.5615,-2.5615,-2.5615,-2.5615,-2.5615,-2.5615,-2.5944,-2.6447,-2.7106,-2.7215,-2.7144,-2.6892,-2.7376,-2.7734,-2.7758,-2.8299,-2.8645,-2.8645,-2.8881,-2.9045,-2.9082,-2.9129,-2.9206,-2.9275,-2.9275,-2.9275,-2.9298,-2.9403,-2.9634,-2.9977,-3.0289,-3.0609,-3.1068,-3.1099,-3.1041,-3.0959,-3.155,-3.2144,-3.2185,-3.2205,-3.207,-3.1785,-3.1718,-3.1529,-3.1224,-3.119,-3.119,-3.119,-3.119,-3.119,-3.119,-3.119,-3.119,-3.119,-3.119,-3.119,-3.119,-3.119,-3.119,-3.119,-3.119,-3.121,-3.2799,-3.3194,-3.3848,-3.4439,-3.5055,-3.5666,-3.5843,-3.5596,-3.5603,-3.5399,-3.5041,-3.4827,-3.4606,-3.4465,-3.4936,-3.5184,-3.5177,-3.5221,-3.5055,-3.4739,-3.4723,-3.4704,-3.4681,-3.5259,-3.57,-3.5966,-3.6441,-3.6676,-3.6746,-3.695,-3.7025,-3.7065,-3.6824,-3.6357,-3.5759,-3.5729,-3.5669,-3.5519,-3.5489,-3.5489,-3.5459,-3.4322,-3.3634,-3.3395,-3.1869,-3.0793,-3.0492,-2.9535,-2.8727,-2.8064,-2.741,-2.6811,-2.6333,-2.6123,-2.6063,-2.6063,-2.6063,-2.6033,-2.6063,-2.6512,-2.7046,-2.7525,-2.7585,-2.7585,-2.761,-2.779,-2.7945,-2.7965,-2.8162,-2.8314,-2.8339,-2.8532,-2.8692,-2.8732,-2.8779,-2.8858,-2.8975,-2.8998,-2.9021,-2.9045,-2.9106,-2.922,-2.9289,-2.9538,-2.9858,-3.0163,-3.0501,-3.081,-3.0912,-3.1052,-3.1151,-3.119,-3.119,-3.1258,-3.119,-3.1224,-3.1224,-3.119,-3.119,-3.119,-3.119,-3.119,-3.119,-3.119,-3.119,-3.119,-3.119,-3.119,-3.119,-3.119,-3.119,-3.119,-3.119,-3.119,-3.1249,-3.3011,-3.3053,-3.3749,-3.4481,-3.5115,-3.5647,-3.5811,-3.5622,-3.5833,-3.5472,-3.4796,-3.4388,-3.4307,-3.4408,-3.4439,-3.48,-3.5292,-3.5006,-3.4995,-3.519,-3.4946,-3.4966,-3.522,-3.537,-3.5617,-3.5971,-3.6273,-3.6474,-3.6616,-3.677,-3.6915,-3.7124,-3.7272,-3.7015,-3.6477,-3.6387,-3.6118,-3.5519,-3.5489,-3.5489,-3.5459,-3.4771,-3.4083,-3.3514,-3.2736,-3.1749,-3.0642,-3.0402,-3.0043,-2.9442,-2.8757,-2.8368,-2.8248,-2.7709,-2.7405,-2.7375,-2.7375,-2.7405,-2.7405,-2.7495,-2.7495,-2.7585,-2.7585,-2.7585,-2.7585,-2.761,-2.769,-2.7815,-2.794,-2.8044,-2.8069,-2.8162,-2.8284,-2.8308,-2.8381,-2.8477,-2.8621,-2.8645,-2.87,-2.8818,-2.8881,-2.899,-2.9114,-2.9357,-2.9694,-3.0065,-3.0384,-3.0688,-3.0871,-3.0992,-3.1092,-3.1171,-3.119,-3.119,-3.119,-3.119,-3.119,-3.119,-3.119,-3.119,-3.119,-3.119,-3.119,-3.119,-3.119,-3.119,-3.119,-3.119,-3.119,-3.119,-3.119,-3.119,-3.119,-3.119,-3.1269,-3.3012,-3.2977,-3.3521,-3.4241,-3.4935,-3.5592,-3.5809,-3.5645,-3.586,-3.565,-3.5132,-3.4715,-3.4223,-3.3836,-3.3937,-3.4272,-3.4744,-3.4656,-3.4661,-3.4841,-3.4687,-3.4695,-3.4873,-3.5245,-3.5611,-3.6042,-3.6579,-3.69,-3.7049,-3.7418,-3.7644,-3.7712,-3.7793,-3.7535,-3.7045,-3.6656,-3.6327,-3.6088,-3.5699,-3.5489,-3.5429,-3.4831,-3.4384,-3.4024,-3.3066,-3.2287,-3.1689,-3.0971,-3.0402,-3.0103,-2.9505,-2.9022,-2.8607,-2.8338,-2.8004,-2.7645,-2.7585,-2.7585,-2.7585,-2.7585,-2.7585,-2.7585,-2.7585,-2.7585,-2.7585,-2.7585,-2.764,-2.766,-2.779,-2.7896,-2.7865,-2.7989,-2.8063,-2.8094,-2.8143,-2.8192,-2.8241,-2.8235,-2.8314,-2.8405,-2.8549,-2.8668,-2.8858,-2.9198,-2.9627,-3.0,-3.03,-3.0572,-3.0851,-3.0972,-3.1072,-3.1171,-3.119,-3.119,-3.119,-3.119,-3.119,-3.119,-3.119,-3.119,-3.119,-3.119,-3.119,-3.119,-3.119,-3.119,-3.119,-3.119,-3.119,-3.119,-3.119,-3.119,-3.119,-3.119,-3.1269,-3.2974,-3.3023,-3.3585,-3.4109,-3.468,-3.5437,-3.5709,-3.5525,-3.5764,-3.5752,-3.5483,-3.5082,-3.4413,-3.3604,-3.359,-3.3852,-3.4189,-3.4272,-3.4395,-3.4473,-3.45,-3.4644,-3.4788,-3.5155,-3.5609,-3.6042,-3.6648,-3.7106,-3.7327,-3.7901,-3.8193,-3.8148,-3.8299,-3.8085,-3.76,-3.7011,-3.6656,-3.6447,-3.5848,-3.5489,-3.5429,-3.5011,-3.4713,-3.4444,-3.3544,-3.2886,-3.2467,-3.154,-3.0943,-3.0791,-3.0163,-2.9535,-2.8906,-2.8697,-2.8334,-2.7705,-2.7585,-2.7585,-2.7585,-2.7585,-2.7585,-2.7585,-2.7585,-2.7585,-2.7585,-2.7585,-2.7585,-2.764,-2.769,-2.774,-2.7765,-2.784,-2.7865,-2.7865,-2.7865,-2.789,-2.794,-2.794,-2.7989,-2.8137,-2.8314,-2.8429,-2.8692,-2.9082,-2.9493,-2.9892,-3.0172,-3.0489,-3.079,-3.0912,-3.1032,-3.1171,-3.119,-3.119,-3.119,-3.119,-3.119,-3.119,-3.119,-3.119,-3.119,-3.119,-3.119,-3.119,-3.119,-3.119,-3.119,-3.119,-3.119,-3.119,-3.119,-3.119,-3.119,-3.119,-3.1288,-3.2794,-3.3212,-3.4069,-3.4383,-3.4366,-3.5253,-3.5482,-3.5284,-3.5524,-3.5585,-3.5537,-3.5458,-3.4901,-3.3916,-3.3655,-3.3539,-3.3768,-3.3979,-3.423,-3.4376,-3.4568,-3.4924,-3.5332,-3.5399,-3.5575,-3.5854,-3.6188,-3.6677,-3.725,-3.7863,-3.8202,-3.819,-3.8672,-3.8667,-3.8115,-3.76,-3.7075,-3.6537,-3.5908,-3.5519,-3.5489,-3.5459,-3.513,-3.4623,-3.4444,-3.3754,-3.2736,-3.2467,-3.2079,-3.1481,-3.0851,-3.0193,-2.9592,-2.8936,-2.8278,-2.7705,-2.7585,-2.7585,-2.7585,-2.7585,-2.7585,-2.7585,-2.7585,-2.7585,-2.7585,-2.7585,-2.7585,-2.7585,-2.761,-2.761,-2.761,-2.7635,-2.7635,-2.7665,-2.761,-2.769,-2.779,-2.7815,-2.7896,-2.802,-2.8137,-2.8381,-2.8779,-2.9013,-2.9335,-2.9694,-2.9935,-3.0227,-3.0647,-3.0831,-3.0992,-3.1131,-3.119,-3.119,-3.119,-3.119,-3.119,-3.119,-3.119,-3.119,-3.119,-3.119,-3.119,-3.119,-3.119,-3.119,-3.119,-3.119,-3.119,-3.119,-3.119,-3.119,-3.119,-3.119,-3.1269,-3.2694,-3.2929,-3.3855,-3.4109,-3.4102,-3.4918,-3.528,-3.5211,-3.5476,-3.5784,-3.5984,-3.5658,-3.5282,-3.4926,-3.4463,-3.394,-3.3539,-3.3598,-3.3768,-3.3979,-3.4021,-3.423,-3.4522,-3.4688,-3.4895,-3.5182,-3.5521,-3.6044,-3.6638,-3.7211,-3.7634,-3.8014,-3.8352,-3.8569,-3.8602,-3.8145,-3.7595,-3.7075,-3.6447,-3.5938,-3.5549,-3.5489,-3.537,-3.513,-3.4743,-3.4294,-3.3784,-3.2976,-3.2378,-3.2138,-3.1511,-3.0851,-3.0163,-2.9175,-2.8308,-2.7705,-2.7585,-2.7585,-2.7585,-2.7585,-2.7585,-2.7585,-2.7585,-2.7585,-2.7585,-2.7585,-2.7585,-2.7585,-2.7585,-2.7585,-2.7585,-2.7585,-2.7585,-2.7585,-2.7585,-2.764,-2.7635,-2.766,-2.7715,-2.7865,-2.8063,-2.8308,-2.8573,-2.8811,-2.9129,-2.9538,-2.9826,-3.0162,-3.0489,-3.077,-3.0952,-3.1072,-3.1151,-3.119,-3.119,-3.119,-3.119,-3.119,-3.119,-3.119,-3.119,-3.119,-3.119,-3.119,-3.119,-3.119,-3.119,-3.119,-3.119,-3.119,-3.119,-3.119,-3.119,-3.119,-3.1288,-3.251,-3.269,-3.3692,-3.3912,-3.3807,-3.471,-3.5105,-3.5114,-3.5476,-3.5908,-3.6235,-3.5956,-3.5683,-3.5458,-3.5107,-3.4544,-3.3839,-3.3637,-3.3563,-3.3598,-3.3598,-3.3725,-3.3937,-3.4105,-3.4272,-3.4564,-3.5059,-3.5588,-3.6123,-3.6665,-3.7173,-3.7596,-3.7976,-3.8389,-3.8672,-3.8322,-3.7847,-3.7331,-3.6772,-3.6178,-3.5579,-3.5489,-3.5489,-3.5429,-3.504,-3.4713,-3.4503,-3.3425,-3.2706,-3.2437,-3.1869,-3.1092,-3.0223,-2.9175,-2.8278,-2.7705,-2.7585,-2.7585,-2.7585,-2.7585,-2.7585,-2.7585,-2.7585,-2.7585,-2.7585,-2.7585,-2.7585,-2.7585,-2.7585,-2.7585,-2.7585,-2.7585,-2.7585,-2.7585,-2.7585,-2.7585,-2.7585,-2.7585,-2.766,-2.779,-2.7989,-2.8186,-2.8411,-2.8692,-2.9045,-2.938,-2.9716,-3.0065,-3.0384,-3.0729,-3.0932,-3.1012,-3.1131,-3.1171,-3.119,-3.119,-3.119,-3.119,-3.119,-3.119,-3.119,-3.119,-3.119,-3.119,-3.119,-3.119,-3.119,-3.119,-3.119,-3.119,-3.119,-3.119,-3.119,-3.119,-3.1308,-3.2286,-3.2363,-3.3558,-3.378,-3.3542,-3.4537,-3.493,-3.4919,-3.5356,-3.5908,-3.6358,-3.6355,-3.6031,-3.5608,-3.5508,-3.5182,-3.465,-3.4243,-3.3852,-3.3589,-3.3538,-3.3623,-3.3837,-3.3905,-3.4032,-3.4286,-3.4876,-3.5344,-3.571,-3.638,-3.6828,-3.7095,-3.7787,-3.8165,-3.824,-3.8171,-3.7807,-3.7223,-3.6735,-3.6237,-3.5579,-3.5489,-3.5489,-3.5489,-3.5429,-3.516,-3.4563,-3.3814,-3.3155,-3.2557,-3.1869,-3.0913,-2.9864,-2.9056,-2.8338,-2.7824,-2.7615,-2.7585,-2.7585,-2.7585,-2.7585,-2.7585,-2.7585,-2.7585,-2.7585,-2.7585,-2.7585,-2.7585,-2.7585,-2.7585,-2.7585,-2.7585,-2.7585,-2.7585,-2.7585,-2.7585,-2.7585,-2.7585,-2.7635,-2.7765,-2.7915,-2.8118,-2.8363,-2.8628,-2.8905,-2.9275,-2.9605,-2.9979,-3.0354,-3.0688,-3.0912,-3.1012,-3.1112,-3.119,-3.119,-3.119,-3.119,-3.119,-3.119,-3.119,-3.119,-3.119,-3.119,-3.119,-3.119,-3.119,-3.119,-3.119,-3.119,-3.119,-3.119,-3.119,-3.119,-3.121,-3.1308,-3.2248,-3.2035,-3.2861,-3.3224,-3.3209,-3.398,-3.4501,-3.4847,-3.538,-3.5883,-3.631,-3.6405,-3.6304,-3.6132,-3.6107,-3.5805,-3.5257,-3.5077,-3.4751,-3.4363,-3.4287,-3.4281,-3.4395,-3.4553,-3.4798,-3.5036,-3.5513,-3.5647,-3.5531,-3.621,-3.659,-3.6682,-3.725,-3.7787,-3.8202,-3.8414,-3.8109,-3.7213,-3.7122,-3.6596,-3.5609,-3.5489,-3.5489,-3.5489,-3.5489,-3.537,-3.513,-3.4113,-3.3425,-3.3155,-3.2079,-3.1092,-3.0283,-2.9624,-2.8992,-2.8364,-2.7854,-2.7585,-2.7585,-2.7615,-2.7615,-2.7585,-2.7585,-2.7585,-2.7585,-2.7585,-2.7585,-2.7585,-2.7585,-2.7585,-2.7585,-2.7585,-2.7585,-2.7585,-2.7585,-2.7585,-2.7585,-2.7585,-2.761,-2.7635,-2.779,-2.7915,-2.8113,-2.8436,-2.8787,-2.916,-2.9538,-2.9935,-3.0215,-3.0647,-3.0892,-3.0952,-3.1072,-3.119,-3.119,-3.119,-3.119,-3.119,-3.119,-3.119,-3.119,-3.119,-3.119,-3.119,-3.119,-3.119,-3.119,-3.119,-3.119,-3.119,-3.119,-3.119,-3.119,-3.123,-3.1308,-3.2087,-3.2035,-3.2602,-3.3018,-3.3187,-3.3747,-3.431,-3.4823,-3.538,-3.5908,-3.631,-3.6405,-3.6405,-3.6405,-3.6405,-3.6182,-3.5881,-3.5855,-3.5655,-3.5278,-3.4826,-3.468,-3.4726,-3.4861,-3.5111,-3.5309,-3.5576,-3.553,-3.5286,-3.5911,-3.6266,-3.6313,-3.6861,-3.7443,-3.7976,-3.8435,-3.8112,-3.7198,-3.7203,-3.6806,-3.5789,-3.5489,-3.5489,-3.5489,-3.5489,-3.5489,-3.5429,-3.4442,-3.3754,-3.3335,-3.2198,-3.1212,-3.0552,-3.0103,-2.9624,-2.9056,-2.8603,-2.8274,-2.8034,-2.8034,-2.7824,-2.7675,-2.7585,-2.7585,-2.7585,-2.7585,-2.7585,-2.7585,-2.7585,-2.7585,-2.7585,-2.7585,-2.7585,-2.7585,-2.7585,-2.7585,-2.7585,-2.7585,-2.7585,-2.761,-2.774,-2.784,-2.8014,-2.8332,-2.8716,-2.9091,-2.947,-2.987,-3.0205,-3.0564,-3.0749,-3.0932,-3.1092,-3.1151,-3.119,-3.119,-3.119,-3.119,-3.119,-3.119,-3.119,-3.119,-3.119,-3.119,-3.119,-3.119,-3.119,-3.119,-3.119,-3.119,-3.119,-3.119,-3.119,-3.119,-3.1269,-3.194,-3.224,-3.2672,-3.3063,-3.3387,-3.3759,-3.429,-3.4871,-3.538,-3.5883,-3.631,-3.6405,-3.6405,-3.6405,-3.6405,-3.638,-3.6405,-3.6329,-3.6304,-3.6028,-3.5403,-3.4977,-3.5002,-3.5002,-3.5163,-3.5294,-3.5359,-3.5314,-3.5401,-3.5785,-3.5948,-3.6142,-3.6642,-3.7173,-3.7634,-3.8194,-3.796,-3.7028,-3.7198,-3.6776,-3.5579,-3.5489,-3.5489,-3.5489,-3.5489,-3.5489,-3.54,-3.4771,-3.4083,-3.3395,-3.2138,-3.1241,-3.0731,-3.0552,-3.0163,-2.9681,-2.9621,-2.9202,-2.8786,-2.8637,-2.8457,-2.7974,-2.7824,-2.7645,-2.7735,-2.7675,-2.7585,-2.7585,-2.7585,-2.7585,-2.7585,-2.7705,-2.7735,-2.7735,-2.7824,-2.7794,-2.7764,-2.7824,-2.7944,-2.7884,-2.7836,-2.7961,-2.8177,-2.8486,-2.8786,-2.9045,-2.9434,-2.9814,-3.0141,-3.0426,-3.0729,-3.0912,-3.1072,-3.1151,-3.119,-3.119,-3.119,-3.119,-3.119,-3.119,-3.119,-3.119,-3.119,-3.119,-3.119,-3.119,-3.119,-3.119,-3.119,-3.119,-3.119,-3.119,-3.119,-3.119,-3.1249,-3.1893,-3.2112,-3.2484,-3.2877,-3.3213,-3.3559,-3.4231,-3.509,-3.5428,-3.5908,-3.631,-3.6405,-3.6405,-3.6405,-3.6405,-3.6405,-3.6405,-3.6405,-3.6405,-3.638,-3.6153,-3.5977,-3.5977,-3.5931,-3.5952,-3.602,-3.6084,-3.6182,-3.6006,-3.5957,-3.6114,-3.6223,-3.6423,-3.6822,-3.7366,-3.8127,-3.7865,-3.6993,-3.7198,-3.6806,-3.5759,-3.5519,-3.5489,-3.5489,-3.5489,-3.5489,-3.5429,-3.4831,-3.3903,-3.2826,-3.1989,-3.1451,-3.1182,-3.0791,-3.0462,-3.0283,-2.9864,-2.9592,-2.9385,-2.9325,-2.9205,-2.9082,-2.8573,-2.8338,-2.8334,-2.7884,-2.7645,-2.7585,-2.7585,-2.7645,-2.7705,-2.8064,-2.8487,-2.8933,-2.8663,-2.8517,-2.8873,-2.9082,-2.9082,-2.9082,-2.9049,-2.894,-2.8784,-2.8878,-2.9038,-2.9046,-2.9366,-2.977,-3.0076,-3.0384,-3.0708,-3.0892,-3.1052,-3.1131,-3.119,-3.119,-3.119,-3.119,-3.119,-3.119,-3.119,-3.119,-3.119,-3.119,-3.119,-3.119,-3.119,-3.119,-3.119,-3.119,-3.119,-3.119,-3.119,-3.119,-3.1288,-3.2267,-3.2371,-3.2641,-3.3074,-3.3424,-3.3554,-3.4188,-3.5138,-3.5476,-3.5908,-3.631,-3.6405,-3.6405,-3.6405,-3.6405,-3.6405,-3.6405,-3.6405,-3.6405,-3.6405,-3.638,-3.638,-3.638,-3.6405,-3.6405,-3.6405,-3.6546,-3.6426,-3.6282,-3.6056,-3.6078,-3.6231,-3.6211,-3.6587,-3.7289,-3.7947,-3.8033,-3.7376,-3.7377,-3.6896,-3.5998,-3.5639,-3.5489,-3.5489,-3.5489,-3.5489,-3.54,-3.4863,-3.4024,-3.3036,-3.2288,-3.1809,-3.1481,-3.1152,-3.0913,-3.0911,-3.0582,-3.0313,-3.0013,-2.9953,-2.9861,-2.9621,-2.9202,-2.9056,-2.8966,-2.8633,-2.8453,-2.8483,-2.8453,-2.8453,-2.8513,-2.8813,-2.9295,-2.9744,-2.9624,-2.9445,-2.9621,-2.9562,-2.9564,-2.9621,-2.9592,-2.9462,-2.9061,-2.917,-2.9126,-2.9069,-2.922,-2.9637,-2.9989,-3.0354,-3.0667,-3.0871,-3.1012,-3.1092,-3.1171,-3.119,-3.119,-3.119,-3.119,-3.119,-3.119,-3.119,-3.119,-3.119,-3.119,-3.119,-3.119,-3.119,-3.119,-3.119,-3.119,-3.119,-3.119,-3.119,-3.1288,-3.2748,-3.284,-3.2987,-3.3406,-3.3866,-3.3781,-3.4384,-3.5163,-3.5572,-3.5955,-3.631,-3.6405,-3.6405,-3.6405,-3.6405,-3.6405,-3.6405,-3.6405,-3.6405,-3.6405,-3.6405,-3.6405,-3.6405,-3.6405,-3.6405,-3.6405,-3.6405,-3.6358,-3.6217,-3.5878,-3.5905,-3.6091,-3.6049,-3.6457,-3.7173,-3.7863,-3.8002,-3.7729,-3.7396,-3.7041,-3.6387,-3.5848,-3.5519,-3.5489,-3.5489,-3.5489,-3.537,-3.4951,-3.4354,-3.3604,-3.2976,-3.2318,-3.175,-3.163,-3.1511,-3.1451,-3.1331,-3.1092,-3.0703,-3.0612,-3.0402,-3.0013,-2.9804,-2.9711,-2.9624,-2.9502,-2.9382,-2.9352,-2.9592,-2.9472,-2.9564,-2.9681,-2.9983,-3.0432,-3.0582,-3.0342,-2.9953,-2.9774,-2.9804,-2.9774,-2.9834,-2.9609,-2.9368,-2.9236,-2.9273,-2.9279,-2.9373,-2.9515,-2.987,-3.0236,-3.0551,-3.0871,-3.0992,-3.1072,-3.1131,-3.119,-3.119,-3.119,-3.119,-3.119,-3.119,-3.119,-3.119,-3.119,-3.119,-3.119,-3.119,-3.119,-3.119,-3.119,-3.119,-3.119,-3.119,-3.119,-3.1249,-3.2674,-3.2965,-3.3279,-3.3487,-3.3781,-3.4284,-3.4945,-3.5524,-3.5764,-3.6098,-3.6358,-3.6405,-3.6405,-3.6405,-3.6405,-3.6405,-3.6405,-3.6405,-3.6405,-3.6405,-3.6405,-3.6405,-3.6405,-3.6405,-3.6405,-3.6405,-3.6405,-3.6383,-3.6217,-3.5833,-3.5617,-3.5896,-3.594,-3.6191,-3.7056,-3.7682,-3.792,-3.7752,-3.7416,-3.6994,-3.6537,-3.5938,-3.5549,-3.5519,-3.5489,-3.5489,-3.5489,-3.537,-3.4951,-3.4324,-3.3664,-3.3066,-3.2437,-3.2228,-3.2019,-3.166,-3.1511,-3.1421,-3.1301,-3.1212,-3.1212,-3.0972,-3.0552,-3.0313,-3.0253,-2.9894,-2.9684,-2.9621,-2.9594,-2.9894,-3.0253,-3.0313,-3.0612,-3.1032,-3.1212,-3.1182,-3.1092,-3.1032,-3.1001,-3.0972,-3.1001,-3.0936,-3.0546,-3.0042,-2.9869,-2.9675,-2.9533,-2.9521,-2.9804,-3.0151,-3.0489,-3.0831,-3.0952,-3.1032,-3.1131,-3.119,-3.119,-3.119,-3.119,-3.119,-3.119,-3.119,-3.119,-3.119,-3.119,-3.119,-3.119,-3.119,-3.119,-3.119,-3.119,-3.119,-3.119,-3.119,-3.121,-3.3161,-3.3301,-3.3582,-3.3908,-3.4235,-3.4628,-3.5187,-3.5716,-3.5932,-3.6146,-3.6358,-3.6405,-3.6405,-3.6405,-3.6405,-3.6405,-3.6405,-3.6405,-3.6405,-3.6405,-3.6405,-3.6405,-3.6405,-3.6405,-3.6405,-3.6405,-3.6405,-3.6383,-3.6171,-3.5744,-3.5574,-3.5854,-3.5763,-3.6178,-3.6978,-3.7596,-3.8057,-3.8193,-3.7789,-3.7377,-3.6892,-3.6297,-3.5759,-3.5579,-3.5489,-3.5489,-3.5489,-3.5489,-3.531,-3.4951,-3.4592,-3.3963,-3.3066,-3.2677,-3.2288,-3.2019,-3.163,-3.1511,-3.1481,-3.1511,-3.1481,-3.1511,-3.1152,-3.1032,-3.0971,-3.0642,-3.0522,-3.0492,-3.0552,-3.0672,-3.0913,-3.0943,-3.1212,-3.1361,-3.1511,-3.1511,-3.1511,-3.1511,-3.1511,-3.1511,-3.1421,-3.1262,-3.0976,-3.0627,-3.0247,-2.9912,-2.9847,-2.9812,-2.976,-3.0108,-3.0447,-3.077,-3.0892,-3.1012,-3.1131,-3.119,-3.119,-3.119,-3.119,-3.119,-3.119,-3.119,-3.119,-3.119,-3.119,-3.119,-3.119,-3.119,-3.119,-3.119,-3.119,-3.119,-3.119,-3.119,-3.121,-3.3657,-3.3623,-3.3963,-3.439,-3.4774,-3.492,-3.538,-3.5932,-3.6051,-3.6241,-3.6358,-3.6405,-3.6405,-3.6405,-3.6405,-3.6405,-3.6405,-3.6405,-3.6405,-3.6405,-3.6405,-3.6405,-3.6405,-3.6405,-3.6405,-3.6405,-3.6207,-3.616,-3.5947,-3.5615,-3.5384,-3.5679,-3.5763,-3.6178,-3.694,-3.7558,-3.8107,-3.8546,-3.8138,-3.7877,-3.746,-3.6836,-3.6118,-3.5609,-3.5489,-3.5489,-3.5489,-3.5489,-3.5459,-3.5489,-3.5489,-3.4891,-3.3993,-3.3185,-3.2587,-3.2557,-3.1959,-3.169,-3.154,-3.1511,-3.1511,-3.1511,-3.1481,-3.1481,-3.1421,-3.1361,-3.1301,-3.1331,-3.1331,-3.1331,-3.1511,-3.1421,-3.1421,-3.1511,-3.1511,-3.1511,-3.1511,-3.1511,-3.1511,-3.1511,-3.1481,-3.1414,-3.1222,-3.0964,-3.0554,-3.0266,-3.0183,-3.0101,-3.0058,-3.0065,-3.0438,-3.0708,-3.0851,-3.1012,-3.1151,-3.1224,-3.1224,-3.1292,-3.1258,-3.1326,-3.1292,-3.119,-3.119,-3.119,-3.119,-3.119,-3.119,-3.119,-3.119,-3.119,-3.119,-3.119,-3.119,-3.119,-3.121,-3.3656,-3.3958,-3.4445,-3.4749,-3.4896,-3.5524,-3.586,-3.6003,-3.6241,-3.6383,-3.6405,-3.6405,-3.6405,-3.6405,-3.6405,-3.6405,-3.6405,-3.6405,-3.6405,-3.6405,-3.6405,-3.6405,-3.6405,-3.6405,-3.6405,-3.6279,-3.5931,-3.5633,-3.5488,-3.5051,-3.502,-3.5269,-3.5548,-3.6151,-3.6861,-3.7443,-3.8052,-3.8627,-3.8309,-3.8038,-3.7903,-3.7075,-3.6237,-3.5639,-3.5549,-3.5489,-3.5489,-3.5489,-3.5489,-3.5489,-3.5489,-3.537,-3.4981,-3.4412,-3.3634,-3.2856,-3.2407,-3.2019,-3.169,-3.1511,-3.1511,-3.1511,-3.1511,-3.1511,-3.1511,-3.1511,-3.1511,-3.1511,-3.1511,-3.1511,-3.1511,-3.1511,-3.1511,-3.1511,-3.1511,-3.1511,-3.1511,-3.1511,-3.1511,-3.1511,-3.1509,-3.1567,-3.1438,-3.1331,-3.1114,-3.084,-3.0673,-3.0561,-3.0431,-3.0337,-3.042,-3.0638,-3.0831,-3.0992,-3.1151,-3.1258,-3.1292,-3.1427,-3.1461,-3.1596,-3.1529,-3.1258,-3.119,-3.1393,-3.1326,-3.119,-3.119,-3.119,-3.119,-3.119,-3.119,-3.119,-3.119,-3.119,-3.119,-3.4124,-3.4442,-3.4675,-3.5066,-3.5476,-3.5812,-3.6098,-3.6241,-3.6383,-3.6405,-3.6405,-3.6405,-3.6405,-3.6405,-3.6405,-3.6405,-3.6405,-3.6405,-3.6405,-3.6405,-3.6405,-3.6405,-3.6405,-3.6405,-3.6157,-3.5881,-3.5378,-3.5229,-3.5302,-3.4879,-3.4803,-3.5136,-3.5467,-3.6151,-3.69,-3.7404,-3.8014,-3.8495,-3.8479,-3.8299,-3.8297,-3.7165,-3.6357,-3.6058,-3.5669,-3.5519,-3.5489,-3.5489,-3.5489,-3.5489,-3.5489,-3.5489,-3.54,-3.516,-3.4562,-3.3634,-3.2916,-3.2407,-3.1959,-3.175,-3.1511,-3.1511,-3.1511,-3.1511,-3.1511,-3.1511,-3.1511,-3.1511,-3.1511,-3.1511,-3.1511,-3.1511,-3.1511,-3.1511,-3.1511,-3.1511,-3.1511,-3.1511,-3.1511,-3.1511,-3.1481,-3.1567,-3.1739,-3.1635,-3.1579,-3.1442,-3.1222,-3.1051,-3.0844,-3.0693,-3.063,-3.0659,-3.0871,-3.1133,-3.134,-3.1529,-3.1698,-3.1799,-3.1901,-3.2036,-3.2138,-3.207,-3.1935,-3.1901,-3.1698,-3.136,-3.119,-3.119,-3.119,-3.119,-3.119,-3.119,-3.119,-3.119,-3.119,-3.4615,-3.4823,-3.4969,-3.5428,-3.5955,-3.6051,-3.6193,-3.6358,-3.6405,-3.6405,-3.6405,-3.6405,-3.6405,-3.6405,-3.6405,-3.6405,-3.6405,-3.6405,-3.6405,-3.6405,-3.6405,-3.6405,-3.6405,-3.6182,-3.5981,-3.5558,-3.4806,-3.4799,-3.4977,-3.4622,-3.4673,-3.5068,-3.5507,-3.6151,-3.69,-3.7366,-3.8052,-3.8509,-3.8804,-3.8661,-3.8202,-3.7464,-3.6686,-3.6507,-3.5968,-3.5669,-3.5519,-3.5489,-3.5489,-3.5489,-3.5489,-3.5489,-3.5489,-3.5489,-3.522,-3.4592,-3.3425,-3.2796,-3.2318,-3.1839,-3.1511,-3.1511,-3.1511,-3.1511,-3.1511,-3.1511,-3.1511,-3.1511,-3.1511,-3.1511,-3.1511,-3.1511,-3.1511,-3.1511,-3.1511,-3.1511,-3.1511,-3.1511,-3.1511,-3.1511,-3.1511,-3.1568,-3.1683,-3.1881,-3.1771,-3.1828,-3.1617,-3.1653,-3.1406,-3.1034,-3.0926,-3.0846,-3.0986,-3.128,-3.1562,-3.1935,-3.2226,-3.251,-3.2679,-3.2848,-3.3017,-3.3152,-3.2882,-3.2544,-3.1989,-3.163,-3.1427,-3.1224,-3.119,-3.119,-3.119,-3.119,-3.119,-3.119,-3.119,-3.4774,-3.4872,-3.5572,-3.5908,-3.6051,-3.6216,-3.6383,-3.6405,-3.6405,-3.6405,-3.6405,-3.6405,-3.6405,-3.6405,-3.6405,-3.6405,-3.6405,-3.6405,-3.6405,-3.6405,-3.6405,-3.638,-3.6304,-3.583,-3.5604,-3.5182,-3.4449,-3.4338,-3.4466,-3.4135,-3.4318,-3.5003,-3.5507,-3.6111,-3.694,-3.7366,-3.8014,-3.862,-3.8804,-3.869,-3.8441,-3.8182,-3.7494,-3.6836,-3.6357,-3.6088,-3.5669,-3.5579,-3.5489,-3.5489,-3.5489,-3.5489,-3.5489,-3.5489,-3.5489,-3.504,-3.4203,-3.3125,-3.2587,-3.1989,-3.154,-3.154,-3.1511,-3.1511,-3.1511,-3.1511,-3.1511,-3.1511,-3.1511,-3.1511,-3.1511,-3.1511,-3.1511,-3.1511,-3.1511,-3.1511,-3.1511,-3.1511,-3.1511,-3.1511,-3.1511,-3.1511,-3.1568,-3.1796,-3.202,-3.2023,-3.2071,-3.2086,-3.1978,-3.1602,-3.1495,-3.1487,-3.1556,-3.1854,-3.2205,-3.253,-3.2869,-3.322,-3.3525,-3.3728,-3.3863,-3.3964,-3.3592,-3.3152,-3.2577,-3.207,-3.1833,-3.1596,-3.1326,-3.119,-3.119,-3.119,-3.119,-3.119,-3.136,-3.5476,-3.5524,-3.5885,-3.6098,-3.6216,-3.6358,-3.6405,-3.6405,-3.6405,-3.6405,-3.6405,-3.6405,-3.6405,-3.6405,-3.6405,-3.6405,-3.6405,-3.6405,-3.6405,-3.6405,-3.638,-3.6182,-3.5906,-3.5583,-3.5307,-3.4625,-3.4192,-3.3983,-3.3964,-3.399,-3.4189,-3.5044,-3.5507,-3.6151,-3.694,-3.7366,-3.8052,-3.8649,-3.9017,-3.9079,-3.8925,-3.8571,-3.8123,-3.7554,-3.6929,-3.6417,-3.6058,-3.5639,-3.5519,-3.5489,-3.5489,-3.5489,-3.5489,-3.5489,-3.5489,-3.5429,-3.4622,-3.3784,-3.3125,-3.2467,-3.1959,-3.157,-3.1511,-3.1511,-3.1511,-3.1511,-3.1511,-3.1511,-3.1511,-3.1511,-3.1511,-3.1511,-3.1511,-3.1511,-3.1511,-3.1511,-3.1511,-3.1511,-3.1511,-3.1511,-3.1511,-3.1511,-3.1539,-3.1798,-3.2025,-3.2155,-3.2265,-3.2437,-3.2378,-3.2172,-3.2175,-3.2326,-3.245,-3.2609,-3.3009,-3.3389,-3.3715,-3.41,-3.4607,-3.4721,-3.4754,-3.4687,-3.4336,-3.41,-3.3761,-3.3186,-3.251,-3.1901,-3.1529,-3.1326,-3.119,-3.136,-3.1562,-3.1819,-3.2022,-3.5652,-3.5724,-3.5974,-3.6166,-3.6157,-3.6157,-3.6056,-3.5931,-3.5906,-3.5977,-3.6006,-3.6081,-3.6254,-3.6405,-3.6405,-3.6405,-3.6405,-3.6405,-3.6405,-3.638,-3.6182,-3.5906,-3.5508,-3.5257,-3.463,-3.3897,-3.3746,-3.3705,-3.3751,-3.3784,-3.4189,-3.5086,-3.5467,-3.6151,-3.69,-3.7481,-3.8089,-3.8833,-3.9192,-3.9307,-3.9254,-3.8931,-3.8601,-3.8123,-3.7524,-3.6806,-3.6447,-3.6088,-3.5789,-3.5489,-3.5489,-3.5489,-3.5489,-3.5489,-3.5489,-3.5429,-3.4921,-3.4442,-3.3724,-3.2976,-3.2347,-3.1899,-3.154,-3.1511,-3.1511,-3.1511,-3.1511,-3.1511,-3.1511,-3.1511,-3.1511,-3.1511,-3.1511,-3.1511,-3.1511,-3.1511,-3.1511,-3.1511,-3.1511,-3.1511,-3.1511,-3.1511,-3.1597,-3.1798,-3.1996,-3.2163,-3.2427,-3.2724,-3.2755,-3.2665,-3.277,-3.2916,-3.2933,-3.3161,-3.3685,-3.41,-3.4472,-3.4776,-3.5261,-3.5464,-3.5329,-3.5295,-3.5092,-3.4912,-3.4675,-3.4167,-3.3423,-3.2544,-3.1765,-3.2036,-3.2205,-3.1968,-3.207,-3.2361,-3.2767,-3.4781,-3.4881,-3.5931,-3.6031,-3.5558,-3.5558,-3.5282,-3.5002,-3.4901,-3.4951,-3.5052,-3.5307,-3.5855,-3.6204,-3.6204,-3.6229,-3.6355,-3.6405,-3.6279,-3.6056,-3.5881,-3.5483,-3.5107,-3.4555,-3.4048,-3.3771,-3.3514,-3.3452,-3.3598,-3.37,-3.4272,-3.5018,-3.5467,-3.6191,-3.6978,-3.7672,-3.8315,-3.8943,-3.9301,-3.9403,-3.9403,-3.9224,-3.902,-3.8542,-3.8212,-3.7734,-3.6596,-3.6387,-3.6028,-3.5549,-3.5489,-3.5489,-3.5489,-3.5489,-3.5489,-3.5429,-3.54,-3.4951,-3.4352,-3.3484,-3.2677,-3.2288,-3.1959,-3.16,-3.1511,-3.1511,-3.1511,-3.1511,-3.1511,-3.1511,-3.1511,-3.1511,-3.1511,-3.1511,-3.1511,-3.1511,-3.1511,-3.1511,-3.1511,-3.1511,-3.1511,-3.1511,-3.1568,-3.1741,-3.1912,-3.2109,-3.2687,-3.2982,-3.3233,-3.3249,-3.3321,-3.3384,-3.3347,-3.3645,-3.4281,-3.4641,-3.4878,-3.5115,-3.5464,-3.5566,-3.5532,-3.5532,-3.5498,-3.5351,-3.5013,-3.4675,-3.4404,-3.3728,-3.3288,-3.3288,-3.3186,-3.2814,-3.2848,-3.3186,-3.366,-3.468,-3.4731,-3.5203,-3.5228,-3.4981,-3.4981,-3.4881,-3.4705,-3.468,-3.468,-3.468,-3.4906,-3.5107,-3.5328,-3.5353,-3.5353,-3.5353,-3.5353,-3.5378,-3.5328,-3.5127,-3.4851,-3.4474,-3.4148,-3.3746,-3.3445,-3.3212,-3.3326,-3.3683,-3.37,-3.4272,-3.4936,-3.5507,-3.6191,-3.6978,-3.7901,-3.8612,-3.898,-3.9301,-3.9403,-3.9403,-3.9373,-3.929,-3.908,-3.8512,-3.7973,-3.7135,-3.6686,-3.6148,-3.5699,-3.5549,-3.5489,-3.5489,-3.5489,-3.5489,-3.5489,-3.5489,-3.534,-3.504,-3.4173,-3.3425,-3.2557,-3.2228,-3.1959,-3.172,-3.154,-3.1511,-3.1511,-3.157,-3.169,-3.154,-3.1511,-3.1511,-3.1511,-3.154,-3.157,-3.1511,-3.1511,-3.1511,-3.1511,-3.1511,-3.1511,-3.1597,-3.1683,-3.1855,-3.2053,-3.2687,-3.324,-3.3469,-3.3771,-3.3858,-3.4049,-3.4086,-3.4263,-3.4901,-3.5126,-3.5261,-3.543,-3.56,-3.56,-3.56,-3.56,-3.5532,-3.543,-3.5397,-3.5182,-3.5013,-3.489,-3.4551,-3.3998,-3.3728,-3.3525,-3.3694,-3.4032,-3.4438,-3.4223,-3.4198,-3.4048,-3.4173,-3.4449,-3.4474,-3.4374,-3.4248,-3.4198,-3.4349,-3.4474,-3.4474,-3.46,-3.463,-3.4705,-3.4731,-3.4781,-3.4781,-3.4731,-3.47,-3.4575,-3.4248,-3.3972,-3.3696,-3.342,-3.3162,-3.3154,-3.3326,-3.3683,-3.37,-3.4272,-3.4936,-3.5534,-3.6191,-3.7095,-3.8136,-3.8907,-3.9162,-3.9301,-3.9403,-3.9403,-3.9373,-3.9409,-3.9313,-3.896,-3.8452,-3.7734,-3.7165,-3.6507,-3.5998,-3.5669,-3.5519,-3.5489,-3.5489,-3.5489,-3.5489,-3.5489,-3.5489,-3.534,-3.4801,-3.3963,-3.3066,-3.2826,-3.2527,-3.2228,-3.2079,-3.2288,-3.2228,-3.2168,-3.2108,-3.2049,-3.2228,-3.2079,-3.2108,-3.1959,-3.1929,-3.16,-3.1511,-3.1511,-3.1511,-3.1511,-3.1511,-3.1626,-3.1712,-3.1968,-3.2193,-3.2718,-3.3251,-3.3624,-3.4006,-3.4421,-3.4665,-3.4921,-3.5171,-3.5521,-3.5476,-3.543,-3.5464,-3.56,-3.56,-3.56,-3.56,-3.56,-3.5532,-3.5532,-3.56,-3.5464,-3.5261,-3.4856,-3.4349,-3.4269,-3.4336,-3.4539,-3.4822,-3.4991,-3.3136,-3.3043,-3.2541,-3.2918,-3.3746,-3.3897,-3.3571,-3.3144,-3.3169,-3.342,-3.3796,-3.3872,-3.4173,-3.443,-3.4449,-3.4449,-3.4474,-3.4525,-3.4525,-3.4399,-3.4073,-3.3897,-3.3696,-3.342,-3.3262,-3.3162,-3.3154,-3.3326,-3.37,-3.37,-3.423,-3.5018,-3.5669,-3.635,-3.7095,-3.8173,-3.898,-3.9337,-3.9373,-3.9403,-3.9403,-3.9403,-3.9403,-3.9343,-3.932,-3.8871,-3.8182,-3.7554,-3.6896,-3.6357,-3.5759,-3.5549,-3.5489,-3.5489,-3.5489,-3.5489,-3.5489,-3.5489,-3.5459,-3.4861,-3.4233,-3.3634,-3.3484,-3.3335,-3.3365,-3.3335,-3.3185,-3.2976,-3.3155,-3.3245,-3.3335,-3.3305,-3.2916,-3.2677,-3.2527,-3.2288,-3.1959,-3.172,-3.178,-3.157,-3.1511,-3.1539,-3.1626,-3.1798,-3.2051,-3.2358,-3.2827,-3.3256,-3.3642,-3.4101,-3.4521,-3.4892,-3.5175,-3.5406,-3.5532,-3.5577,-3.56,-3.56,-3.56,-3.56,-3.56,-3.56,-3.56,-3.56,-3.56,-3.56,-3.56,-3.5566,-3.5194,-3.4923,-3.5194,-3.5295,-3.5498,-3.5498,-3.5498,-3.1964,-3.1938,-3.1738,-3.1888,-3.2215,-3.224,-3.2114,-3.2039,-3.234,-3.2616,-3.2842,-3.3144,-3.342,-3.3596,-3.3696,-3.3721,-3.3696,-3.3621,-3.3621,-3.3646,-3.347,-3.3395,-3.3269,-3.3244,-3.3136,-3.3136,-3.3111,-3.3326,-3.37,-3.37,-3.423,-3.5018,-3.6031,-3.6978,-3.7749,-3.8538,-3.898,-3.9301,-3.9403,-3.9403,-3.9403,-3.9403,-3.9403,-3.9403,-3.9403,-3.911,-3.8482,-3.7853,-3.7195,-3.6596,-3.5968,-3.5579,-3.5519,-3.5489,-3.5489,-3.5489,-3.5489,-3.5489,-3.5489,-3.519,-3.4861,-3.4412,-3.4143,-3.3963,-3.3634,-3.3514,-3.3514,-3.3574,-3.3694,-3.3664,-3.3455,-3.3455,-3.3245,-3.3245,-3.3095,-3.2796,-3.2467,-3.2288,-3.2138,-3.172,-3.1511,-3.1511,-3.1568,-3.1769,-3.2053,-3.2302,-3.2718,-3.3123,-3.3545,-3.4,-3.4472,-3.4844,-3.5152,-3.5383,-3.5509,-3.5577,-3.56,-3.56,-3.56,-3.56,-3.56,-3.56,-3.56,-3.56,-3.56,-3.56,-3.56,-3.56,-3.56,-3.5566,-3.56,-3.56,-3.5566,-3.5566,-3.5566,-3.1386,-3.1361,-3.1185,-3.111,-3.116,-3.1311,-3.1386,-3.1461,-3.1763,-3.1938,-3.2064,-3.2516,-3.2792,-3.2842,-3.2993,-3.3136,-3.3136,-3.3136,-3.3136,-3.3136,-3.3136,-3.3162,-3.3162,-3.3136,-3.3136,-3.3136,-3.3154,-3.3326,-3.3658,-3.37,-3.433,-3.5345,-3.6429,-3.7289,-3.8052,-3.8575,-3.898,-3.9301,-3.9403,-3.9403,-3.9403,-3.9403,-3.9403,-3.9403,-3.9343,-3.92,-3.8691,-3.8093,-3.7434,-3.6806,-3.6267,-3.5729,-3.5609,-3.5489,-3.5489,-3.5489,-3.5489,-3.5489,-3.5489,-3.5489,-3.516,-3.4921,-3.4831,-3.4622,-3.4292,-3.4352,-3.4322,-3.4292,-3.4113,-3.4143,-3.4143,-3.4113,-3.3993,-3.3993,-3.3754,-3.3455,-3.3066,-3.2856,-3.2617,-3.2108,-3.178,-3.172,-3.1599,-3.1798,-3.2025,-3.2305,-3.2582,-3.3016,-3.344,-3.3924,-3.4423,-3.482,-3.5128,-3.5383,-3.5509,-3.5577,-3.56,-3.56,-3.56,-3.56,-3.56,-3.56,-3.56,-3.56,-3.56,-3.56,-3.56,-3.56,-3.56,-3.56,-3.56,-3.56,-3.56,-3.56,-3.56,-3.1336,-3.126,-3.0809,-3.0608,-3.0658,-3.1035,-3.126,-3.1311,-3.1361,-3.1361,-3.1411,-3.1938,-3.219,-3.2315,-3.2767,-3.3011,-3.3061,-3.3061,-3.3136,-3.3136,-3.3136,-3.3136,-3.3136,-3.3136,-3.3136,-3.3136,-3.3154,-3.3326,-3.3658,-3.3979,-3.4647,-3.5548,-3.6547,-3.7404,-3.8089,-3.8612,-3.898,-3.9301,-3.9403,-3.9403,-3.9403,-3.9403,-3.9403,-3.9403,-3.9373,-3.9343,-3.902,-3.8601,-3.7973,-3.7345,-3.6776,-3.6148,-3.5729,-3.5519,-3.5489,-3.5489,-3.5489,-3.5489,-3.5489,-3.5489,-3.5489,-3.531,-3.537,-3.5429,-3.534,-3.513,-3.504,-3.507,-3.504,-3.522,-3.531,-3.516,-3.4981,-3.4801,-3.4532,-3.4143,-3.3664,-3.3395,-3.3155,-3.2796,-3.2467,-3.2228,-3.1868,-3.195,-3.2085,-3.2221,-3.2527,-3.2962,-3.3388,-3.3822,-3.4325,-3.4811,-3.5128,-3.5383,-3.5487,-3.5577,-3.56,-3.56,-3.56,-3.56,-3.56,-3.56,-3.56,-3.56,-3.56,-3.56,-3.56,-3.56,-3.56,-3.56,-3.56,-3.56,-3.56,-3.56,-3.56,-3.0295,-3.0231,-3.008,-3.003,-3.0055,-3.0206,-3.0256,-3.0306,-3.0633,-3.0834,-3.0859,-3.1386,-3.1612,-3.1687,-3.2215,-3.2416,-3.2616,-3.2842,-3.3086,-3.3111,-3.3086,-3.3111,-3.3136,-3.3136,-3.3136,-3.3136,-3.3154,-3.33,-3.381,-3.4189,-3.4895,-3.571,-3.6587,-3.7404,-3.8089,-3.8612,-3.898,-3.9301,-3.9403,-3.9403,-3.9403,-3.9403,-3.9403,-3.9403,-3.9403,-3.9403,-3.926,-3.8811,-3.8153,-3.7434,-3.6836,-3.6207,-3.5579,-3.5489,-3.5489,-3.5489,-3.5489,-3.5489,-3.5489,-3.5489,-3.5489,-3.5489,-3.5489,-3.5489,-3.5489,-3.5489,-3.5489,-3.5489,-3.5489,-3.5489,-3.5489,-3.54,-3.534,-3.519,-3.5011,-3.4741,-3.4322,-3.4113,-3.3844,-3.3365,-3.3036,-3.2557,-3.2167,-3.2069,-3.2235,-3.2254,-3.2471,-3.2908,-3.3361,-3.3797,-3.425,-3.4739,-3.5128,-3.5383,-3.5487,-3.56,-3.56,-3.56,-3.56,-3.56,-3.56,-3.56,-3.56,-3.56,-3.56,-3.56,-3.56,-3.56,-3.56,-3.56,-3.56,-3.56,-3.56,-3.56,-3.56,-2.9779,-2.9779,-2.9779,-2.9779,-2.9779,-2.9779,-2.9779,-2.9854,-3.0156,-3.0306,-3.0357,-3.0834,-3.1085,-3.116,-3.1637,-3.1913,-3.1938,-3.2416,-3.2692,-3.2717,-3.2943,-3.3111,-3.3136,-3.3136,-3.3136,-3.3136,-3.3154,-3.33,-3.3852,-3.4605,-3.5304,-3.5871,-3.6626,-3.7404,-3.806,-3.8612,-3.898,-3.9265,-3.9403,-3.9403,-3.9403,-3.9403,-3.9403,-3.9403,-3.9403,-3.9403,-3.9343,-3.8901,-3.8362,-3.7584,-3.6956,-3.6387,-3.5759,-3.5489,-3.5489,-3.5489,-3.5489,-3.5489,-3.5489,-3.5489,-3.5489,-3.5489,-3.5489,-3.5489,-3.5489,-3.5489,-3.5489,-3.5489,-3.5489,-3.5489,-3.5489,-3.5489,-3.5489,-3.5459,-3.537,-3.531,-3.51,-3.4921,-3.4472,-3.3933,-3.3425,-3.2886,-3.2556,-3.2459,-3.2296,-3.2257,-3.2471,-3.2935,-3.3361,-3.3771,-3.4226,-3.4691,-3.5048,-3.536,-3.5464,-3.5577,-3.56,-3.56,-3.56,-3.56,-3.56,-3.56,-3.56,-3.56,-3.56,-3.56,-3.56,-3.56,-3.56,-3.56,-3.56,-3.56,-3.56,-3.56,-3.56,-2.9779,-2.9779,-2.9779,-2.9779,-2.9779,-2.9779,-2.9779,-2.9779,-2.9829,-2.9804,-2.993,-3.0331,-3.0557,-3.0658,-3.1085,-3.1311,-3.1486,-3.1888,-3.2265,-3.2173,-3.2667,-3.2918,-3.3111,-3.3136,-3.3136,-3.3136,-3.3154,-3.3368,-3.3894,-3.4688,-3.5467,-3.6031,-3.6705,-3.7481,-3.8202,-3.8612,-3.898,-3.9301,-3.9403,-3.9403,-3.9403,-3.9403,-3.9403,-3.9403,-3.9403,-3.9373,-3.9373,-3.9104,-3.8715,-3.7883,-3.7135,-3.6596,-3.5908,-3.5489,-3.5489,-3.5489,-3.5489,-3.5489,-3.5489,-3.5489,-3.5489,-3.5489,-3.5489,-3.5489,-3.5489,-3.5489,-3.5489,-3.5489,-3.5489,-3.5489,-3.5489,-3.5489,-3.5489,-3.5489,-3.5459,-3.54,-3.534,-3.519,-3.5011,-3.4472,-3.3993,-3.3484,-3.3186,-3.3065,-3.2634,-3.2412,-3.2471,-3.2962,-3.3361,-3.3771,-3.4226,-3.4667,-3.5024,-3.5337,-3.5475,-3.5566,-3.56,-3.56,-3.56,-3.56,-3.56,-3.56,-3.56,-3.56,-3.56,-3.56,-3.56,-3.56,-3.56,-3.56,-3.56,-3.56,-3.56,-3.56,-3.56,-2.9779,-2.9779,-2.9779,-2.9779,-2.9779,-2.9779,-2.9779,-2.9779,-2.9779,-2.9779,-2.9804,-2.993,-3.0005,-3.0131,-3.0583,-3.0783,-3.0934,-3.1336,-3.1813,-3.2039,-3.239,-3.2717,-3.2993,-3.3043,-3.3111,-3.3136,-3.3197,-3.3454,-3.4131,-3.4895,-3.5629,-3.6243,-3.6872,-3.7596,-3.8352,-3.8686,-3.898,-3.9254,-3.929,-3.9224,-3.9164,-3.9313,-3.9403,-3.9343,-3.9313,-3.9224,-3.914,-3.8811,-3.8242,-3.7524,-3.6926,-3.6267,-3.5579,-3.5519,-3.5489,-3.5489,-3.5489,-3.5489,-3.5489,-3.5489,-3.5489,-3.5489,-3.5489,-3.5489,-3.5489,-3.5489,-3.5489,-3.5489,-3.5489,-3.5489,-3.5489,-3.5489,-3.5489,-3.5489,-3.5489,-3.5489,-3.5489,-3.5459,-3.54,-3.504,-3.4562,-3.4234,-3.3906,-3.3487,-3.3061,-3.2833,-3.2767,-3.302,-3.3361,-3.3745,-3.4176,-3.4618,-3.5058,-3.5314,-3.5452,-3.5566,-3.5577,-3.56,-3.56,-3.56,-3.56,-3.56,-3.56,-3.56,-3.56,-3.56,-3.56,-3.56,-3.56,-3.56,-3.56,-3.56,-3.56,-3.56,-3.56,-2.9779,-2.9779,-2.9779,-2.9779,-2.9779,-2.9779,-2.9779,-2.9779,-2.9779,-2.9779,-2.9779,-2.9779,-2.9779,-2.9779,-3.0131,-3.0281,-3.0382,-3.0809,-3.111,-3.1461,-3.2039,-3.239,-3.2667,-3.2968,-3.3111,-3.3111,-3.3368,-3.3725,-3.4356,-3.5018,-3.571,-3.6441,-3.7095,-3.7672,-3.8389,-3.8694,-3.8802,-3.8925,-3.896,-3.8841,-3.8686,-3.8781,-3.8721,-3.8691,-3.8542,-3.8536,-3.8422,-3.8093,-3.7674,-3.7015,-3.6387,-3.6028,-3.5579,-3.5489,-3.5489,-3.5489,-3.5489,-3.5489,-3.5489,-3.5489,-3.5489,-3.5489,-3.5489,-3.5489,-3.5489,-3.5489,-3.5489,-3.5489,-3.5489,-3.5489,-3.5489,-3.5489,-3.5489,-3.5489,-3.5489,-3.5489,-3.5489,-3.5489,-3.5459,-3.534,-3.4981,-3.4741,-3.4325,-3.3788,-3.3335,-3.2932,-3.29,-3.2998,-3.3309,-3.3694,-3.4151,-3.457,-3.4954,-3.5245,-3.536,-3.5498,-3.56,-3.56,-3.56,-3.56,-3.56,-3.56,-3.56,-3.56,-3.56,-3.56,-3.56,-3.56,-3.56,-3.56,-3.56,-3.56,-3.5633,-3.5735,-3.5926,-2.9779,-2.9779,-2.9779,-2.9779,-2.9779,-2.9779,-2.9779,-2.9779,-2.9779,-2.9779,-2.9779,-2.9779,-2.9779,-2.9779,-2.9779,-2.9779,-2.993,-3.0331,-3.0532,-3.0984,-3.1662,-3.2064,-3.2441,-3.2767,-3.3011,-3.3283,-3.3471,-3.4021,-3.4647,-3.5223,-3.5871,-3.6665,-3.7211,-3.7682,-3.8264,-3.8517,-3.8536,-3.8346,-3.8182,-3.7883,-3.7853,-3.7913,-3.7883,-3.7644,-3.7404,-3.7404,-3.7404,-3.7225,-3.6985,-3.6537,-3.5998,-3.5699,-3.5549,-3.5489,-3.5489,-3.5489,-3.5489,-3.5489,-3.5489,-3.5489,-3.5489,-3.5489,-3.5489,-3.5489,-3.5489,-3.5489,-3.5489,-3.5489,-3.5489,-3.5489,-3.5489,-3.5489,-3.5489,-3.5489,-3.5489,-3.5489,-3.5489,-3.5489,-3.5489,-3.5489,-3.534,-3.513,-3.4745,-3.4148,-3.3668,-3.3239,-3.3005,-3.308,-3.3229,-3.3674,-3.4075,-3.4497,-3.4883,-3.5128,-3.5291,-3.5475,-3.56,-3.56,-3.56,-3.56,-3.56,-3.56,-3.56,-3.56,-3.56,-3.56,-3.56,-3.56,-3.56,-3.56,-3.56,-3.5667,-3.6028,-3.6163,-3.6366,-2.9779,-2.9779,-2.9779,-2.9779,-2.9779,-2.9779,-2.9779,-2.9779,-2.9779,-2.9779,-2.9779,-2.9779,-2.9779,-2.9779,-2.9779,-2.9779,-2.9804,-3.003,-3.0306,-3.0733,-3.1235,-3.1738,-3.219,-3.2566,-3.3096,-3.3411,-3.3641,-3.4105,-3.4771,-3.5386,-3.6044,-3.6805,-3.7299,-3.7641,-3.7813,-3.7948,-3.7884,-3.7719,-3.7524,-3.7285,-3.7015,-3.7165,-3.7494,-3.7434,-3.7404,-3.7404,-3.7285,-3.6896,-3.6656,-3.6327,-3.5908,-3.5579,-3.5489,-3.5489,-3.5489,-3.5489,-3.5489,-3.5489,-3.5489,-3.5489,-3.5489,-3.5489,-3.5489,-3.5489,-3.5489,-3.5489,-3.5489,-3.5489,-3.5489,-3.5489,-3.5489,-3.5489,-3.5489,-3.5489,-3.5489,-3.5489,-3.5489,-3.5489,-3.5489,-3.5489,-3.5459,-3.534,-3.525,-3.4688,-3.4181,-3.3757,-3.3347,-3.337,-3.3154,-3.3571,-3.3975,-3.4399,-3.4811,-3.5081,-3.5291,-3.5498,-3.56,-3.56,-3.56,-3.56,-3.56,-3.56,-3.56,-3.56,-3.56,-3.56,-3.56,-3.56,-3.56,-3.56,-3.56,-3.5735,-3.6197,-3.6671,-3.6975]}]]